Date StartTime U_cm/s V_cm/s W_cm/s Ustd_cm/s Vstd_cm/s Wstd_cm/s Uvar_(cm/s)^2 Vvar_(cm/s)^2 Wvar_(cm/s)^2 KE_(m/s)^2 TurbulentKE_(m/s)^2 HorizWindSpeed_cm/s FrictionSpeec_cm/s DragCoef SpeedOfSound_m/s SonicTemperature_C Pressure_mb 
07/07/2014  00:00:00      -88.270       36.873       -0.164       39.514       20.120       20.897     1561.335      404.809      436.690        0.578        0.120       95.662       15.344        0.026      347.825       27.076      863.202
07/07/2014  00:01:00      -88.997      -18.355      -12.829       24.125       36.385       13.129      582.036     1323.832      172.359        0.525        0.104       90.870        7.340        0.007      347.594       26.676      863.196
07/07/2014  00:02:00     -108.069      -25.490       -5.265       38.116       31.890       21.748     1452.803     1016.953      472.989        0.765        0.147      111.035       23.243        0.044      347.410       26.358      863.180
07/07/2014  00:03:00     -100.067      -34.399      -10.356       19.763       21.723       14.721      390.586      471.904      216.713        0.619        0.054      105.814       11.398        0.012      347.281       26.136      863.180
07/07/2014  00:04:00     -104.313      -27.409       -6.211       37.294       30.422       21.970     1390.865      925.501      482.660        0.723        0.140      107.854       21.272        0.039      347.319       26.203      863.186
07/07/2014  00:05:00     -120.407       11.684       -0.274       41.412       26.413       14.514     1714.971      697.658      210.671        0.863        0.131      120.972       12.927        0.011      347.368       26.286      863.179
07/07/2014  00:06:00     -141.092        4.600      -18.416       18.625       19.681       13.032      346.874      387.359      169.824        1.059        0.045      141.167        9.404        0.004      347.378       26.301      863.162
07/07/2014  00:07:00     -137.050       34.078      -11.753       24.984       19.026       11.574      624.181      362.003      133.958        1.060        0.056      141.223        8.146        0.003      347.479       26.477      863.162
07/07/2014  00:08:00     -107.065       16.279       -9.575       30.481       33.693       14.181      929.106     1135.240      201.104        0.704        0.113      108.295        7.448        0.005      347.417       26.372      863.147
07/07/2014  00:09:00      -90.896      -39.268       -6.137       24.016       27.171       13.671      576.791      738.271      186.889        0.567        0.075       99.015        9.098        0.008      347.272       26.121      863.139
07/07/2014  00:10:00     -110.581      -19.529      -15.462       30.247       31.062       19.924      914.899      964.868      396.985        0.756        0.114      112.292       19.574        0.030      347.132       25.880      863.131
07/07/2014  00:11:00      -97.834      -13.751       -7.545       36.005       30.523       18.826     1296.330      931.683      354.426        0.620        0.129       98.796       14.095        0.020      347.073       25.778      863.120
07/07/2014  00:12:00     -107.433       -3.563       -5.673       26.285       24.873       21.007      690.889      618.691      441.301        0.667        0.088      107.492       16.739        0.024      347.139       25.892      863.108
07/07/2014  00:13:00      -96.549       15.100      -13.320       30.225       20.172       16.070      913.559      406.923      258.253        0.565        0.079       97.723       15.155        0.024      347.251       26.086      863.104
07/07/2014  00:14:00     -103.543       77.868      -17.482       29.377       36.097       18.933      863.007     1303.000      358.468        0.981        0.126      129.555       18.316        0.020      347.187       25.974      863.108
07/07/2014  00:15:00     -100.940       72.558      -14.007       42.548       44.853       26.073     1810.342     2011.751      679.806        1.008        0.225      124.312       25.699        0.043      347.282       26.139      863.100
07/07/2014  00:16:00     -105.739       58.927      -11.977       46.845       32.896       29.011     2194.424     1082.169      841.621        0.946        0.206      121.050       26.275        0.047      347.358       26.268      863.103
07/07/2014  00:17:00     -108.504       56.453      -18.275       25.860       31.914       20.176      668.761     1018.526      407.078        0.869        0.105      122.312       17.416        0.020      347.245       26.075      863.114
07/07/2014  00:18:00      -96.424       18.659       -9.054       24.112       21.665       15.723      581.405      469.355      247.207        0.551        0.065       98.213       13.670        0.019      347.157       25.923      863.106
07/07/2014  00:19:00     -104.025       30.709       -6.190       27.229       20.369       15.886      741.406      414.912      252.356        0.661        0.070      108.463       14.558        0.018      347.183       25.969      863.099
07/07/2014  00:20:00     -110.042       16.703       -4.790       19.585       16.427       10.985      383.558      269.852      120.661        0.659        0.039      111.303        7.673        0.005      347.011       25.672      863.105
07/07/2014  00:21:00     -114.036       11.087       -9.700       30.415       37.159       24.971      925.082     1380.757      623.536        0.807        0.146      114.574       19.991        0.030      347.153       25.915      863.096
07/07/2014  00:22:00     -138.196       13.469      -15.485       37.263       42.733       18.045     1388.543     1826.093      325.636        1.153        0.177      138.851       21.224        0.023      347.217       26.024      863.098
07/07/2014  00:23:00     -128.466      -16.058       -4.236       28.431       40.428       22.198      808.314     1634.429      492.737        0.986        0.147      129.466       13.050        0.010      347.092       25.809      863.090
07/07/2014  00:24:00     -119.001      -29.028      -12.290       37.811       27.771       23.192     1429.651      771.226      537.890        0.895        0.137      122.490       20.697        0.029      347.128       25.873      863.078
07/07/2014  00:25:00     -159.331      -48.005      -10.810       37.064       34.320       24.515     1373.709     1177.880      600.999        1.548        0.158      166.406       22.774        0.019      347.134       25.882      863.058
07/07/2014  00:26:00     -162.961       20.989       -7.270       60.882       41.132       23.254     3706.573     1691.847      540.745        1.649        0.297      164.307       26.325        0.026      347.179       25.960      863.050
07/07/2014  00:27:00     -141.264      -14.194      -10.868       38.595       45.470       27.312     1489.550     2067.537      745.927        1.229        0.215      141.975       25.553        0.032      347.170       25.946      863.045
07/07/2014  00:28:00     -124.677      -23.641       -2.799       25.979       39.515       25.188      674.916     1561.451      634.458        0.949        0.144      126.899       16.501        0.017      347.181       25.965      863.023
07/07/2014  00:29:00     -109.800       11.812       -4.870       46.325       40.052       27.933     2145.990     1604.185      780.246        0.837        0.227      110.434       29.319        0.070      347.087       25.803      863.021
07/07/2014  00:30:00     -164.875       16.608      -13.117       43.868       50.617       28.329     1924.373     2562.050      802.547        1.646        0.264      165.709       27.239        0.027      347.347       26.248      863.000
07/07/2014  00:31:00     -145.540       14.812      -20.633       43.373       40.492       28.725     1881.235     1639.595      825.136        1.309        0.217      146.292       29.399        0.040      347.216       26.024      862.978
07/07/2014  00:32:00     -183.220      -74.996       -5.837       55.386       50.333       38.033     3067.566     2533.449     1446.542        2.314        0.352      197.975       28.066        0.020      347.116       25.850      862.958
07/07/2014  00:33:00     -170.441      -41.339        2.668       74.587       56.669       39.238     5563.186     3211.404     1539.630        2.054        0.516      175.383       31.721        0.033      347.180       25.959      862.932
07/07/2014  00:34:00     -174.540      -52.221       -8.726       93.197       65.910       38.996     8685.599     4344.132     1520.652        2.391        0.728      182.184       41.820        0.053      347.393       26.327      862.921
07/07/2014  00:35:00     -276.954      -51.124      -17.877       68.985       59.819       41.623     4758.899     3578.344     1732.511        4.485        0.503      281.633       36.857        0.017      347.659       26.785      862.905
07/07/2014  00:36:00     -256.033      -53.939      -12.785       69.933       62.918       42.516     4890.631     3958.635     1807.616        3.964        0.533      261.653       30.250        0.013      347.657       26.782      862.885
07/07/2014  00:37:00     -190.743      -32.737       -8.093       81.619       72.141       32.839     6661.666     5204.386     1078.410        2.523        0.647      193.532       32.431        0.028      347.701       26.859      862.877
07/07/2014  00:38:00     -233.733      -74.875      -15.102       68.529       53.786       38.548     4696.241     2892.930     1485.959        3.477        0.454      245.433       36.466        0.022      347.665       26.795      862.859
07/07/2014  00:39:00     -225.560      -56.332      -13.926       59.314       57.629       38.276     3518.128     3321.107     1465.033        3.127        0.415      232.488       30.876        0.018      347.616       26.710      862.848
07/07/2014  00:40:00     -201.888        2.586      -11.727       67.876       51.062       39.545     4607.133     2607.372     1563.777        2.484        0.439      201.905       36.284        0.032      347.619       26.716      862.840
07/07/2014  00:41:00     -209.767      -10.086      -13.991       77.017       66.150       43.177     5931.630     4375.810     1864.213        2.823        0.609      210.009       43.333        0.043      347.640       26.753      862.836
07/07/2014  00:42:00     -192.988      -61.331      -10.822       65.208       50.116       36.005     4252.056     2511.654     1296.341        2.459        0.403      202.499       34.127        0.028      347.516       26.539      862.840
07/07/2014  00:43:00     -173.310      -40.256      -11.247       76.804       63.556       31.527     5898.920     4039.321      993.957        2.136        0.547      177.924       33.988        0.036      347.610       26.700      862.807
07/07/2014  00:44:00     -142.016      -25.734       -8.675       49.920       44.968       24.561     2492.013     2022.107      603.244        1.301        0.256      144.329       23.191        0.026      347.539       26.579      862.802
07/07/2014  00:45:00     -109.086      -19.471       -3.932       44.194       51.721       25.087     1953.080     2675.093      629.351        0.878        0.263      110.810       20.297        0.034      347.541       26.585      862.800
07/07/2014  00:46:00     -112.837      -30.486       -5.806       59.338       49.617       31.091     3521.053     2461.806      966.662        1.032        0.347      116.883       13.083        0.013      347.526       26.560      862.791
07/07/2014  00:47:00     -133.488      -50.507       -8.887       52.332       55.478       31.233     2738.672     3077.773      975.523        1.362        0.340      142.724       29.943        0.044      347.522       26.551      862.787
07/07/2014  00:48:00     -184.421      -79.887      -17.615       68.248       65.412       29.623     4657.795     4278.767      877.534        2.526        0.491      200.980       22.780        0.013      347.560       26.614      862.787
07/07/2014  00:49:00     -274.262      -30.834      -23.897       79.557       70.173       44.039     6329.374     4924.219     1939.467        4.496        0.660      275.989       38.548        0.020      347.691       26.839      862.775
07/07/2014  00:50:00     -214.771      -35.876      -10.123       91.273       53.458       42.127     8330.696     2857.775     1774.694        3.024        0.648      217.747       36.768        0.029      347.659       26.786      862.764
07/07/2014  00:51:00     -199.738      -83.217       -0.793       83.708       59.542       45.490     7007.076     3545.254     2069.296        2.972        0.631      216.380       44.613        0.043      347.607       26.696      862.766
07/07/2014  00:52:00     -254.123      -62.702      -13.703       90.880       62.045       42.066     8259.208     3849.594     1769.559        4.129        0.694      261.744       48.828        0.035      347.600       26.683      862.776
07/07/2014  00:53:00     -204.109      -57.248       -3.751      104.653       77.372       48.103    10952.234     5986.439     2313.929        3.210        0.963      211.985       48.948        0.053      347.633       26.740      862.759
07/07/2014  00:54:00     -266.423      -44.144      -20.267       86.379       83.092       47.973     7461.282     6904.285     2301.364        4.500        0.833      270.056       48.356        0.032      347.748       26.936      862.761
07/07/2014  00:55:00     -301.345      -39.936      -43.067       75.113       68.028       44.582     5641.986     4627.772     1987.511        5.326        0.613      303.980       43.182        0.020      347.788       27.008      862.800
07/07/2014  00:56:00     -255.552      -54.978      -36.592       51.659       58.539       34.398     2668.614     3426.864     1183.208        3.847        0.364      261.399       19.141        0.005      347.697       26.849      862.819
07/07/2014  00:57:00     -224.305      -78.820      -18.348       47.351       50.227       33.603     2242.162     2522.790     1129.157        3.138        0.295      237.750       24.291        0.010      347.709       26.870      862.803
07/07/2014  00:58:00     -171.959      -54.733       -4.870       68.641       59.769       35.964     4711.532     3572.385     1293.374        2.108        0.479      180.459       31.263        0.030      347.583       26.656      862.791
07/07/2014  00:59:00     -211.269      -22.088       -2.132      116.820       75.781       40.219    13646.961     5742.835     1617.561        3.306        1.050      212.420       51.192        0.058      347.643       26.757      862.793
07/07/2014  01:00:00     -166.303      -46.072       -7.911       61.606       69.389       33.638     3795.287     4814.901     1131.486        1.979        0.487      172.567       32.123        0.035      347.675       26.815      862.814
07/07/2014  01:01:00     -160.611      -44.232       15.826       95.121       82.538       40.142     9047.984     6812.580     1611.355        2.273        0.874      166.590       44.290        0.071      347.700       26.856      862.814
07/07/2014  01:02:00     -184.494      -66.044       -8.949      101.981       71.202       49.964    10400.163     5069.682     2496.397        2.822        0.898      195.959       55.723        0.081      347.809       27.046      862.791
07/07/2014  01:03:00     -213.071      -80.698       -4.954      101.503       75.463       47.980    10302.955     5694.615     2302.037        3.511        0.915      227.841       41.081        0.033      347.814       27.054      862.789
07/07/2014  01:04:00     -195.013      -98.394      -10.869       77.845       41.806       25.444     6059.806     1747.741      647.392        2.814        0.423      218.429       20.508        0.009      347.838       27.094      862.786
07/07/2014  01:05:00     -220.376      -79.684       -7.307       51.657       51.360       34.330     2668.456     2637.889     1178.548        3.073        0.324      234.340       25.000        0.011      347.829       27.078      862.800
07/07/2014  01:06:00     -173.764      -47.916        6.727       78.315       59.947       33.751     6133.294     3593.619     1139.145        2.170        0.543      180.249       32.096        0.032      347.753       26.949      862.805
07/07/2014  01:07:00     -238.116      -40.860        1.906       70.694       51.286       32.962     4997.656     2630.283     1086.472        3.354        0.436      241.597       35.020        0.021      347.799       27.027      862.798
07/07/2014  01:08:00     -159.953      -67.740        5.363       97.088       84.201       44.500     9426.014     7089.881     1980.213        2.435        0.925      173.706       50.370        0.084      347.718       26.889      862.793
07/07/2014  01:09:00     -165.502      -91.977       -6.493       96.734       71.119       38.533     9357.418     5057.859     1484.759        2.589        0.795      189.343       47.429        0.063      347.762       26.964      862.778
07/07/2014  01:10:00     -195.645      -45.430       -5.993       95.024       61.563       48.772     9029.599     3789.956     2378.681        2.778        0.760      200.850       52.018        0.067      347.907       27.214      862.790
07/07/2014  01:11:00     -129.918      -71.485        3.144       87.329       75.323       39.652     7626.272     5673.552     1572.298        1.843        0.744      148.286       34.266        0.053      347.826       27.076      862.815
07/07/2014  01:12:00     -134.651      -56.890       -7.345       87.145       61.191       38.227     7594.214     3744.312     1461.302        1.711        0.640      146.176       45.444        0.097      347.837       27.093      862.799
07/07/2014  01:13:00     -104.421      -35.227        7.930      103.569       57.489       44.042    10726.557     3305.007     1939.729        1.409        0.799      110.203       51.392        0.217      347.726       26.903      862.796
07/07/2014  01:14:00      -77.506      -31.398        6.421       58.613       47.247       29.326     3435.513     2232.307      860.009        0.678        0.326       83.624       27.885        0.111      347.728       26.907      862.828
07/07/2014  01:15:00     -164.598       -0.874       -5.207       83.043       42.958       30.047     6896.146     1845.378      902.797        1.838        0.482      164.600       31.892        0.038      347.873       27.157      862.839
07/07/2014  01:16:00     -104.502       26.009        0.794       65.242       39.146       31.937     4256.544     1532.390     1019.945        0.920        0.340      107.690       31.886        0.088      347.797       27.027      862.847
07/07/2014  01:17:00      -39.856       79.512       -7.321       62.627       62.069       23.397     3922.124     3852.517      547.443        0.814        0.416       88.942       20.745        0.054      347.644       26.762      862.837
07/07/2014  01:18:00        2.494       34.890       -4.172       80.537       49.866       35.656     6486.259     2486.591     1271.362        0.574        0.512       34.979       30.985        0.785      347.397       26.338      862.836
07/07/2014  01:19:00      111.271       41.772        2.303       38.551       40.742       26.579     1486.202     1659.931      706.426        0.899        0.193      118.853       17.949        0.023      347.174       25.954      862.830
07/07/2014  01:20:00       33.707       45.068       41.160       31.420       31.665       26.976      987.245     1002.648      727.678        0.379        0.136       56.279       21.191        0.142      347.120       25.860      862.810
07/07/2014  01:21:00       13.399       42.791       29.350       32.917       26.433       35.277     1083.507      698.715     1244.497        0.295        0.151       44.840       19.799        0.195      347.175       25.954      862.802
07/07/2014  01:22:00        6.288       18.593       -4.483       25.154       24.596       20.115      632.726      604.980      404.595        0.102        0.082       19.627       15.067        0.589      347.164       25.935      862.819
07/07/2014  01:23:00       13.907        6.073       -1.023       19.521       21.089       19.723      381.057      444.758      389.015        0.072        0.061       15.175       16.582        1.194      347.143       25.898      862.812
07/07/2014  01:24:00       28.583        7.236       -5.616        9.894        7.712        6.149       97.894       59.473       37.810        0.055        0.010       29.485        1.662        0.003      347.050       25.737      862.804
07/07/2014  01:25:00       45.163      -13.698       10.529       20.548       22.989       14.756      422.206      528.472      217.733        0.175        0.058       47.195       12.490        0.070      346.909       25.496      862.787
07/07/2014  01:26:00       54.090       36.308       27.719       23.594       21.925       22.697      556.667      480.703      515.144        0.328        0.078       65.146        8.219        0.016      346.846       25.387      862.778
07/07/2014  01:27:00        4.962      -32.316       22.124       20.432       49.985       23.054      417.473     2498.500      531.465        0.250        0.172       32.695       27.006        0.682      346.923       25.520      862.786
07/07/2014  01:28:00       20.065      -26.000       -2.481       12.300       28.006       10.343      151.286      784.341      106.985        0.106        0.052       32.842       13.039        0.158      346.948       25.563      862.794
07/07/2014  01:29:00       24.713       19.989       13.595        8.650       11.624        7.475       74.819      135.113       55.874        0.073        0.013       31.785        5.259        0.027      346.811       25.327      862.803
07/07/2014  01:30:00       15.876       51.378       -9.296       19.021       15.130        6.842      361.803      228.921       46.813        0.181        0.032       53.775        4.206        0.006      346.990       25.635      862.821
07/07/2014  01:31:00       47.088       40.354        7.085       24.325       20.011       16.093      591.725      400.448      258.970        0.257        0.063       62.014       11.546        0.035      347.044       25.728      862.821
07/07/2014  01:32:00       44.590       34.607        6.617       20.520       16.820       14.465      421.071      282.915      209.241        0.207        0.046       56.444       10.951        0.038      347.028       25.700      862.826
07/07/2014  01:33:00       16.853       22.766       -2.126       14.482       23.153        8.343      209.724      536.055       69.600        0.081        0.041       28.325        8.198        0.084      346.969       25.599      862.832
07/07/2014  01:34:00       -0.446       19.358       -6.063       15.811       29.281        8.972      249.998      857.392       80.492        0.080        0.059       19.363        7.197        0.138      347.012       25.675      862.836
07/07/2014  01:35:00        4.157       49.879       -6.361       13.714       19.481        4.972      188.068      379.509       24.722        0.157        0.030       50.052        3.865        0.006      347.039       25.719      862.834
07/07/2014  01:36:00       13.176       35.260       -7.469       11.186       15.380        6.472      125.118      236.535       41.882        0.094        0.020       37.641        4.870        0.017      346.894       25.471      862.824
07/07/2014  01:37:00       13.980      105.603      -19.994       10.667       30.939       10.888      113.787      957.205      118.541        0.647        0.059      106.525       15.875        0.022      347.239       26.061      862.834
07/07/2014  01:38:00       14.953       93.518      -17.145       22.927       23.783       11.642      525.633      565.631      135.541        0.524        0.061       94.706       11.611        0.015      347.285       26.145      862.840
07/07/2014  01:39:00       39.212       33.177        0.293       29.483       24.463       17.649      869.228      598.442      311.499        0.221        0.089       51.365       15.896        0.096      347.048       25.735      862.832
07/07/2014  01:40:00       51.295       41.346        5.591       29.406       21.295       20.099      864.739      453.482      403.962        0.305        0.086       65.884       13.817        0.044      347.036       25.714      862.822
07/07/2014  01:41:00       15.028       72.689      -11.385       21.997       38.474       13.015      483.885     1480.229      169.396        0.389        0.107       74.226       15.033        0.041      346.920       25.515      862.843
07/07/2014  01:42:00       38.269      116.877      -12.523       29.594       48.207       29.070      875.788     2323.906      845.045        0.966        0.202      122.982       25.995        0.045      347.003       25.658      862.854
07/07/2014  01:43:00       30.118      101.997      -17.047       24.937       48.354       20.694      621.871     2338.101      428.228        0.749        0.169      106.351       24.805        0.054      346.927       25.528      862.850
07/07/2014  01:44:00       36.275       45.251        0.187       26.232       31.105       18.138      688.142      967.527      328.984        0.267        0.099       57.996       18.003        0.096      346.804       25.314      862.842
07/07/2014  01:45:00       21.501       14.577        8.901       15.904       16.434       14.921      252.940      270.063      222.628        0.075        0.037       25.976        8.109        0.097      346.772       25.262      862.850
07/07/2014  01:46:00        5.822       30.646       -8.579       12.060       10.506        7.231      145.444      110.386       52.287        0.068        0.015       31.194        6.872        0.049      346.939       25.547      862.850
07/07/2014  01:47:00        9.698       55.110       -7.926       15.340       22.646        8.971      235.312      512.841       80.475        0.201        0.041       55.956       11.516        0.042      347.003       25.658      862.852
07/07/2014  01:48:00        5.696      110.682      -15.966       15.826       24.111        8.522      250.460      581.357       72.633        0.672        0.045      110.828        7.895        0.005      346.943       25.554      862.839
07/07/2014  01:49:00       15.255      117.207      -16.676       20.866       30.411       14.224      435.383      924.828      202.320        0.791        0.078      118.196       15.342        0.017      347.002       25.657      862.834
07/07/2014  01:50:00       10.394       79.774      -15.300       23.903       36.244       12.325      571.366     1313.653      151.906        0.437        0.102       80.449       11.797        0.022      347.073       25.778      862.827
07/07/2014  01:51:00       -7.396      144.593      -20.653       22.447       26.551        9.942      503.880      704.932       98.853        1.135        0.065      144.782       10.015        0.005      346.998       25.649      862.844
07/07/2014  01:52:00       38.606      140.480      -22.782       28.747       41.378       20.261      826.392     1712.156      410.495        1.235        0.147      145.689       17.923        0.015      346.890       25.464      862.837
07/07/2014  01:53:00       44.439      182.172      -31.753       29.731       41.340       31.834      883.931     1709.033     1013.380        1.989        0.180      187.514       27.058        0.021      346.812       25.328      862.830
07/07/2014  01:54:00       30.102      136.042      -24.111       25.709       58.443       23.083      660.970     3415.599      532.813        1.230        0.230      139.332       28.204        0.041      346.654       25.056      862.832
07/07/2014  01:55:00      -14.323      122.391      -15.410       30.790       45.997       17.396      947.999     2115.753      302.627        0.939        0.168      123.226       24.656        0.040      346.648       25.047      862.837
07/07/2014  01:56:00      -34.397       76.478      -17.845       16.701       33.227        9.142      278.932     1104.003       83.577        0.441        0.073       83.857       11.412        0.019      346.627       25.011      862.849
07/07/2014  01:57:00       -2.169       59.550       -5.055       31.873       29.150        7.497     1015.911      849.722       56.203        0.275        0.096       59.590        6.101        0.010      346.615       24.989      862.846
07/07/2014  01:58:00       41.939       27.934       -0.375       20.932       19.997       17.039      438.163      399.881      290.323        0.183        0.056       50.390       10.185        0.041      346.574       24.921      862.830
07/07/2014  01:59:00       -7.070       52.543       -7.805       17.761       20.994       11.458      315.465      440.729      131.292        0.188        0.044       53.016        7.192        0.018      346.548       24.875      862.850
07/07/2014  02:00:00      -49.286       -3.436      -10.004       11.690       22.336        7.861      136.658      498.915       61.800        0.162        0.035       49.406        8.313        0.028      346.314       24.474      862.870
07/07/2014  02:01:00      -57.640      -31.047       -8.968       14.947       12.263        6.909      223.412      150.393       47.733        0.239        0.021       65.470        3.372        0.003      346.167       24.220      862.870
07/07/2014  02:02:00      -10.778      -28.930       -1.983       12.574        9.504        5.380      158.106       90.334       28.948        0.062        0.014       30.873        4.690        0.023      346.295       24.440      862.868
07/07/2014  02:03:00       22.584      -16.044       -1.196       10.698       10.204        4.660      114.441      104.118       21.718        0.050        0.012       27.703        6.776        0.060      346.564       24.903      862.863
07/07/2014  02:04:00       17.505        5.770        0.590       13.943        7.795        6.942      194.401       60.761       48.189        0.032        0.015       18.432        7.714        0.175      346.565       24.905      862.873
07/07/2014  02:05:00        5.664        8.578       12.100       11.867       12.366        8.538      140.837      152.929       72.893        0.031        0.018       10.279        4.264        0.172      346.557       24.889      862.872
07/07/2014  02:06:00       -6.567       -8.562        7.123       10.229        7.805        5.928      104.629       60.920       35.142        0.018        0.010       10.791        3.338        0.096      346.533       24.850      862.867
07/07/2014  02:07:00       20.886       -2.310        5.117       11.925        6.492        5.382      142.212       42.142       28.969        0.034        0.011       21.013        2.488        0.014      346.559       24.895      862.872
07/07/2014  02:08:00        9.577        0.514        2.804       16.509       18.889        6.109      272.554      356.796       37.323        0.038        0.033        9.591        6.435        0.450      346.525       24.834      862.848
07/07/2014  02:09:00       -3.509      -29.426       -4.898        9.994        8.368        7.969       99.878       70.017       63.512        0.057        0.012       29.634        4.869        0.027      346.299       24.446      862.829
07/07/2014  02:10:00        1.406      -56.775       -5.320       12.558       19.599       10.255      157.698      384.116      105.174        0.195        0.032       56.792        7.186        0.016      346.396       24.614      862.812
07/07/2014  02:11:00       10.769      -84.097       -6.075       16.380       17.897       13.659      268.308      320.311      186.561        0.400        0.039       84.784       10.726        0.016      346.732       25.190      862.810
07/07/2014  02:12:00      -31.833      -16.846       -4.733       39.995       39.026        8.161     1599.596     1523.001       66.596        0.225        0.159       36.016        7.655        0.045      346.315       24.473      862.814
07/07/2014  02:13:00      -41.722       16.371       -5.519        7.201       10.300        4.709       51.854      106.094       22.173        0.111        0.009       44.819        3.441        0.006      346.320       24.483      862.808
07/07/2014  02:14:00       -5.584        5.464        0.271       13.288        6.546        6.631      176.567       42.854       43.976        0.016        0.013        7.813        5.115        0.429      346.632       25.020      862.796
07/07/2014  02:15:00       41.993       29.275       14.047       24.886       20.160       16.505      619.307      406.421      272.417        0.206        0.065       51.190       13.299        0.067      346.568       24.908      862.803
07/07/2014  02:16:00       55.239       33.845       15.642       18.820       13.069       10.734      354.179      170.794      115.219        0.254        0.032       64.784        6.682        0.011      346.636       25.025      862.802
07/07/2014  02:17:00       40.137        7.090        8.621       44.595       32.255       15.434     1988.700     1040.414      238.223        0.250        0.163       40.759       19.680        0.233      346.548       24.875      862.785
07/07/2014  02:18:00      -28.000      -44.007       -3.640       12.724       20.993       10.470      161.901      440.701      109.625        0.172        0.036       52.159        9.395        0.032      346.054       24.025      862.763
07/07/2014  02:19:00      -61.456      -42.463      -10.541       13.423       12.606        9.678      180.165      158.920       93.665        0.306        0.022       74.699        4.151        0.003      345.764       23.529      862.753
07/07/2014  02:20:00      -68.366      -38.723       -9.662        6.896        8.330        6.249       47.560       69.395       39.051        0.321        0.008       78.571        4.547        0.003      345.900       23.761      862.742
07/07/2014  02:21:00      -47.429      -27.339        0.160       21.095       15.999        8.616      445.011      255.982       74.228        0.189        0.039       54.744        7.520        0.019      346.184       24.250      862.736
07/07/2014  02:22:00       -7.672      -11.535       -1.938       12.515       12.822        6.669      156.633      164.403       44.476        0.028        0.018       13.853        6.931        0.250      346.374       24.576      862.731
07/07/2014  02:23:00      -23.904        6.030        7.291       10.670        7.392        7.307      113.844       54.637       53.399        0.044        0.011       24.653        6.489        0.069      345.921       23.796      862.736
07/07/2014  02:24:00       -5.613       -4.576       -1.865        6.477        7.172        4.125       41.956       51.435       17.016        0.008        0.006        7.242        1.998        0.076      345.883       23.731      862.720
07/07/2014  02:25:00       -1.066      -11.196       -2.211        6.166        5.756        3.900       38.016       33.128       15.212        0.011        0.004       11.247        1.136        0.010      346.155       24.199      862.708
07/07/2014  02:26:00        3.676        6.006       -0.158        9.321        8.302        4.532       86.878       68.921       20.538        0.011        0.009        7.041        3.280        0.217      346.422       24.658      862.704
07/07/2014  02:27:00       10.922       24.399       10.318       10.220       19.071        9.589      104.446      363.686       91.943        0.069        0.028       26.732        9.728        0.132      346.131       24.158      862.697
07/07/2014  02:28:00      -43.787       32.729      -13.849       19.652       22.581        7.166      386.203      509.914       51.346        0.206        0.047       54.667        9.547        0.030      345.836       23.649      862.696
07/07/2014  02:29:00      -69.724      -10.334      -13.070       10.879       16.178        9.528      118.360      261.736       90.790        0.280        0.024       70.485        6.848        0.009      345.587       23.224      862.683
07/07/2014  02:30:00      -70.080      -25.594      -10.497       17.283       12.665        7.780      298.687      160.408       60.526        0.310        0.026       74.608        2.396        0.001      345.325       22.774      862.670
07/07/2014  02:31:00      -91.233       -5.420      -18.263       15.484       11.524       12.949      239.742      132.812      167.666        0.461        0.027       91.394        7.674        0.007      345.397       22.898      862.666
07/07/2014  02:32:00      -82.587       -2.294      -13.655       17.277        8.938        7.443      298.511       79.893       55.391        0.372        0.022       82.619        5.049        0.004      345.490       23.058      862.667
07/07/2014  02:33:00      -52.024      -14.649      -15.502        8.598       10.555        8.271       73.925      111.404       68.417        0.171        0.013       54.047        4.134        0.006      345.429       22.952      862.679
07/07/2014  02:34:00      -79.949      -18.960      -12.718       17.529       12.199        7.851      307.258      148.826       61.645        0.372        0.026       82.166        4.641        0.003      345.298       22.728      862.688
07/07/2014  02:35:00      -99.498      -35.430      -12.687       11.889       19.223       10.848      141.357      369.535      117.682        0.597        0.031      105.618        7.888        0.006      345.170       22.509      862.696
07/07/2014  02:36:00     -107.573      -49.874      -14.602       13.144       12.153       10.242      172.774      147.685      104.906        0.735        0.021      118.572        8.684        0.005      345.185       22.535      862.699
07/07/2014  02:37:00     -110.914      -33.985      -15.289        9.607       12.094        7.637       92.296      146.277       58.324        0.699        0.015      116.004        3.441        0.001      345.262       22.666      862.697
07/07/2014  02:38:00     -105.224      -22.067      -16.424       16.173       11.227       10.249      261.550      126.043      105.035        0.616        0.025      107.513        8.838        0.007      345.378       22.866      862.689
07/07/2014  02:39:00      -84.334      -36.500      -15.875       15.195        8.008        9.226      230.889       64.124       85.125        0.454        0.019       91.894        6.205        0.005      345.410       22.920      862.678
07/07/2014  02:40:00      -65.210      -36.413       -8.590        9.003        7.261        5.382       81.058       52.718       28.970        0.291        0.008       74.687        4.195        0.003      345.628       23.294      862.673
07/07/2014  02:41:00      -76.711       -6.001      -11.940        4.262       10.289        5.605       18.165      105.858       31.419        0.311        0.008       76.945        1.775        0.001      345.569       23.193      862.665
07/07/2014  02:42:00      -75.398       -0.260      -12.656        4.228        7.064        4.644       17.873       49.904       21.567        0.297        0.004       75.399        3.345        0.002      345.557       23.172      862.663
07/07/2014  02:43:00      -80.377      -25.787      -12.106        8.151       16.876        6.246       66.436      284.790       39.011        0.383        0.020       84.412        3.681        0.002      345.474       23.029      862.672
07/07/2014  02:44:00      -70.142      -42.736       -9.412       14.468       17.317       10.812      209.316      299.882      116.889        0.373        0.031       82.135        4.742        0.003      345.409       22.919      862.673
07/07/2014  02:45:00      -36.746      -20.815       -1.744       15.133       12.098        8.178      228.997      146.368       66.886        0.111        0.022       42.232        5.616        0.018      345.315       22.758      862.668
07/07/2014  02:46:00      -23.513      -15.880        0.683       17.260        8.728        7.906      297.897       76.177       62.511        0.062        0.022       28.373        5.397        0.036      345.331       22.783      862.663
07/07/2014  02:47:00      -52.250      -15.774       -7.393       12.570       15.099        9.099      158.009      227.991       82.798        0.175        0.023       54.579        8.057        0.022      345.708       23.432      862.648
07/07/2014  02:48:00      -69.349       -4.457       -3.115        8.499        8.913        5.987       72.238       79.437       35.839        0.251        0.009       69.492        5.615        0.007      345.359       22.834      862.638
07/07/2014  02:49:00      -56.786      -16.749       -5.981       11.419       13.222        7.774      130.397      174.818       60.442        0.195        0.018       59.205        5.898        0.010      345.278       22.695      862.635
07/07/2014  02:50:00      -58.313       -5.655       -4.550       11.095        9.724        6.549      123.096       94.548       42.896        0.186        0.013       58.587        5.206        0.008      345.359       22.831      862.619
07/07/2014  02:51:00      -66.502        4.949       -8.436        7.294        7.078        5.117       53.210       50.099       26.184        0.232        0.006       66.686        2.975        0.002      345.452       22.992      862.604
07/07/2014  02:52:00      -76.125        3.399       -7.360        5.291        6.288        4.126       27.991       39.542       17.024        0.297        0.004       76.201        1.563        0.000      345.592       23.231      862.603
07/07/2014  02:53:00      -72.126      -12.214      -11.377        9.216        8.196        5.205       84.932       67.174       27.093        0.283        0.009       73.153        3.884        0.003      345.525       23.117      862.593
07/07/2014  02:54:00      -58.966      -22.603       -7.008        8.031       11.016        5.199       64.501      121.341       27.029        0.212        0.011       63.150        3.393        0.003      345.420       22.937      862.575
07/07/2014  02:55:00      -54.745      -34.766       -9.306        8.377        6.548        6.598       70.176       42.880       43.533        0.222        0.008       64.852        3.731        0.003      345.080       22.355      862.587
07/07/2014  02:56:00      -88.603      -33.501      -10.590       15.983       10.524        8.256      255.466      110.762       68.158        0.476        0.022       94.724        3.105        0.001      344.970       22.167      862.590
07/07/2014  02:57:00     -109.021      -31.750       -9.760       16.182       14.523       10.349      261.853      210.908      107.112        0.678        0.029      113.550        8.745        0.006      344.929       22.096      862.578
07/07/2014  02:58:00      -86.831      -32.948       -3.056       16.486       15.006        9.452      271.790      225.168       89.345        0.461        0.029       92.872        8.219        0.008      345.057       22.317      862.574
07/07/2014  02:59:00     -105.680      -31.936       -8.178       19.725       12.670       11.211      389.059      160.536      125.680        0.647        0.034      110.400       11.005        0.010      345.046       22.298      862.571
07/07/2014  03:00:00      -97.263      -12.583       -9.325       24.723       17.925       11.441      611.251      321.306      130.903        0.538        0.053       98.073       10.964        0.012      344.933       22.104      862.572
07/07/2014  03:01:00      -66.469       -2.415       -7.216       25.228       21.136       14.006      636.435      446.717      196.158        0.288        0.064       66.513       14.702        0.049      344.913       22.069      862.569
07/07/2014  03:02:00      -76.680      -15.249       -7.821       11.808       13.544        7.935      139.422      183.453       62.963        0.328        0.019       78.182        6.603        0.007      345.279       22.695      862.574
07/07/2014  03:03:00      -66.567      -41.788       -7.316       20.018       17.369        9.752      400.707      301.671       95.101        0.351        0.040       78.596        5.066        0.004      345.007       22.231      862.562
07/07/2014  03:04:00      -41.342      -28.232       -1.506       45.061       24.212       20.258     2030.455      586.236      410.403        0.277        0.151       50.062       19.819        0.157      344.882       22.016      862.562
07/07/2014  03:05:00     -128.781      -14.291      -18.129       17.204       23.989       14.246      295.979      575.469      202.951        0.910        0.054      129.571       11.558        0.008      344.822       21.912      862.569
07/07/2014  03:06:00      -99.783       -9.567       -6.698       32.104       20.852       16.294     1030.683      434.794      265.483        0.591        0.087      100.240       15.374        0.024      344.843       21.950      862.570
07/07/2014  03:07:00      -92.445      -10.622       -9.299       27.903       17.404       12.073      778.576      302.885      145.749        0.499        0.061       93.053       10.271        0.012      344.927       22.094      862.556
07/07/2014  03:08:00      -80.877      -16.168       -4.424       30.294       16.790       13.482      917.707      281.892      181.774        0.410        0.069       82.477       15.902        0.037      344.940       22.115      862.542
07/07/2014  03:09:00      -89.301      -14.266      -11.498       12.878       10.580        9.592      165.847      111.938       92.009        0.434        0.018       90.433        7.154        0.006      345.086       22.366      862.536
07/07/2014  03:10:00      -79.156      -10.642       -7.503        6.181        9.772        6.445       38.199       95.496       41.543        0.331        0.009       79.868        3.764        0.002      345.068       22.336      862.520
07/07/2014  03:11:00      -90.894       21.592       -8.651       12.138       12.597        8.503      147.322      158.680       72.297        0.459        0.019       93.423        1.978        0.000      344.982       22.188      862.519
07/07/2014  03:12:00      -73.140       20.259      -13.198       15.600        7.935        6.202      243.373       62.959       38.469        0.314        0.017       75.894        1.764        0.001      345.198       22.557      862.521
07/07/2014  03:13:00      -34.221      -15.304       -3.736       16.156       15.550        5.554      261.032      241.801       30.844        0.098        0.027       37.487        4.579        0.015      345.471       23.025      862.513
07/07/2014  03:14:00       -8.851      -45.032       -0.193       12.707       18.967       13.657      161.467      359.766      186.524        0.141        0.035       45.894       10.022        0.048      345.936       23.824      862.516
07/07/2014  03:15:00       -9.179      -34.579       -7.900       11.932       10.292        9.018      142.362      105.930       81.324        0.084        0.016       35.777        5.894        0.027      345.654       23.340      862.517
07/07/2014  03:16:00      -76.667      -17.487       -5.970       27.953       12.319       11.804      781.384      151.756      139.345        0.365        0.054       78.636       14.693        0.035      345.019       22.250      862.526
07/07/2014  03:17:00     -134.730      -10.287      -16.986       38.181       22.574       15.681     1457.771      509.602      245.907        1.038        0.111      135.122       13.943        0.011      344.784       21.848      862.553
07/07/2014  03:18:00      -92.462       -4.209       -3.586       32.830       19.842       21.062     1077.789      393.706      443.609        0.525        0.096       92.558       16.594        0.032      344.663       21.642      862.551
07/07/2014  03:19:00      -36.497      -18.953        2.675       29.591       20.392       13.192      875.654      415.817      174.035        0.158        0.073       41.125        6.947        0.029      344.662       21.640      862.539
07/07/2014  03:20:00      -24.077      -11.208        2.478       26.111       13.274        9.241      681.758      176.202       85.404        0.083        0.047       26.558       12.606        0.225      344.800       21.875      862.544
07/07/2014  03:21:00      -68.147       -0.916       -8.413       23.950       16.510       10.469      573.583      272.595      109.609        0.284        0.048       68.153        8.265        0.015      344.816       21.904      862.562
07/07/2014  03:22:00     -118.149       17.027      -11.461       17.701        9.748        8.652      313.340       95.020       74.854        0.743        0.024      119.370        7.394        0.004      344.764       21.815      862.568
07/07/2014  03:23:00      -96.398       19.577      -10.966       16.778       14.120        8.601      281.494      199.378       73.973        0.518        0.028       98.366        8.125        0.007      344.896       22.041      862.570
07/07/2014  03:24:00      -86.749        7.767       -7.841       24.614       24.946       15.017      605.863      622.313      225.506        0.455        0.073       87.096       16.626        0.036      345.094       22.378      862.572
07/07/2014  03:25:00      -22.099      -36.681        6.484       32.767       24.779       22.817     1073.648      613.975      520.615        0.204        0.110       42.824       24.446        0.326      344.904       22.054      862.575
07/07/2014  03:26:00      -34.640      -17.717        1.839       27.746       12.402       12.903      769.866      153.800      166.499        0.130        0.055       38.908        9.408        0.058      344.851       21.963      862.566
07/07/2014  03:27:00      -78.218      -36.809      -10.883        9.526       11.800        8.080       90.746      139.243       65.281        0.394        0.015       86.446        4.030        0.002      344.670       21.655      862.567
07/07/2014  03:28:00      -72.694      -34.846       -8.385       17.984       16.192       11.095      323.436      262.168      123.101        0.364        0.035       80.615        9.927        0.015      344.663       21.641      862.567
07/07/2014  03:29:00      -67.253      -24.006      -10.484       14.773       14.207        9.881      218.243      201.838       97.640        0.286        0.026       71.409        5.840        0.007      344.678       21.669      862.572
07/07/2014  03:30:00      -23.874        5.164        1.943       11.064        9.676        7.450      122.414       93.618       55.498        0.044        0.014       24.426        5.394        0.049      344.651       21.622      862.572
07/07/2014  03:31:00      -47.281       -4.904       -2.467       13.156       15.297        6.697      173.074      234.008       44.847        0.136        0.023       47.535        3.015        0.004      344.789       21.857      862.571
07/07/2014  03:32:00      -62.646      -21.661       -2.423       20.609       12.030        6.645      424.719      144.713       44.162        0.251        0.031       66.285        6.951        0.011      344.921       22.082      862.575
07/07/2014  03:33:00      -46.005      -25.346        4.326       17.127       17.248       13.051      293.333      297.488      170.326        0.177        0.038       52.525       11.191        0.045      344.867       21.991      862.583
07/07/2014  03:34:00      -71.888      -19.019       -0.660       21.959       13.519       12.484      482.203      182.753      155.862        0.318        0.041       74.361       11.757        0.025      344.883       22.016      862.568
07/07/2014  03:35:00      -87.338      -20.248       -4.994       22.974       15.436       13.126      527.802      238.276      172.293        0.450        0.047       89.655       10.034        0.013      344.887       22.025      862.557
07/07/2014  03:36:00     -118.253      -26.276       -4.384       27.298       18.746       14.933      745.157      351.423      222.982        0.801        0.066      121.137       13.789        0.013      344.910       22.065      862.561
07/07/2014  03:37:00      -82.448      -35.215        6.363       39.391       29.353       14.807     1551.632      861.586      219.257        0.535        0.132       89.654       19.079        0.045      344.917       22.076      862.554
07/07/2014  03:38:00      -52.982      -35.990        3.217       37.238       27.324       15.055     1386.690      746.606      226.659        0.324        0.118       64.050       16.129        0.063      344.946       22.125      862.544
07/07/2014  03:39:00      -33.628      -13.246        5.986       20.758       19.939       14.590      430.908      397.549      212.860        0.119        0.052       36.143       10.569        0.086      344.976       22.176      862.534
07/07/2014  03:40:00      -55.290       16.848        0.465        9.272       11.179        8.799       85.962      124.975       77.416        0.181        0.014       57.800        5.682        0.010      344.959       22.149      862.538
07/07/2014  03:41:00      -28.698       -5.845       -9.330       18.779       18.827        7.198      352.649      354.467       51.808        0.085        0.038       29.287       11.576        0.156      345.138       22.452      862.543
07/07/2014  03:42:00        3.696      -41.120        0.860       14.119        7.943       11.306      199.344       63.084      127.830        0.105        0.020       41.286        5.586        0.018      345.535       23.133      862.533
07/07/2014  03:43:00       11.585       -8.639        5.216       19.962       32.830       10.823      398.470     1077.839      117.129        0.091        0.080       14.452        8.745        0.366      345.232       22.614      862.521
07/07/2014  03:44:00       -9.335       -7.642        0.698        9.407        7.759        6.945       88.495       60.198       48.234        0.017        0.010       12.064        5.491        0.207      344.955       22.139      862.522
07/07/2014  03:45:00      -33.211      -18.334       -3.464       13.940       11.078        5.354      194.331      122.717       28.664        0.090        0.017       37.936        4.315        0.013      345.063       22.327      862.531
07/07/2014  03:46:00      -51.470       -9.740       -7.977       13.728        6.677        7.487      188.452       44.589       56.048        0.155        0.014       52.383        8.495        0.026      344.996       22.211      862.567
07/07/2014  03:47:00      -67.180       -9.924      -11.021        5.685       12.665        5.630       32.324      160.410       31.693        0.248        0.011       67.909        4.174        0.004      344.883       22.017      862.586
07/07/2014  03:48:00      -59.060       -7.005       -5.863       12.574        8.556        6.534      158.097       73.211       42.692        0.192        0.014       59.474        6.488        0.012      344.887       22.025      862.606
07/07/2014  03:49:00      -44.385       -4.838       -2.882       16.256        9.467        9.993      264.268       89.630       99.859        0.123        0.023       44.648       10.482        0.055      344.832       21.931      862.608
07/07/2014  03:50:00      -37.180      -12.213       -0.529        6.191        9.930        6.292       38.325       98.601       39.588        0.085        0.009       39.134        6.210        0.025      344.859       21.976      862.610
07/07/2014  03:51:00      -46.020       15.486       -4.525        7.605       11.649        5.424       57.841      135.690       29.421        0.130        0.011       48.556        2.967        0.004      345.000       22.219      862.613
07/07/2014  03:52:00      -50.854       21.975      -12.655        8.408       12.639        4.220       70.692      159.753       17.807        0.174        0.012       55.399        2.837        0.003      345.124       22.433      862.620
07/07/2014  03:53:00      -31.824      -14.537       -7.861        7.314       12.774        4.316       53.500      163.162       18.627        0.076        0.012       34.987        3.224        0.008      345.132       22.445      862.607
07/07/2014  03:54:00      -23.831      -36.018      -11.722       11.343        9.250        7.365      128.673       85.556       54.244        0.114        0.013       43.188        3.763        0.008      345.183       22.531      862.599
07/07/2014  03:55:00      -28.455      -29.074       -1.543       21.592        8.902       14.837      466.211       79.243      220.133        0.121        0.038       40.681       13.410        0.109      344.981       22.185      862.602
07/07/2014  03:56:00      -76.282       -7.839       -7.891       14.800       11.330        9.362      219.028      128.367       87.644        0.319        0.022       76.683        5.321        0.005      344.816       21.902      862.617
07/07/2014  03:57:00      -94.306      -36.483       -5.166       28.891       27.779       15.731      834.710      771.664      247.469        0.605        0.093      101.117        8.352        0.007      344.779       21.841      862.643
07/07/2014  03:58:00      -95.357      -40.145       -8.224       20.510       23.544       14.789      420.669      554.318      218.719        0.598        0.060      103.463       10.672        0.011      344.675       21.662      862.672
07/07/2014  03:59:00      -62.724      -24.510        0.851       14.651       20.117        8.265      214.644      404.687       68.314        0.261        0.034       67.342        7.401        0.012      344.736       21.765      862.686
07/07/2014  04:00:00      -65.133      -13.393      -12.511        6.482        7.030        7.928       42.019       49.418       62.850        0.237        0.008       66.496        3.027        0.002      344.844       21.952      862.693
07/07/2014  04:01:00      -60.637      -13.755       -8.368        7.926        8.736        7.001       62.824       76.322       49.013        0.206        0.009       62.177        4.196        0.005      344.778       21.838      862.701
07/07/2014  04:02:00      -55.022       -7.112       -9.308        8.095        9.848        7.057       65.527       96.987       49.807        0.169        0.011       55.479        2.617        0.002      344.797       21.871      862.704
07/07/2014  04:03:00      -33.353       -1.974       -3.302        9.746        5.324        5.591       94.982       28.346       31.257        0.064        0.008       33.411        3.832        0.013      344.937       22.112      862.713
07/07/2014  04:04:00      -10.817       -4.425       -1.506        7.733        6.803        6.808       59.799       46.285       46.347        0.015        0.008       11.687        5.954        0.260      345.100       22.390      862.730
07/07/2014  04:05:00       -1.721       -1.516       -0.301        8.710        8.992        5.100       75.866       80.865       26.012        0.009        0.009        2.293        3.910        2.906      345.069       22.340      862.745
07/07/2014  04:06:00        0.416       -7.412        1.840        3.698       10.166        4.011       13.674      103.341       16.085        0.010        0.007        7.424        3.759        0.256      344.996       22.211      862.751
07/07/2014  04:07:00      -20.166      -44.093       -8.351       27.636       21.532       10.977      763.729      463.636      120.500        0.188        0.067       48.486        6.715        0.019      345.040       22.286      862.741
07/07/2014  04:08:00      -70.165       -8.436       -4.344       19.132       22.971       10.034      366.047      527.685      100.689        0.300        0.050       70.670       10.990        0.024      344.598       21.530      862.737
07/07/2014  04:09:00      -94.046      -32.944       -2.265       21.761       26.209       12.617      473.545      686.921      159.177        0.563        0.066       99.649        8.642        0.008      344.630       21.584      862.750
07/07/2014  04:10:00     -130.577      -37.289      -10.424       25.841       23.317       19.664      667.746      543.687      386.690        1.007        0.080      135.797       18.482        0.019      344.538       21.429      862.737
07/07/2014  04:11:00      -76.318      -45.457       -2.847       42.729       16.436       15.167     1825.741      270.144      230.026        0.511        0.116       88.830       19.838        0.050      344.538       21.428      862.728
07/07/2014  04:12:00      -26.409      -44.169       -2.203       25.339       12.543       10.844      642.089      157.317      117.586        0.178        0.046       51.462        8.604        0.028      344.754       21.798      862.727
07/07/2014  04:13:00      -84.193      -54.448      -15.040       25.411       21.587       12.622      645.696      466.011      159.303        0.577        0.064      100.265        6.294        0.004      344.966       22.160      862.731
07/07/2014  04:14:00     -139.735      -26.033      -13.326       22.873       22.633       15.279      523.166      512.268      233.450        1.082        0.063      142.140       12.806        0.008      344.533       21.418      862.741
07/07/2014  04:15:00     -125.025      -15.770       -5.718       35.927       25.657       18.430     1290.736      658.279      339.672        0.910        0.114      126.016       18.365        0.021      344.390       21.174      862.740
07/07/2014  04:16:00      -62.639      -36.169        7.326       34.666       24.400       18.310     1201.717      595.370      335.265        0.371        0.107       72.332       17.631        0.059      344.371       21.143      862.738
07/07/2014  04:17:00      -93.405      -54.046       -2.979       28.742       20.112       12.956      826.075      404.478      167.855        0.653        0.070      107.914       10.815        0.010      344.573       21.487      862.745
07/07/2014  04:18:00     -102.836      -43.158       -5.669       24.033       19.427       11.911      577.609      377.393      141.875        0.678        0.055      111.525       10.169        0.008      344.612       21.555      862.743
07/07/2014  04:19:00      -16.295      -19.838        5.358       29.003       13.383       11.153      841.179      179.110      124.397        0.092        0.057       25.673       11.667        0.207      344.553       21.454      862.735
07/07/2014  04:20:00      -76.747      -22.227       -4.497       24.019       16.823       10.623      576.910      283.026      112.850        0.369        0.049       79.901        9.851        0.015      344.641       21.605      862.735
07/07/2014  04:21:00     -128.347       -2.388      -10.478       57.981       25.569       21.483     3361.793      653.749      461.520        1.053        0.224      128.370       27.942        0.047      344.586       21.509      862.746
07/07/2014  04:22:00      -99.346       22.509      -14.409       73.162       43.738       23.747     5352.739     1913.028      563.942        0.921        0.391      101.864       26.092        0.066      344.467       21.307      862.776
07/07/2014  04:23:00       30.645      -41.061        2.921       40.771       57.123       32.363     1662.283     3263.068     1047.345        0.430        0.299       51.236       29.980        0.342      344.648       21.616      862.771
07/07/2014  04:24:00      -92.610      -27.609      -13.964       48.256       30.329       18.149     2328.659      919.823      329.371        0.656        0.179       96.638       11.359        0.014      344.763       21.811      862.810
07/07/2014  04:25:00     -134.256       -7.011       -7.186       60.691       36.276       28.002     3683.431     1315.963      784.120        1.195        0.289      134.439       30.733        0.052      344.451       21.280      862.851
07/07/2014  04:26:00     -111.463      -24.684       -3.722       30.908       22.207       14.984      955.306      493.144      224.507        0.736        0.084      114.163       14.092        0.015      344.544       21.438      862.856
07/07/2014  04:27:00      -79.064      -31.977        2.784       27.977       22.702       17.928      782.688      515.403      321.396        0.445        0.081       85.285       18.780        0.048      344.598       21.531      862.868
07/07/2014  04:28:00     -128.190      -31.217       -5.142       21.905       21.852       14.956      479.835      477.529      223.690        0.931        0.059      131.937       13.016        0.010      344.643       21.608      862.869
07/07/2014  04:29:00     -104.284      -29.700        6.218       56.032       23.633       22.852     3139.640      558.495      522.218        0.801        0.211      108.431       25.093        0.054      344.592       21.520      862.857
07/07/2014  04:30:00     -117.270      -15.651        1.589       36.781       26.026       19.724     1352.865      677.356      389.040        0.821        0.121      118.310       13.838        0.014      344.662       21.639      862.853
07/07/2014  04:31:00     -128.010      -30.651       -1.426       31.535       31.999       18.636      994.438     1023.968      347.291        0.985        0.118      131.628       14.262        0.012      344.644       21.610      862.861
07/07/2014  04:32:00      -90.673      -37.920        0.253       55.331       36.618       26.463     3061.551     1340.849      700.312        0.738        0.255       98.282       30.243        0.095      344.631       21.587      862.855
07/07/2014  04:33:00      -77.267      -69.817        7.415       46.462       34.406       22.004     2158.720     1183.743      484.192        0.736        0.191      104.137       23.332        0.050      344.754       21.798      862.834
07/07/2014  04:34:00     -117.504      -67.066        6.091       36.980       26.798       23.515     1367.518      718.113      552.972        1.049        0.132      135.296       19.770        0.021      344.745       21.783      862.815
07/07/2014  04:35:00     -114.543      -67.201       -4.411       35.649       27.679       18.983     1270.872      766.128      360.357        1.003        0.120      132.801       10.701        0.006      344.661       21.638      862.803
07/07/2014  04:36:00      -88.048      -62.210        0.656       45.103       27.611       16.443     2034.321      762.393      270.359        0.734        0.153      107.808       15.439        0.021      344.577       21.496      862.803
07/07/2014  04:37:00     -117.668      -92.860        0.536       52.396       39.601       25.419     2745.326     1568.212      646.126        1.371        0.248      149.896       13.032        0.008      344.601       21.536      862.804
07/07/2014  04:38:00     -119.248     -128.702       -6.030       49.509       38.932       32.223     2451.098     1515.681     1038.317        1.791        0.250      175.455       31.632        0.033      344.690       21.687      862.800
07/07/2014  04:39:00     -116.293      -96.591      -10.878       37.763       36.325       20.055     1426.046     1319.494      402.199        1.306        0.157      151.175       19.198        0.016      344.694       21.696      862.802
07/07/2014  04:40:00      -85.722      -84.741        4.549       54.059       44.568       24.552     2922.360     1986.343      602.805        1.003        0.276      120.537       29.340        0.059      344.604       21.540      862.797
07/07/2014  04:41:00      -76.384      -78.940        1.870       60.261       43.427       26.035     3631.353     1885.930      677.797        0.913        0.310      109.845       31.802        0.084      344.536       21.425      862.795
07/07/2014  04:42:00     -146.693     -125.213       -1.238       54.624       34.678       25.313     2983.747     1202.530      640.743        2.101        0.241      192.866       23.280        0.015      344.558       21.460      862.805
07/07/2014  04:43:00     -167.771     -118.425       -2.967       64.562       31.835       32.955     4168.248     1013.475     1086.011        2.422        0.313      205.357       35.839        0.030      344.555       21.454      862.812
07/07/2014  04:44:00     -132.065      -65.686       -4.349       44.653       37.705       22.005     1993.889     1421.656      484.227        1.284        0.195      147.499       21.359        0.021      344.535       21.422      862.810
07/07/2014  04:45:00      -98.065      -78.312       -0.282       27.886       41.860       23.453      777.620     1752.300      550.066        0.941        0.154      125.497       19.468        0.024      344.506       21.376      862.814
07/07/2014  04:46:00      -85.596      -84.981       -0.963       40.605       51.834       30.619     1648.769     2686.756      937.511        0.991        0.264      120.617       25.949        0.046      344.475       21.320      862.826
07/07/2014  04:47:00      -77.587      -34.692       -5.776       42.331       28.848       23.868     1791.939      832.181      569.666        0.522        0.160       84.989       21.367        0.063      344.464       21.302      862.836
07/07/2014  04:48:00     -117.268      -74.364       -9.192       40.684       33.886       23.230     1655.209     1148.245      539.645        1.135        0.167      138.859       23.758        0.029      344.519       21.398      862.837
07/07/2014  04:49:00      -62.857      -26.487        8.305       37.533       37.949       21.772     1408.733     1440.099      474.033        0.402        0.166       68.210       21.866        0.103      344.376       21.149      862.837
07/07/2014  04:50:00     -103.079      -49.379        0.111       40.729       29.191       19.670     1658.887      852.140      386.927        0.798        0.145      114.296       18.601        0.026      344.454       21.283      862.838
07/07/2014  04:51:00     -155.940      -74.181       -9.026       37.214       26.926       21.291     1384.919      725.027      453.288        1.623        0.128      172.686       16.513        0.009      344.508       21.375      862.845
07/07/2014  04:52:00     -130.702      -55.236        0.543       41.657       29.337       27.111     1735.313      860.687      734.990        1.173        0.167      141.894       23.682        0.028      344.451       21.279      862.849
07/07/2014  04:53:00      -63.068      -55.010        4.282       50.198       35.301       24.386     2519.816     1246.151      594.672        0.569        0.218       83.688       25.232        0.091      344.441       21.263      862.859
07/07/2014  04:54:00      -49.690      -46.094       14.020       46.181       35.111       23.358     2132.666     1232.774      545.606        0.435        0.196       67.777       27.241        0.162      344.478       21.326      862.857
07/07/2014  04:55:00     -120.123      -62.893       -4.266       53.088       31.621       26.850     2818.303      999.919      720.918        1.147        0.227      135.592       20.208        0.022      344.529       21.413      862.844
07/07/2014  04:56:00      -76.476      -63.830        0.099       38.908       27.063       17.969     1513.828      732.393      322.898        0.625        0.128       99.614       15.285        0.024      344.421       21.228      862.842
07/07/2014  04:57:00      -78.555      -79.406       -1.261       33.188       31.412       21.003     1101.455      986.724      441.126        0.750        0.126      111.698       19.710        0.031      344.414       21.215      862.842
07/07/2014  04:58:00      -94.530      -59.447        2.547       34.131       28.082       22.385     1164.917      788.624      501.073        0.747        0.123      111.669       20.105        0.032      344.380       21.157      862.839
07/07/2014  04:59:00      -63.055      -56.365        4.265       48.471       36.126       24.519     2349.483     1305.066      601.165        0.571        0.213       84.575       24.647        0.085      344.399       21.189      862.841
07/07/2014  05:00:00      -86.907      -40.568       -5.933       19.525       27.556       16.175      381.227      759.354      261.620        0.532        0.070       95.909       12.738        0.018      344.472       21.314      862.849
07/07/2014  05:01:00      -84.961      -34.218       -0.164       26.148       21.549       17.556      683.701      464.371      308.220        0.492        0.073       91.593       16.077        0.031      344.459       21.292      862.849
07/07/2014  05:02:00      -76.091      -15.918        0.176       29.668       22.241       16.613      880.165      494.681      275.981        0.385        0.083       77.738       14.809        0.036      344.330       21.072      862.848
07/07/2014  05:03:00     -100.085      -48.882        3.531       36.388       23.853       19.726     1324.057      568.946      389.129        0.735        0.114      111.384       19.732        0.031      344.270       20.971      862.859
07/07/2014  05:04:00     -106.248      -54.438       -6.180       32.228       21.272       16.529     1038.667      452.489      273.209        0.803        0.088      119.382       16.979        0.020      344.284       20.993      862.845
07/07/2014  05:05:00      -66.155      -44.103        3.709       32.856       24.774       16.954     1079.506      613.766      287.447        0.416        0.099       79.509        9.021        0.013      344.202       20.853      862.833
07/07/2014  05:06:00      -82.967      -34.134        0.509       24.174       28.229       14.219      584.365      796.902      202.184        0.482        0.079       89.714       14.579        0.026      344.179       20.814      862.835
07/07/2014  05:07:00     -106.080       -0.398       -5.450       23.923       23.074       17.338      572.292      532.414      300.623        0.634        0.070      106.081        9.919        0.009      343.920       20.372      862.831
07/07/2014  05:08:00     -121.316        9.603      -14.904       31.967       20.207       14.425     1021.889      408.321      208.069        0.833        0.082      121.696       12.177        0.010      343.773       20.120      862.814
07/07/2014  05:09:00     -134.010       -2.204      -10.670       35.584       40.480       24.165     1266.239     1638.663      583.932        1.078        0.174      134.028       19.486        0.021      343.737       20.057      862.807
07/07/2014  05:10:00     -104.568      -37.129        1.714       49.559       55.422       25.387     2456.126     3071.633      644.502        0.924        0.309      110.964       22.365        0.041      343.694       19.985      862.800
07/07/2014  05:11:00      -48.333      -62.071        5.858       46.680       33.225       21.014     2179.048     1103.885      441.576        0.497        0.186       78.670       23.316        0.088      344.038       20.574      862.764
07/07/2014  05:12:00      -93.174      -61.916       -1.677       30.981       25.262       16.969      959.832      638.149      287.943        0.720        0.094      111.871       17.889        0.026      344.310       21.039      862.746
07/07/2014  05:13:00     -128.325      -23.924       -8.298       37.377       28.250       19.246     1397.050      798.072      370.420        0.984        0.128      130.536       22.274        0.029      344.069       20.628      862.755
07/07/2014  05:14:00      -96.001      -19.133        1.683       47.573       37.935       24.516     2263.174     1439.052      601.025        0.694        0.215       97.889       22.925        0.055      343.984       20.482      862.758
07/07/2014  05:15:00      -94.286      -25.632        0.065       35.481       27.861       17.401     1258.895      776.208      302.794        0.594        0.117       97.708       15.481        0.025      344.089       20.661      862.748
07/07/2014  05:16:00      -99.758      -25.771       -1.225       28.278       24.799       12.176      799.673      614.989      148.258        0.609        0.078      103.033       14.149        0.019      344.107       20.693      862.752
07/07/2014  05:17:00     -120.629      -20.571        0.595       50.622       30.249       20.158     2562.590      915.007      406.330        0.943        0.194      122.370       24.927        0.041      344.038       20.574      862.753
07/07/2014  05:18:00     -139.774      -58.795        1.349       43.588       32.830       22.074     1899.894     1077.804      487.265        1.323        0.173      151.636       22.142        0.021      344.115       20.705      862.753
07/07/2014  05:19:00     -113.354      -68.475       -2.088       45.166       33.952       23.271     2039.941     1152.765      541.540        1.064        0.187      132.431       23.304        0.031      344.035       20.568      862.751
07/07/2014  05:20:00      -80.927      -49.585        3.608       45.792       33.353       26.269     2096.950     1112.416      690.081        0.646        0.195       94.910       31.297        0.109      343.970       20.458      862.766
07/07/2014  05:21:00     -128.339      -43.796       -1.316       51.411       41.096       24.409     2643.042     1688.883      595.779        1.166        0.246      135.606       21.605        0.025      343.991       20.491      862.774
07/07/2014  05:22:00     -126.728      -49.765        1.881       30.370       31.222       17.840      922.339      974.802      318.279        1.038        0.111      136.149       14.384        0.011      344.053       20.598      862.763
07/07/2014  05:23:00      -83.180      -29.797       -4.847       39.970       35.711       20.185     1597.636     1275.240      407.451        0.555        0.164       88.356       15.173        0.029      344.067       20.621      862.757
07/07/2014  05:24:00     -128.069       -0.545       -5.311       29.949       24.065       17.833      896.960      579.140      317.999        0.911        0.090      128.071       15.631        0.015      344.069       20.628      862.762
07/07/2014  05:25:00      -80.343      -76.754       -0.702       40.406       38.641       28.241     1632.607     1493.158      797.573        0.813        0.196      111.113       23.041        0.043      344.084       20.652      862.762
07/07/2014  05:26:00     -108.602      -39.409        2.458       43.927       44.574       27.926     1929.608     1986.818      779.842        0.902        0.235      115.531       22.875        0.039      344.045       20.584      862.762
07/07/2014  05:27:00      -55.701      -41.656        7.736       47.090       39.158       23.359     2217.504     1533.377      545.621        0.460        0.215       69.555       26.032        0.140      344.031       20.561      862.777
07/07/2014  05:28:00      -57.685     -102.931        2.281       33.882       52.909       25.503     1147.978     2799.392      650.394        0.926        0.230      117.993       30.174        0.065      344.103       20.682      862.777
07/07/2014  05:29:00     -124.467      -68.873        7.365       66.686       49.407       34.462     4446.969     2441.019     1187.652        1.418        0.404      142.252       26.855        0.036      344.093       20.666      862.778
07/07/2014  05:30:00     -166.499      -76.583      -12.245       61.453       56.805       35.049     3776.467     3226.830     1228.443        2.098        0.412      183.267       33.938        0.034      344.012       20.526      862.787
07/07/2014  05:31:00      -79.398      -33.383       10.055       54.424       36.911       25.546     2961.985     1362.391      652.608        0.625        0.249       86.131       25.098        0.085      343.914       20.362      862.805
07/07/2014  05:32:00      -52.048      -47.966       15.721       45.853       31.943       25.103     2102.517     1020.366      630.176        0.450        0.188       70.780       21.472        0.092      343.965       20.447      862.814
07/07/2014  05:33:00     -140.324      -73.284       -4.544       53.912       43.756       26.811     2906.512     1914.546      718.816        1.531        0.277      158.307       24.798        0.025      344.060       20.612      862.812
07/07/2014  05:34:00     -150.348      -58.930       -9.507       34.584       33.075       22.194     1196.046     1093.969      492.575        1.447        0.139      161.485       15.881        0.010      344.018       20.542      862.826
07/07/2014  05:35:00      -88.631      -52.333        0.582       66.141       34.127       25.509     4374.680     1164.650      650.702        0.839        0.310      102.928       33.070        0.103      343.944       20.413      862.853
07/07/2014  05:36:00     -105.173      -53.796       -8.739       29.582       28.241       20.128      875.087      797.562      405.139        0.805        0.104      118.133       16.001        0.018      343.948       20.420      862.867
07/07/2014  05:37:00      -62.917       -5.836      -18.453       24.426       15.435       16.714      596.653      238.246      279.356        0.272        0.056       63.187       12.679        0.040      343.930       20.388      862.866
07/07/2014  05:38:00      -38.841      -25.926      -14.207       29.241       18.865       23.230      855.015      355.872      539.615        0.207        0.088       46.699       15.971        0.117      344.037       20.572      862.862
07/07/2014  05:39:00      -71.357      -14.262       -5.969       22.192       17.046       14.053      492.466      290.583      197.497        0.316        0.049       72.769       13.406        0.034      343.872       20.288      862.887
07/07/2014  05:40:00      -80.547      -17.896       -1.481       27.216       19.623       13.932      740.731      385.068      194.093        0.406        0.066       82.511       12.043        0.021      343.794       20.157      862.899
07/07/2014  05:41:00      -97.190      -42.313       -3.753       29.121       34.427       19.200      848.004     1185.241      368.646        0.683        0.120      106.002       15.823        0.022      343.756       20.093      862.892
07/07/2014  05:42:00      -82.141      -28.915       -1.890       36.687       28.101       22.652     1345.955      789.676      513.098        0.512        0.132       87.082       22.483        0.067      343.741       20.065      862.888
07/07/2014  05:43:00      -48.486      -50.491        2.028       45.942       22.368       17.634     2110.624      500.310      310.966        0.391        0.146       70.001       14.747        0.044      343.825       20.210      862.901
07/07/2014  05:44:00      -58.482      -36.513       -3.267       24.297       14.898       11.756      590.335      221.951      138.192        0.286        0.048       68.944       12.928        0.035      343.824       20.208      862.908
07/07/2014  05:45:00       -6.858      -55.628        2.318       24.753       17.928       14.916      612.712      321.400      222.501        0.215        0.058       56.049       10.039        0.032      343.882       20.305      862.901
07/07/2014  05:46:00      -43.947      -73.503       -7.195       42.220       40.117       22.778     1782.541     1609.401      518.848        0.565        0.196       85.639       19.997        0.055      343.795       20.159      862.898
07/07/2014  05:47:00       -8.074      -95.900       19.767       42.410       53.470       26.520     1798.643     2859.075      703.317        0.751        0.268       96.239       24.468        0.065      343.767       20.111      862.896
07/07/2014  05:48:00      -75.352      -83.261       -9.114       48.804       35.600       25.968     2381.828     1267.364      674.313        0.851        0.216      112.296       16.194        0.021      343.739       20.063      862.909
07/07/2014  05:49:00      -91.695      -61.821       -1.207       28.991       19.465       17.735      840.497      378.888      314.520        0.688        0.077      110.589       14.002        0.016      343.739       20.062      862.900
07/07/2014  05:50:00      -60.518      -32.868        2.060       39.839       39.761       20.106     1587.121     1580.973      404.261        0.416        0.179       68.867       19.779        0.082      343.715       20.020      862.908
07/07/2014  05:51:00      -54.868        2.647       -2.582       13.990       19.336       11.157      195.722      373.863      124.469        0.186        0.035       54.931       10.291        0.035      343.740       20.063      862.917
07/07/2014  05:52:00      -40.578      -52.983       -2.473       23.179       46.359       17.580      537.251     2149.116      309.052        0.373        0.150       66.737       13.648        0.042      343.747       20.076      862.925
07/07/2014  05:53:00      -30.588     -109.476      -10.634       21.590       34.341       15.646      466.110     1179.277      244.792        0.746        0.095      113.669       11.194        0.010      343.785       20.143      862.925
07/07/2014  05:54:00      -68.525      -38.592      -11.619       23.996       16.345       16.386      575.813      267.167      268.516        0.372        0.056       78.645       13.481        0.029      343.783       20.139      862.923
07/07/2014  05:55:00      -92.494      -22.114      -10.540       15.234       14.715       11.329      232.066      216.539      128.341        0.487        0.029       95.101        4.974        0.003      343.805       20.177      862.921
07/07/2014  05:56:00      -62.343      -26.334        4.203       47.512       15.941       19.514     2257.406      254.117      380.786        0.374        0.145       67.677       25.151        0.138      343.744       20.071      862.914
07/07/2014  05:57:00     -121.566      -28.775       -8.053       15.022       22.938       11.220      225.667      526.161      125.886        0.827        0.044      124.926        6.865        0.003      343.662       19.930      862.915
07/07/2014  05:58:00      -69.108      -36.958        2.728       28.411       21.693       15.663      807.204      470.593      245.338        0.384        0.076       78.370       12.118        0.024      343.624       19.868      862.914
07/07/2014  05:59:00        1.505      -28.870       -0.117       18.030       21.113       13.946      325.094      445.771      194.494        0.090        0.048       28.909        6.872        0.057      343.786       20.143      862.906
07/07/2014  06:00:00      -10.241      -38.546        3.875       21.215       12.379       14.812      450.075      153.236      219.407        0.121        0.041       39.883        6.251        0.025      343.861       20.270      862.910
07/07/2014  06:01:00      -82.089      -47.571       -7.946       34.978       41.971       20.088     1223.441     1761.525      403.520        0.623        0.169       94.877       10.721        0.013      343.857       20.263      862.907
07/07/2014  06:02:00     -113.928      -68.807       -1.157       33.541       37.944       24.994     1124.983     1439.731      624.710        1.045        0.159      133.094       19.450        0.021      343.736       20.056      862.914
07/07/2014  06:03:00      -81.781      -88.360       -3.212       23.907       25.163       15.681      571.558      633.166      245.909        0.798        0.073      120.398        9.068        0.006      343.768       20.112      862.930
07/07/2014  06:04:00      -54.830      -53.660       -0.559       27.888       19.380       20.875      777.734      375.573      435.778        0.374        0.079       76.719       14.654        0.036      343.785       20.144      862.928
07/07/2014  06:05:00      -83.152      -66.424       -1.027       40.244       30.289       20.128     1619.590      917.426      405.128        0.713        0.147      106.425       15.614        0.022      343.764       20.106      862.922
07/07/2014  06:06:00      -93.073      -82.205       -4.858       19.892       26.570       14.878      395.708      705.961      221.348        0.838        0.066      124.178       10.927        0.008      343.776       20.128      862.930
07/07/2014  06:07:00      -91.336     -114.625       -2.998       31.134       47.938       18.372      969.311     2298.077      337.512        1.255        0.180      146.565       20.053        0.019      343.768       20.113      862.935
07/07/2014  06:08:00      -98.330     -112.118       -9.284       52.879       56.089       25.837     2796.137     3145.985      667.544        1.447        0.330      149.128       25.863        0.030      343.768       20.112      862.936
07/07/2014  06:09:00      -50.245      -53.079       -7.766       31.677       38.626       23.180     1003.457     1491.930      537.332        0.422        0.152       73.089       19.644        0.072      343.750       20.082      862.954
07/07/2014  06:10:00      -50.473      -41.276        5.191       40.708       29.732       20.470     1657.140      884.001      419.021        0.362        0.148       65.201       18.259        0.078      343.771       20.117      862.975
07/07/2014  06:11:00      -56.443      -47.206       16.204       57.039       29.055       28.410     3253.404      844.192      807.140        0.529        0.245       73.581       26.114        0.126      343.726       20.041      862.990
07/07/2014  06:12:00      -33.134      -34.946        9.155       31.861       31.190       19.717     1015.145      972.804      388.770        0.239        0.119       48.157       15.444        0.103      343.694       19.984      863.008
07/07/2014  06:13:00      -20.865        5.866       18.544       48.041       37.126       21.786     2307.963     1378.366      474.631        0.249        0.208       21.674       17.752        0.671      343.642       19.897      863.030
07/07/2014  06:14:00        3.901        5.918        7.922       24.017       17.625       12.445      576.828      310.624      154.882        0.058        0.052        7.088       10.952        2.387      343.627       19.871      863.046
07/07/2014  06:15:00        5.035        9.411       -4.036       16.890       10.974       16.684      285.261      120.424      278.364        0.041        0.034       10.673       12.824        1.444      343.656       19.921      863.051
07/07/2014  06:16:00      -16.195        8.299        2.983       14.204       11.615       17.434      201.749      134.913      303.954        0.049        0.032       18.198       12.324        0.459      343.734       20.054      863.046
07/07/2014  06:17:00      -68.957      -29.573       -1.052       45.220       30.521       23.331     2044.886      931.562      544.356        0.458        0.176       75.031       21.880        0.085      343.720       20.028      863.038
07/07/2014  06:18:00      -98.887      -48.031        8.650       47.137       31.019       19.528     2221.874      962.187      381.356        0.786        0.178      109.934       12.198        0.012      343.666       19.938      863.045
07/07/2014  06:19:00      -70.493      -35.763        5.553       42.499       25.328       19.636     1806.150      641.522      385.560        0.456        0.142       79.046       22.287        0.079      343.703       20.001      863.045
07/07/2014  06:20:00      -55.993     -104.692        7.702       65.874       48.837       29.844     4339.347     2385.059      890.667        1.088        0.381      118.725       30.563        0.066      343.705       20.004      863.055
07/07/2014  06:21:00      -77.822     -101.430        3.423       50.447       61.518       30.412     2544.882     3784.486      924.868        1.180        0.363      127.845       24.387        0.036      343.729       20.045      863.065
07/07/2014  06:22:00      -74.488      -82.010        4.443       54.316       41.287       25.833     2950.213     1704.636      667.334        0.881        0.266      110.788       21.616        0.038      343.686       19.973      863.074
07/07/2014  06:23:00      -75.657      -82.401       -1.990       48.020       53.820       29.626     2305.953     2896.578      877.678        0.930        0.304      111.866       25.752        0.053      343.721       20.033      863.091
07/07/2014  06:24:00     -115.745     -131.301      -18.490       33.603       43.268       23.588     1129.160     1872.146      556.387        1.727        0.178      175.034       13.096        0.006      343.739       20.064      863.110
07/07/2014  06:25:00     -154.851     -103.728       -8.013       39.585       57.260       29.978     1566.983     3278.760      898.694        2.027        0.287      186.382       25.195        0.018      343.700       19.994      863.121
07/07/2014  06:26:00     -141.005     -135.899       -1.221       61.899       49.123       29.816     3831.527     2413.106      889.022        2.274        0.357      195.834       25.424        0.017      343.696       19.987      863.124
07/07/2014  06:27:00     -136.488      -95.402        0.492       77.706       59.114       37.679     6038.167     3494.473     1419.710        1.934        0.548      166.525       45.808        0.076      343.638       19.889      863.123
07/07/2014  06:28:00     -100.670      -85.295        8.244       87.138       59.921       39.562     7592.953     3590.527     1565.121        1.511        0.637      131.945       47.080        0.127      343.605       19.832      863.122
07/07/2014  06:29:00     -186.193      -76.150      -13.002       48.406       42.078       40.094     2343.130     1770.547     1607.537        2.318        0.286      201.164       21.169        0.011      343.581       19.790      863.116
07/07/2014  06:30:00     -193.656     -107.423        1.458       70.363       73.562       41.353     4950.982     5411.310     1710.101        3.056        0.604      221.455       41.453        0.035      343.570       19.772      863.110
07/07/2014  06:31:00     -191.496     -144.450      -10.351       67.949       48.787       42.120     4617.046     2380.128     1774.085        3.321        0.439      239.868       40.319        0.028      343.561       19.755      863.093
07/07/2014  06:32:00     -142.446      -84.208        3.575       97.979       61.705       40.397     9599.832     3807.530     1631.933        2.121        0.752      165.475       44.614        0.073      343.521       19.689      863.085
07/07/2014  06:33:00     -150.269      -58.572       -0.647       82.337       48.665       35.616     6779.450     2368.303     1268.486        1.821        0.521      161.280       33.651        0.044      343.505       19.662      863.081
07/07/2014  06:34:00     -117.620      -89.728        5.395       74.210       41.327       34.180     5507.166     1707.889     1168.253        1.515        0.419      147.938       33.522        0.051      343.542       19.727      863.093
07/07/2014  06:35:00     -178.219     -113.883       -2.386       68.034       47.406       38.641     4628.571     2247.287     1493.121        2.655        0.418      211.498       35.797        0.029      343.551       19.740      863.105
07/07/2014  06:36:00     -178.067     -123.449       -6.182       65.321       51.404       33.574     4266.879     2642.401     1127.209        2.751        0.402      216.674       29.697        0.019      343.543       19.725      863.120
07/07/2014  06:37:00     -110.858      -83.098       -1.800       48.945       52.651       34.059     2395.598     2772.157     1160.007        1.276        0.316      138.545       30.916        0.050      343.526       19.700      863.135
07/07/2014  06:38:00     -113.307      -45.668        5.518       63.681       49.515       29.178     4055.265     2451.703      851.332        1.116        0.368      122.164       31.321        0.066      343.532       19.711      863.161
07/07/2014  06:39:00     -107.612     -106.265       -0.736       54.661       47.910       34.179     2987.794     2295.364     1168.208        1.466        0.323      151.237       33.376        0.049      343.503       19.660      863.187
07/07/2014  06:40:00     -158.095      -97.120       -2.168       74.366       39.796       38.747     5530.317     1583.730     1501.332        2.152        0.431      185.543       43.032        0.054      343.501       19.652      863.200
07/07/2014  06:41:00      -85.165      -18.488        3.834       70.930       45.841       25.251     5030.997     2101.357      637.593        0.769        0.388       87.149       24.605        0.080      343.499       19.651      863.214
07/07/2014  06:42:00     -138.166      -90.898       -8.565       62.864       49.148       30.308     3951.884     2415.541      918.545        1.735        0.364      165.385       32.834        0.039      343.538       19.718      863.226
07/07/2014  06:43:00     -146.494      -48.756      -20.994       32.708       31.248       20.519     1069.803      976.447      421.011        1.337        0.123      154.394       16.639        0.012      343.528       19.702      863.238
07/07/2014  06:44:00     -117.497      -60.310      -10.368       29.406       50.095       16.125      864.707     2509.504      260.022        1.059        0.182      132.072       10.867        0.007      343.466       19.597      863.244
07/07/2014  06:45:00     -103.835      -32.400       -5.224       53.649       28.611       27.024     2878.236      818.598      730.272        0.814        0.221      108.772       29.874        0.075      343.413       19.507      863.251
07/07/2014  06:46:00     -121.982      -51.719       -1.088       43.411       29.084       22.563     1884.516      845.857      509.096        1.040        0.162      132.493       21.399        0.026      343.513       19.678      863.236
07/07/2014  06:47:00     -104.480      -31.771       -5.009       36.773       49.338       26.108     1352.259     2434.222      681.653        0.821        0.223      109.204       21.703        0.039      343.489       19.636      863.223
07/07/2014  06:48:00      -71.366       -1.581        5.552       48.973       45.032       30.320     2398.320     2027.904      919.297        0.524        0.267       71.383       23.567        0.109      343.355       19.409      863.224
07/07/2014  06:49:00     -150.343       -4.037       -2.969       42.018       25.520       17.024     1765.545      651.257      289.802        1.267        0.135      150.398       18.710        0.015      343.200       19.143      863.218
07/07/2014  06:50:00     -110.037      -37.313       -4.976       23.702       24.165       16.514      561.765      583.946      272.727        0.747        0.071      116.192       11.265        0.009      343.236       19.206      863.213
07/07/2014  06:51:00     -123.435      -31.502       -7.458       45.268       21.093       18.271     2049.233      444.923      333.844        0.956        0.141      127.391       23.145        0.033      343.325       19.357      863.199
07/07/2014  06:52:00      -78.960      -16.381       -3.370       48.553       36.304       19.980     2357.373     1317.962      399.190        0.529        0.204       80.641       19.410        0.058      343.307       19.326      863.193
07/07/2014  06:53:00     -124.712       30.181       -6.458       61.315       28.804       28.844     3759.509      829.644      831.994        1.096        0.271      128.312       25.908        0.041      343.281       19.284      863.196
07/07/2014  06:54:00     -162.480       -2.976      -16.502       34.877       35.819       15.416     1216.387     1283.030      237.666        1.471        0.137      162.507       13.961        0.007      343.272       19.266      863.193
07/07/2014  06:55:00      -79.077      -44.372        6.122       40.956       43.570       24.016     1677.358     1898.359      576.755        0.621        0.208       90.675       22.794        0.063      343.341       19.384      863.197
07/07/2014  06:56:00     -139.910      -17.311      -10.669       41.339       40.177       20.773     1708.909     1614.231      431.511        1.187        0.188      140.977       16.149        0.013      343.379       19.449      863.206
07/07/2014  06:57:00     -147.330        7.334       -5.960       60.526       42.511       30.932     3663.338     1807.150      956.798        1.411        0.321      147.512       32.079        0.047      343.369       19.431      863.210
07/07/2014  06:58:00     -137.136       -6.060       -7.745       47.260       40.013       27.188     2233.482     1601.057      739.213        1.174        0.229      137.269       25.659        0.035      343.409       19.499      863.216
07/07/2014  06:59:00     -172.497        8.185      -15.962       33.365       34.113       23.232     1113.226     1163.672      539.740        1.645        0.141      172.691       17.095        0.010      343.463       19.591      863.221
07/07/2014  07:00:00     -101.611       41.092        0.017       41.740       29.277       25.005     1742.189      857.122      625.250        0.762        0.161      109.605       25.364        0.054      343.453       19.575      863.220
07/07/2014  07:01:00     -101.003       -3.148      -10.136       40.892       52.679       21.107     1672.145     2775.050      445.520        0.760        0.245      101.052       19.996        0.039      343.524       19.695      863.218
07/07/2014  07:02:00      -60.759      -45.349        8.032       54.986       31.010       25.608     3023.486      961.604      655.777        0.523        0.232       75.816       31.092        0.168      343.596       19.818      863.206
07/07/2014  07:03:00      -66.830       -9.843        2.373       62.886       30.818       25.690     3954.698      949.727      659.982        0.507        0.278       67.551       23.992        0.126      343.642       19.897      863.190
07/07/2014  07:04:00      -99.455      -20.196       -0.924       26.442       21.951       15.061      699.181      481.859      226.834        0.585        0.070      101.484       10.656        0.011      343.630       19.878      863.183
07/07/2014  07:05:00      -61.903      -51.726       -6.070       31.096       32.689       16.761      966.966     1068.580      280.914        0.443        0.116       80.669       17.575        0.047      343.720       20.031      863.179
07/07/2014  07:06:00      -71.736      -12.612        5.955       47.000       25.649       19.456     2209.031      657.846      378.527        0.429        0.162       72.837       23.888        0.108      343.791       20.150      863.178
07/07/2014  07:07:00      -42.262      -32.116       10.188       28.694       35.861       18.115      823.345     1286.034      328.169        0.268        0.122       53.080       15.180        0.082      343.808       20.182      863.186
07/07/2014  07:08:00      -68.851      -32.520       -0.405       29.219       24.684       16.967      853.748      609.288      287.887        0.377        0.088       76.145       16.525        0.047      343.914       20.361      863.198
07/07/2014  07:09:00      -61.385      -28.772        0.781       39.439       20.743       13.045     1555.456      430.282      170.165        0.338        0.108       67.793       16.258        0.058      343.926       20.382      863.205
07/07/2014  07:10:00      -81.066      -51.408        1.977       42.322       22.628       17.090     1791.152      512.018      292.065        0.591        0.130       95.992       20.456        0.045      343.915       20.364      863.203
07/07/2014  07:11:00      -59.183      -40.978        3.062       31.265       34.244       15.134      977.481     1172.629      229.036        0.378        0.119       71.984       15.425        0.046      343.999       20.505      863.198
07/07/2014  07:12:00      -91.540      -57.183        2.816       43.991       44.368       20.881     1935.212     1968.545      436.008        0.800        0.217      107.933       19.921        0.034      344.087       20.658      863.202
07/07/2014  07:13:00     -126.717      -80.949       -9.043       50.091       44.656       20.719     2509.099     1994.135      429.267        1.381        0.247      150.366       11.290        0.006      344.151       20.765      863.214
07/07/2014  07:14:00      -84.406      -46.559        6.044       58.124       54.425       32.123     3378.400     2962.050     1031.857        0.835        0.369       96.396       31.074        0.104      344.233       20.907      863.218
07/07/2014  07:15:00     -118.528      -62.024       -2.988       49.746       45.027       25.848     2474.674     2027.451      668.129        1.154        0.259      133.775       27.784        0.043      344.239       20.918      863.225
07/07/2014  07:16:00      -98.137      -85.752       10.777       70.860       57.108       30.594     5021.092     3261.342      935.991        1.316        0.461      130.324       38.404        0.087      344.280       20.986      863.237
07/07/2014  07:17:00      -63.356      -25.990       14.732       74.889       36.277       28.870     5608.338     1316.013      833.479        0.633        0.388       68.480       38.459        0.315      344.253       20.941      863.250
07/07/2014  07:18:00     -146.895      -56.539        1.138       51.321       43.339       25.074     2633.856     1878.245      628.721        1.496        0.257      157.400       20.847        0.018      344.246       20.927      863.240
07/07/2014  07:19:00     -195.785      -77.109        0.038       54.039       36.220       28.346     2920.228     1311.869      803.515        2.466        0.252      210.422       28.410        0.018      344.357       21.117      863.238
07/07/2014  07:20:00     -184.120      -51.763        4.920       69.521       47.580       32.351     4833.191     2263.822     1046.612        2.237        0.407      191.258       35.554        0.035      344.331       21.071      863.237
07/07/2014  07:21:00     -154.353      -59.745        0.480       70.544       59.821       32.836     4976.471     3578.568     1078.192        1.851        0.482      165.512       33.842        0.042      344.259       20.951      863.223
07/07/2014  07:22:00     -140.998      -62.689        0.486       61.140       45.740       26.819     3738.111     2092.137      719.250        1.518        0.327      154.306       24.996        0.026      344.250       20.935      863.207
07/07/2014  07:23:00     -119.871      -84.761        8.563       84.171       58.400       39.220     7084.799     3410.507     1538.198        1.683        0.602      146.811       41.721        0.081      344.248       20.931      863.200
07/07/2014  07:24:00     -149.410      -89.345       -2.453       50.663       57.422       31.784     2566.722     3297.271     1010.216        1.859        0.344      174.086       31.260        0.032      344.261       20.953      863.201
07/07/2014  07:25:00     -167.433      -88.149      -10.298       65.464       58.367       35.420     4285.548     3406.729     1254.608        2.243        0.447      189.219       38.817        0.042      344.229       20.896      863.199
07/07/2014  07:26:00     -139.153      -94.444      -10.401       61.669       49.517       29.475     3803.041     2451.941      868.780        1.776        0.356      168.176       30.789        0.034      344.256       20.944      863.200
07/07/2014  07:27:00      -97.794      -60.074        0.610       69.943       51.567       30.735     4892.074     2659.106      944.620        1.083        0.425      114.772       36.121        0.099      344.260       20.951      863.196
07/07/2014  07:28:00     -142.261      -91.212       -4.141       71.914       66.299       33.738     5171.692     4395.617     1138.262        1.964        0.535      168.991       32.383        0.037      344.295       21.010      863.196
07/07/2014  07:29:00     -176.358      -96.455      -12.321       47.149       55.627       30.877     2223.033     3094.417      953.374        2.341        0.314      201.011       14.314        0.005      344.221       20.883      863.210
07/07/2014  07:30:00     -144.842      -91.907       -2.053       67.858       45.284       31.281     4604.692     2050.667      978.511        1.853        0.382      171.541       28.789        0.028      344.225       20.891      863.219
07/07/2014  07:31:00     -112.633      -94.293       -3.320       52.919       55.420       32.552     2800.404     3071.368     1059.664        1.426        0.347      146.892       34.476        0.055      344.210       20.867      863.216
07/07/2014  07:32:00     -103.814      -84.037        1.552       41.297       49.879       27.663     1705.417     2487.930      765.252        1.140        0.248      133.565       26.174        0.038      344.219       20.883      863.224
07/07/2014  07:33:00     -111.933      -45.680        5.154       50.019       29.909       20.501     2501.933      894.527      420.287        0.923        0.191      120.895       21.694        0.032      344.255       20.944      863.231
07/07/2014  07:34:00     -138.591      -74.156       -0.111       58.888       43.915       22.889     3467.757     1928.538      523.920        1.531        0.296      157.184       26.213        0.028      344.239       20.917      863.228
07/07/2014  07:35:00     -124.050      -62.961        1.647       62.846       49.754       28.440     3949.570     2475.420      808.839        1.329        0.362      139.113       27.689        0.040      344.277       20.982      863.217
07/07/2014  07:36:00      -99.185      -75.013        4.940       55.541       43.831       31.681     3084.753     1921.132     1003.678        1.075        0.300      124.357       25.116        0.041      344.259       20.951      863.213
07/07/2014  07:37:00     -119.737     -123.533       -5.388       39.563       33.011       19.957     1565.213     1089.752      398.266        1.634        0.153      172.038       12.291        0.005      344.245       20.926      863.215
07/07/2014  07:38:00     -125.735      -74.046       -8.382       36.166       38.072       22.999     1308.003     1449.468      528.936        1.232        0.164      145.918       19.400        0.018      344.281       20.989      863.230
07/07/2014  07:39:00      -94.256      -38.954       -1.647       52.548       22.893       18.306     2761.297      524.081      335.096        0.701        0.181      101.988       21.197        0.043      344.332       21.077      863.246
07/07/2014  07:40:00      -56.655      -82.197        2.457       30.866       45.500       20.901      952.704     2070.287      436.863        0.672        0.173       99.830       12.847        0.017      344.328       21.069      863.260
07/07/2014  07:41:00      -90.068      -69.845       -7.809       45.699       36.826       20.711     2088.405     1356.147      428.928        0.846        0.194      113.976       17.824        0.024      344.337       21.085      863.269
07/07/2014  07:42:00      -71.086      -78.886        1.000       33.173       34.575       25.895     1100.466     1195.416      670.561        0.712        0.148      106.190       19.341        0.033      344.378       21.154      863.268
07/07/2014  07:43:00      -53.375      -63.436        5.901       42.868       33.605       25.005     1837.650     1129.271      625.253        0.525        0.180       82.904       26.139        0.099      344.451       21.278      863.259
07/07/2014  07:44:00      -51.219      -42.099        3.113       31.205       30.532       21.297      973.721      932.180      453.571        0.338        0.118       66.301        7.495        0.013      344.492       21.349      863.253
07/07/2014  07:45:00      -28.862      -45.450        0.904       27.895       41.820       15.488      778.128     1748.927      239.884        0.283        0.138       53.840       17.026        0.100      344.483       21.334      863.253
07/07/2014  07:46:00      -16.702      -15.440       -0.561       19.146       28.661       18.242      366.563      821.459      332.753        0.102        0.076       22.745       13.563        0.356      344.605       21.541      863.242
07/07/2014  07:47:00      -18.974      -58.781        5.373       23.286       36.459       20.496      542.216     1329.264      420.080        0.307        0.115       61.767        9.485        0.024      344.652       21.623      863.241
07/07/2014  07:48:00      -66.678      -71.130       -1.939       28.071       35.856       19.564      787.976     1285.663      382.746        0.598        0.123       97.496       16.614        0.029      344.650       21.620      863.240
07/07/2014  07:49:00      -77.929      -58.871       -3.423       30.354       36.936       14.668      921.341     1364.252      215.155        0.603        0.125       97.666       10.693        0.012      344.667       21.647      863.246
07/07/2014  07:50:00      -71.215      -77.795        1.145       35.274       30.695       21.857     1244.274      942.181      477.743        0.689        0.133      105.468       21.718        0.042      344.724       21.746      863.242
07/07/2014  07:51:00      -76.173      -86.973       -7.078       38.044       34.827       23.312     1447.382     1212.915      543.455        0.831        0.160      115.614       22.236        0.037      344.732       21.758      863.252
07/07/2014  07:52:00      -61.398      -45.461        9.075       46.242       43.396       26.042     2138.301     1883.197      678.204        0.531        0.235       76.396       27.269        0.127      344.813       21.897      863.241
07/07/2014  07:53:00      -49.321     -129.057      -10.950       22.341       25.414       15.883      499.118      645.879      252.271        1.030        0.070      138.161       10.861        0.006      344.695       21.695      863.245
07/07/2014  07:54:00      -46.542     -113.338      -10.884       25.370       28.692       15.324      643.639      823.228      234.829        0.842        0.085      122.522        7.794        0.004      344.744       21.781      863.244
07/07/2014  07:55:00      -31.512      -65.098       -4.603       35.843       34.145       19.895     1284.739     1165.847      395.797        0.405        0.142       72.324       19.451        0.072      344.982       22.188      863.238
07/07/2014  07:56:00      -62.216      -57.668       -2.631       39.606       34.678       21.334     1568.645     1202.579      455.124        0.521        0.161       84.831       20.508        0.058      344.952       22.135      863.250
07/07/2014  07:57:00      -83.195     -105.779       -7.055       44.662       32.948       17.175     1994.698     1085.576      294.980        1.077        0.169      134.575       16.825        0.016      344.880       22.015      863.251
07/07/2014  07:58:00     -100.663      -76.200      -11.519       38.189       32.263       16.757     1458.432     1040.900      280.794        0.943        0.139      126.251       18.721        0.022      344.885       22.022      863.265
07/07/2014  07:59:00      -76.240      -46.168       -1.225       29.146       54.993       18.251      849.476     3024.213      333.082        0.608        0.210       89.129       14.843        0.028      344.987       22.197      863.272
07/07/2014  08:00:00      -59.431      -72.383       -8.467       31.278       26.522       13.986      978.324      703.395      195.612        0.536        0.094       93.655       13.988        0.022      344.955       22.142      863.282
07/07/2014  08:01:00      -23.512      -80.695        4.039       33.460       37.042       19.412     1119.551     1372.096      376.819        0.497        0.143       84.051       16.202        0.037      345.041       22.288      863.278
07/07/2014  08:02:00      -72.218      -76.247        4.103       43.095       50.355       24.396     1857.175     2535.586      595.186        0.802        0.249      105.020       24.464        0.054      345.080       22.356      863.276
07/07/2014  08:03:00      -66.508      -50.072        6.175       49.042       32.610       23.341     2405.088     1063.429      544.815        0.549        0.201       83.250       25.983        0.097      345.204       22.570      863.270
07/07/2014  08:04:00      -58.210      -48.469        2.687       35.996       31.369       22.613     1295.746      984.015      511.344        0.427        0.140       75.747        9.884        0.017      345.231       22.614      863.272
07/07/2014  08:05:00      -77.751      -79.739       -7.785       31.624       30.453       23.646     1000.050      927.388      559.150        0.747        0.124      111.371       14.447        0.017      345.225       22.602      863.272
07/07/2014  08:06:00      -35.472      -62.341        3.511       35.889       44.208       20.977     1287.992     1954.321      440.032        0.442        0.184       71.726       21.008        0.086      345.426       22.947      863.266
07/07/2014  08:07:00      -47.309     -107.916       -0.188       39.688       51.952       26.976     1575.132     2699.001      727.712        0.944        0.250      117.830       28.472        0.058      345.347       22.811      863.263
07/07/2014  08:08:00      -91.346      -76.535       -7.315       35.961       32.407       23.438     1293.183     1050.230      549.342        0.857        0.145      119.171       19.958        0.028      345.329       22.780      863.266
07/07/2014  08:09:00      -59.500     -117.349       -3.890       29.254       42.877       16.400      855.812     1838.402      268.959        1.014        0.148      131.571       11.126        0.007      345.362       22.839      863.272
07/07/2014  08:10:00      -79.563     -119.758       -3.751       45.023       30.187       23.165     2027.098      911.244      536.600        1.208        0.174      143.779       18.836        0.017      345.415       22.928      863.281
07/07/2014  08:11:00      -61.815     -123.778       -3.260       45.322       35.069       20.228     2054.090     1229.835      409.167        1.142        0.185      138.355       23.878        0.030      345.378       22.866      863.287
07/07/2014  08:12:00      -47.852      -63.725        6.673       31.086       38.753       18.636      966.339     1501.776      347.287        0.460        0.141       79.691       17.164        0.046      345.512       23.095      863.296
07/07/2014  08:13:00      -73.665      -13.148       -1.477       45.512       40.607       33.401     2071.300     1648.890     1115.611        0.522        0.242       74.829       21.575        0.083      345.714       23.442      863.307
07/07/2014  08:14:00      -46.410      -27.980        3.896       22.298       21.761       22.108      497.180      473.530      488.785        0.221        0.073       54.192        8.921        0.027      345.656       23.342      863.314
07/07/2014  08:15:00      -28.179      -10.084        6.309       19.716       26.269       27.693      388.719      690.071      766.877        0.139        0.092       29.929       22.888        0.585      345.897       23.757      863.313
07/07/2014  08:16:00      -54.065      -13.042       -1.073       53.224       31.757       23.993     2832.834     1008.525      575.648        0.375        0.221       55.615       16.826        0.092      345.923       23.800      863.302
07/07/2014  08:17:00       -3.556      -10.298       17.803       17.299       11.501       15.744      299.265      132.265      247.881        0.056        0.034       10.895       13.817        1.608      346.443       24.695      863.288
07/07/2014  08:18:00      -27.890       -7.904        9.399       36.841       29.528       19.974     1357.254      871.914      398.978        0.178        0.131       28.988       19.360        0.446      346.200       24.276      863.276
07/07/2014  08:19:00       12.562       45.108       43.472       37.317       33.583       25.321     1392.546     1127.795      641.148        0.362        0.158       46.824       23.478        0.251      346.393       24.608      863.266
07/07/2014  08:20:00      -28.459        7.775        0.181       39.756       18.718       22.463     1580.510      350.354      504.604        0.165        0.122       29.502       19.217        0.424      346.006       23.945      863.265
07/07/2014  08:21:00      -38.121        5.574       17.729       46.012       15.498       19.849     2117.116      240.178      393.970        0.227        0.138       38.527       26.023        0.456      346.181       24.243      863.265
07/07/2014  08:22:00      -26.431      -13.581        3.868       24.203       21.211       16.130      585.766      449.901      260.175        0.110        0.065       29.716       17.791        0.358      346.159       24.207      863.256
07/07/2014  08:23:00      -26.142        8.185       22.579       26.004       23.117       21.578      676.213      534.378      465.599        0.147        0.084       27.393       19.960        0.531      346.688       25.117      863.260
07/07/2014  08:24:00      -32.843       14.778       17.420       30.094       28.728       24.217      905.644      825.314      586.458        0.196        0.116       36.014       22.542        0.392      346.402       24.624      863.274
07/07/2014  08:25:00      -30.568       -8.306       17.095       25.903       24.401       18.109      670.957      595.431      327.940        0.144        0.080       31.676       15.917        0.252      346.416       24.648      863.286
07/07/2014  08:26:00      -20.205       -3.234       13.210       15.348       17.281       27.027      235.570      298.627      730.476        0.093        0.063       20.462       20.964        1.050      346.835       25.369      863.303
07/07/2014  08:27:00      -62.312      -25.299       -7.492       21.720       20.498       12.700      471.767      420.164      161.283        0.282        0.053       67.252        4.405        0.004      346.003       23.939      863.311
07/07/2014  08:28:00      -49.319      -21.774       -3.001       37.750       34.069       22.604     1425.035     1160.700      510.922        0.301        0.155       53.911       19.813        0.135      346.167       24.220      863.323
07/07/2014  08:29:00      -12.338       -3.523        6.858       23.586       12.798       18.434      556.299      163.793      339.824        0.064        0.053       12.831       13.049        1.034      346.703       25.141      863.332
07/07/2014  08:30:00      -35.824        8.262        7.095       27.509       22.679       23.006      756.736      514.326      529.296        0.160        0.090       36.764       20.616        0.314      346.735       25.197      863.335
07/07/2014  08:31:00      -15.095        1.784       18.273       17.239       16.197       14.403      297.180      262.331      207.446        0.067        0.038       15.200        9.355        0.379      347.061       25.758      863.341
07/07/2014  08:32:00      -13.898       15.579       38.335       20.929       18.947       16.209      438.039      358.996      262.729        0.148        0.053       20.877       13.917        0.444      347.371       26.293      863.341
07/07/2014  08:33:00       -8.824       -8.546       29.693       25.870       48.557       30.776      669.265     2357.803      947.138        0.250        0.199       12.284       31.862        6.728      347.281       26.138      863.330
07/07/2014  08:34:00      -56.562      -36.012       19.068       39.673       47.314       30.386     1573.973     2238.612      923.332        0.480        0.237       67.053       33.181        0.245      346.499       24.792      863.333
07/07/2014  08:35:00      -16.275       41.028       58.036       11.438       20.667       17.021      130.832      427.137      289.698        0.308        0.042       44.138       10.873        0.061      347.323       26.210      863.338
07/07/2014  08:36:00      -11.547       18.476       43.249       16.449       22.744       18.295      270.577      517.297      334.693        0.173        0.056       21.788       15.263        0.491      347.707       26.872      863.344
07/07/2014  08:37:00       -7.854        6.099       47.692       22.377       31.138       25.353      500.720      969.577      642.783        0.224        0.106        9.944       24.964        6.302      347.531       26.569      863.345
07/07/2014  08:38:00      -27.889       -2.845       19.555       23.543       22.779       18.532      554.251      518.899      343.428        0.129        0.071       28.034       16.736        0.356      347.339       26.237      863.347
07/07/2014  08:39:00       -9.077      -24.948       26.885       47.790       64.642       33.995     2283.899     4178.602     1155.648        0.452        0.381       26.548       36.174        1.857      347.107       25.838      863.340
07/07/2014  08:40:00      -29.978      -47.493       11.132       53.828       37.110       31.467     2897.486     1377.164      990.166        0.427        0.263       56.163       22.742        0.164      346.888       25.461      863.349
07/07/2014  08:41:00      -41.494      -23.228        7.122       53.508       46.724       36.761     2863.084     2183.115     1351.338        0.435        0.320       47.553       28.813        0.367      347.057       25.751      863.356
07/07/2014  08:42:00      -17.677       27.644       37.380       33.548       30.969       20.304     1125.458      959.107      412.246        0.248        0.125       32.813       12.674        0.149      347.383       26.312      863.368
07/07/2014  08:43:00       39.523      -36.409       30.399       37.629       63.318       35.724     1415.945     4009.107     1276.213        0.526        0.335       53.737       38.175        0.505      347.330       26.221      863.369
07/07/2014  08:44:00      -11.360      -56.403        2.374       49.589       51.386       34.336     2459.048     2640.540     1178.933        0.480        0.314       57.536       32.963        0.328      346.986       25.629      863.369
07/07/2014  08:45:00        5.179      -37.519       15.868       31.549       64.383       34.144      995.310     4145.169     1165.814        0.400        0.315       37.875       40.227        1.128      347.266       26.110      863.365
07/07/2014  08:46:00        6.520      -14.321       30.053       30.684       38.622       30.514      941.530     1491.693      931.114        0.226        0.168       15.735       31.973        4.129      347.975       27.335      863.363
07/07/2014  08:47:00      -58.173      -98.109       -2.082       39.322       43.340       30.022     1546.221     1878.389      901.322        0.867        0.216      114.059       23.754        0.043      346.858       25.408      863.363
07/07/2014  08:48:00      -50.702      -42.573        3.660       36.681       34.490       23.583     1345.509     1189.551      556.178        0.374        0.155       66.205       24.540        0.137      347.074       25.779      863.369
07/07/2014  08:49:00      -35.012      -24.315        6.670       18.733       33.436       16.549      350.926     1117.955      273.853        0.180        0.087       42.627       19.559        0.211      347.114       25.850      863.375
07/07/2014  08:50:00      -77.673      -44.843       -3.663       47.307       30.540       21.308     2237.991      932.664      454.045        0.584        0.181       89.689       20.609        0.053      346.928       25.528      863.369
07/07/2014  08:51:00      -94.502      -54.921        2.716       36.287       42.373       27.998     1316.717     1795.444      783.901        0.792        0.195      109.302       19.147        0.031      346.969       25.600      863.375
07/07/2014  08:52:00      -75.592      -53.154        4.556       55.651       35.038       35.265     3097.068     1227.645     1243.654        0.706        0.278       92.409       38.858        0.177      347.038       25.719      863.386
07/07/2014  08:53:00      -59.597      -67.176        2.447       41.753       55.124       25.824     1743.306     3038.654      666.882        0.676        0.272       89.802       25.041        0.078      346.957       25.578      863.390
07/07/2014  08:54:00      -50.551      -62.436       -4.557       49.326       51.628       30.262     2433.021     2665.402      915.813        0.624        0.301       80.335       29.748        0.137      346.973       25.606      863.387
07/07/2014  08:55:00      -50.702       -1.765        1.861       40.049       30.248       19.749     1603.915      914.963      390.007        0.274        0.145       50.732       14.021        0.076      347.079       25.789      863.386
07/07/2014  08:56:00      -54.370      -50.579        3.458       44.566       37.584       24.236     1986.120     1412.566      587.380        0.476        0.199       74.258       15.822        0.045      347.232       26.052      863.384
07/07/2014  08:57:00      -91.713      -42.786       -9.001       27.352       29.113       22.172      748.124      847.561      491.612        0.620        0.104      101.202       12.652        0.016      347.071       25.775      863.374
07/07/2014  08:58:00      -70.765      -56.133        1.310       48.755       49.275       28.403     2377.068     2427.990      806.704        0.689        0.281       90.325       28.118        0.097      347.317       26.198      863.354
07/07/2014  08:59:00      -77.589      -60.859        1.145       50.696       45.447       31.259     2570.050     2065.434      977.145        0.767        0.281       98.610       27.731        0.079      347.328       26.219      863.345
07/07/2014  09:00:00      -21.699       -3.599       12.913       43.445       32.150       26.065     1887.496     1033.628      679.376        0.212        0.180       21.995       25.772        1.373      347.956       27.303      863.333
07/07/2014  09:01:00      -56.529        6.564       20.488       61.713       36.244       28.424     3808.455     1313.662      807.937        0.479        0.297       56.909       34.725        0.372      347.777       26.993      863.318
07/07/2014  09:02:00      -77.642      -34.634       14.489       73.321       48.052       30.431     5375.991     2309.001      926.023        0.802        0.431       85.016       28.480        0.112      347.602       26.691      863.314
07/07/2014  09:03:00       14.770      -14.279       32.497       26.102       47.347       36.102      681.332     2241.694     1303.352        0.285        0.211       20.544       31.687        2.379      348.211       27.742      863.306
07/07/2014  09:04:00      -15.556       -9.311       28.299       27.971       35.086       31.129      782.384     1231.028      969.018        0.206        0.149       18.130        6.958        0.147      348.227       27.771      863.307
07/07/2014  09:05:00      -31.495      -39.559       21.237       30.042       42.743       37.753      902.498     1827.004     1425.284        0.358        0.208       50.565       25.019        0.245      347.987       27.356      863.311
07/07/2014  09:06:00      -63.641      -70.478        1.679       48.933       43.247       23.000     2394.458     1870.290      528.985        0.691        0.240       94.960       22.004        0.054      347.565       26.625      863.313
07/07/2014  09:07:00      -31.460        3.704       19.217       26.656       52.557       27.804      710.539     2762.215      773.057        0.281        0.212       31.677       30.305        0.915      347.703       26.865      863.315
07/07/2014  09:08:00      -16.477      -11.121        8.961       25.993       22.557       20.767      675.624      508.803      431.286        0.105        0.081       19.879       17.324        0.759      348.250       27.810      863.314
07/07/2014  09:09:00      -30.924       -9.611        4.171       26.988       29.370       24.530      728.335      862.578      601.745        0.163        0.110       32.383       14.657        0.205      347.987       27.357      863.309
07/07/2014  09:10:00      -29.795        3.016        6.238       17.644       29.379       25.257      311.296      863.140      637.903        0.137        0.091       29.947       11.716        0.153      347.955       27.301      863.304
07/07/2014  09:11:00      -18.583      -30.614        8.433       34.217       50.311       22.925     1170.830     2531.194      525.538        0.279        0.211       35.812       19.164        0.286      347.849       27.116      863.308
07/07/2014  09:12:00       13.302      -11.374       32.867       37.539       70.600       53.268     1409.153     4984.300     2837.464        0.531        0.462       17.502       53.152        9.223      348.109       27.567      863.297
07/07/2014  09:13:00       29.384       31.559       59.765       36.166       36.906       28.295     1307.973     1362.077      800.621        0.445        0.174       43.121       11.793        0.075      347.961       27.309      863.296
07/07/2014  09:14:00       22.435       59.585       64.465       33.384       30.007       27.532     1114.482      900.415      757.989        0.549        0.139       63.669       21.106        0.110      347.765       26.971      863.277
07/07/2014  09:15:00       -7.516       32.689       33.107       19.432       19.677       17.780      377.620      387.203      316.142        0.165        0.054       33.542        9.406        0.079      347.959       27.307      863.261
07/07/2014  09:16:00       -5.127       16.768       41.537       14.508       26.742       16.361      210.468      715.144      267.670        0.161        0.060       17.535        7.679        0.192      348.429       28.119      863.249
07/07/2014  09:17:00       11.107       11.038       51.802       24.616       29.225       19.074      605.941      854.083      363.801        0.238        0.091       15.659       11.118        0.504      348.543       28.317      863.242
07/07/2014  09:18:00       -8.179      -35.895       27.611       25.968       27.625       24.878      674.331      763.166      618.896        0.209        0.103       36.815       14.070        0.146      348.162       27.657      863.237
07/07/2014  09:19:00        0.440        0.836       51.109       19.222       30.705       21.899      369.468      942.823      479.578        0.220        0.090        0.945       19.900      443.755      348.777       28.721      863.241
07/07/2014  09:20:00      -11.199       12.219       50.316       12.688       20.007       13.598      160.975      400.294      184.904        0.178        0.037       16.575       11.585        0.488      348.780       28.727      863.241
07/07/2014  09:21:00      -44.576       -0.546       13.359       36.765       33.740       25.842     1351.650     1138.390      667.788        0.266        0.158       44.579       24.352        0.298      347.990       27.360      863.232
07/07/2014  09:22:00      -58.063      -65.301        3.281       28.859       55.096       17.900      832.849     3035.532      320.414        0.592        0.209       87.382       16.174        0.034      347.610       26.705      863.226
07/07/2014  09:23:00      -37.054       23.200       14.292       31.032       25.329       24.501      962.964      641.555      600.287        0.216        0.110       43.718       17.919        0.168      347.998       27.374      863.221
07/07/2014  09:24:00      -19.764       -9.765        3.162       29.691       22.833       23.272      881.559      521.327      541.607        0.122        0.097       22.044       17.986        0.666      348.365       28.009      863.216
07/07/2014  09:25:00        4.612        6.603       29.625       20.447       19.247       17.481      418.078      370.463      305.570        0.102        0.055        8.054       10.082        1.567      348.767       28.704      863.220
07/07/2014  09:26:00      -14.926       16.433       29.039       24.850       31.142       23.636      617.513      969.806      558.676        0.174        0.107       22.200       16.685        0.565      348.668       28.532      863.216
07/07/2014  09:27:00       20.606      -57.197       17.266       55.512       59.516       44.966     3081.604     3542.130     2021.939        0.632        0.432       60.796       35.550        0.342      348.351       27.984      863.221
07/07/2014  09:28:00       31.183      -12.980       37.939       46.800       64.508       37.539     2190.199     4161.260     1409.188        0.517        0.388       33.777       24.670        0.533      348.629       28.466      863.218
07/07/2014  09:29:00        8.795       -1.280       47.523       22.515       38.333       31.651      506.904     1469.381     1001.783        0.266        0.149        8.888       17.726        3.978      348.883       28.905      863.219
07/07/2014  09:30:00       15.592        3.547       38.741       52.134       61.158       44.437     2717.903     3740.278     1974.667        0.509        0.422       15.990       41.609        6.771      348.700       28.587      863.214
07/07/2014  09:31:00       63.372     -108.793       21.521       47.580       56.460       44.786     2263.813     3187.721     2005.814        1.188        0.373      125.904       37.541        0.089      348.394       28.058      863.217
07/07/2014  09:32:00       48.078      -23.326       20.934       46.206       84.856       54.008     2135.030     7200.610     2916.840        0.777        0.613       53.438       61.238        1.313      348.442       28.142      863.220
07/07/2014  09:33:00       36.355       27.530       57.425       29.725       32.319       23.213      883.598     1044.495      538.840        0.392        0.123       45.602       18.756        0.169      348.405       28.077      863.227
07/07/2014  09:34:00       22.538       -0.499       30.487       23.567       18.674       22.642      555.385      348.725      512.667        0.143        0.071       22.544       12.625        0.314      348.422       28.107      863.218
07/07/2014  09:35:00        8.002       63.099       74.821       27.638       41.596       26.115      763.855     1730.214      682.010        0.641        0.159       63.605       19.573        0.095      348.526       28.286      863.198
07/07/2014  09:36:00       15.148       73.437       45.461       27.997       38.754       24.654      783.822     1501.878      607.811        0.529        0.145       74.983       11.778        0.025      348.321       27.931      863.197
07/07/2014  09:37:00      101.176       78.797       47.307       62.675       41.337       41.540     3928.144     1708.786     1725.580        1.302        0.368      128.240       39.918        0.097      348.204       27.729      863.190
07/07/2014  09:38:00       44.649       53.214       58.762       52.545       35.529       31.828     2760.980     1262.336     1013.030        0.666        0.252       69.464       30.809        0.197      348.288       27.875      863.187
07/07/2014  09:39:00       25.354      -49.015        8.804       18.193       50.206       27.848      330.993     2520.608      775.531        0.337        0.181       55.184       33.578        0.370      348.152       27.641      863.188
07/07/2014  09:40:00       15.034      -26.550        5.452       30.150       42.055       20.414      909.027     1768.604      416.723        0.203        0.155       30.511       23.533        0.595      348.299       27.893      863.183
07/07/2014  09:41:00       -2.288       25.409       35.237       21.969       24.375       30.106      482.631      594.133      906.366        0.194        0.099       25.512       18.895        0.549      349.043       29.182      863.171
07/07/2014  09:42:00      -28.160       42.118      -11.918       31.463       27.339       24.404      989.949      747.447      595.538        0.252        0.117       50.664       17.919        0.125      348.466       28.183      863.152
07/07/2014  09:43:00      -60.347       14.798        1.992       20.846       15.358       20.697      434.539      235.859      428.386        0.248        0.055       62.135       11.158        0.032      348.248       27.803      863.142
07/07/2014  09:44:00      -25.305       -5.199       -2.407       21.851       15.098       11.810      477.454      227.956      139.481        0.076        0.042       25.834        9.502        0.135      348.446       28.148      863.136
07/07/2014  09:45:00      -32.013      -13.950       36.388       37.124       44.679       27.459     1378.177     1996.248      753.987        0.334        0.206       34.921       12.129        0.121      348.902       28.937      863.118
07/07/2014  09:46:00       58.526       48.637       35.514       26.179       24.508       29.074      685.337      600.634      845.294        0.459        0.107       76.098       16.268        0.046      348.736       28.650      863.106
07/07/2014  09:47:00       90.657       72.661        9.421       72.529       45.781       35.513     5260.427     2095.908     1261.191        1.110        0.431      116.183        9.956        0.007      348.937       28.998      863.090
07/07/2014  09:48:00      135.380      116.664       20.286       45.606       36.156       41.560     2079.886     1307.263     1727.200        1.873        0.256      178.713       12.422        0.005      348.422       28.106      863.088
07/07/2014  09:49:00      147.926       98.625        4.992       70.253       56.016       45.867     4935.537     3137.832     2103.824        2.090        0.509      177.789       23.277        0.017      348.645       28.490      863.084
07/07/2014  09:50:00      113.299       80.034        5.165       50.931       48.642       40.695     2593.977     2366.012     1656.115        1.294        0.331      138.716       21.346        0.024      348.413       28.092      863.088
07/07/2014  09:51:00       62.235       60.810        9.964       57.280       37.548       35.634     3280.952     1409.868     1269.765        0.681        0.298       87.012       34.034        0.153      348.684       28.560      863.080
07/07/2014  09:52:00       41.813       10.238       35.233       43.736       54.333       31.883     1912.829     2952.026     1016.555        0.449        0.294       43.048       13.563        0.099      348.766       28.703      863.060
07/07/2014  09:53:00       92.787       74.583       18.568       64.907       44.305       44.006     4212.962     1962.922     1936.531        1.131        0.406      119.046       37.120        0.097      348.746       28.667      863.055
07/07/2014  09:54:00       93.419       36.935       13.859       53.564       49.292       34.438     2869.104     2429.746     1185.979        0.838        0.324      100.456       27.254        0.074      349.074       29.235      863.050
07/07/2014  09:55:00       75.899       39.492       18.366       51.863       32.857       29.963     2689.811     1079.605      897.789        0.616        0.233       85.559       18.044        0.044      349.088       29.261      863.048
07/07/2014  09:56:00       41.488       33.023       12.391       43.614       27.962       24.008     1902.190      781.882      576.395        0.311        0.163       53.026       10.695        0.041      348.826       28.805      863.050
07/07/2014  09:57:00        1.835       59.083        1.729       19.178       43.094       26.035      367.795     1857.087      677.835        0.320        0.145       59.112       27.741        0.220      349.334       29.686      863.043
07/07/2014  09:58:00       90.992       53.960       23.746       59.146       29.248       33.288     3498.262      855.467     1108.093        0.861        0.273      105.788       23.270        0.048      349.040       29.176      863.043
07/07/2014  09:59:00      120.859       60.337       22.567       62.205       48.032       43.460     3869.496     2307.034     1888.774        1.341        0.403      135.083       35.170        0.068      348.591       28.398      863.035
07/07/2014  10:00:00      101.451       79.422       54.381       47.298       39.708       38.918     2237.118     1576.689     1514.574        1.244        0.266      128.842       26.604        0.043      348.634       28.474      863.044
07/07/2014  10:01:00       19.283       18.956       47.738       27.468       31.172       33.404      754.518      971.677     1115.860        0.293        0.142       27.040       25.313        0.876      349.075       29.237      863.044
07/07/2014  10:02:00       20.307        0.494       39.159       29.367       48.389       25.387      862.420     2341.468      644.511        0.290        0.192       20.313       17.512        0.743      349.151       29.369      863.037
07/07/2014  10:03:00      -17.672        7.486        2.597       22.414       46.487       20.650      502.374     2160.999      426.429        0.173        0.154       19.192       22.900        1.424      349.170       29.401      863.039
07/07/2014  10:04:00      -52.168       -4.974        0.652       15.130       24.685       16.432      228.921      609.364      270.015        0.193        0.055       52.405       11.148        0.045      348.836       28.823      863.031
07/07/2014  10:05:00      -48.436       -2.652        3.030       21.008       14.589       15.936      441.343      212.826      253.948        0.164        0.045       48.509        9.111        0.035      348.906       28.945      863.017
07/07/2014  10:06:00      -19.348       24.682       20.098       17.031       22.853       20.057      290.052      522.252      402.284        0.130        0.061       31.362       14.777        0.222      349.514       29.997      863.019
07/07/2014  10:07:00       19.583       31.537       30.482       98.175       32.000       38.795     9638.256     1023.995     1505.065        0.724        0.608       37.123       16.151        0.189      349.279       29.590      862.996
07/07/2014  10:08:00       47.777       41.706       82.418       52.136       56.930       35.125     2718.127     3241.034     1233.761        0.900        0.360       63.420       36.872        0.338      349.076       29.239      863.001
07/07/2014  10:09:00       56.873       72.227       75.207       53.234       48.047       43.479     2833.853     2308.534     1890.402        1.057        0.352       91.931       38.426        0.175      348.816       28.788      862.997
07/07/2014  10:10:00      115.831       93.058       65.483       85.098       43.699       47.025     7241.690     1909.634     2211.372        1.886        0.568      148.582       45.966        0.096      348.729       28.636      863.003
07/07/2014  10:11:00       93.891       80.590       56.247       68.919       48.911       56.687     4749.835     2392.285     3213.419        1.441        0.518      123.734       35.268        0.081      348.833       28.817      862.996
07/07/2014  10:12:00      137.798       69.592       30.125       72.062       48.235       39.585     5192.943     2326.599     1566.951        1.691        0.454      154.374       26.809        0.030      348.705       28.593      863.003
07/07/2014  10:13:00       75.343       58.488       69.024       74.975       53.044       45.380     5621.296     2813.691     2059.370        1.218        0.525       95.380       39.951        0.175      348.699       28.585      862.997
07/07/2014  10:14:00       45.362       69.244       65.160       43.270       35.734       35.348     1872.253     1276.890     1249.479        0.775        0.220       82.780       24.959        0.091      348.718       28.618      862.996
07/07/2014  10:15:00       80.840       53.273       42.936       87.904       36.972       37.429     7727.092     1366.944     1400.901        1.085        0.525       96.815       41.197        0.181      348.806       28.770      862.986
07/07/2014  10:16:00      123.741       78.230       41.236       57.247       49.130       39.117     3277.195     2413.788     1530.131        1.518        0.361      146.396       27.396        0.035      348.795       28.751      862.966
07/07/2014  10:17:00       37.025       23.921       36.662       49.224       53.168       34.185     2423.016     2826.841     1168.639        0.485        0.321       44.081       34.914        0.627      348.895       28.926      862.952
07/07/2014  10:18:00       49.276       14.785       31.945       44.610       33.093       33.884     1990.058     1095.123     1148.143        0.395        0.212       51.447       19.898        0.150      348.897       28.929      862.935
07/07/2014  10:19:00       24.622       34.816       37.892       32.327       41.439       31.075     1045.015     1717.224      965.640        0.349        0.186       42.642       18.259        0.183      348.993       29.095      862.912
07/07/2014  10:20:00       51.325       62.247       81.991       64.063       62.886       43.531     4104.016     3954.667     1894.947        1.159        0.498       80.678       39.253        0.237      349.027       29.155      862.899
07/07/2014  10:21:00       77.545       76.895       64.209       59.215       43.503       39.485     3506.424     1892.540     1559.067        1.150        0.348      109.207       31.227        0.082      348.726       28.633      862.891
07/07/2014  10:22:00      130.974       73.144       25.840       46.282       42.447       44.600     2142.044     1801.729     1989.167        1.455        0.297      150.014       29.406        0.038      348.914       28.958      862.884
07/07/2014  10:23:00      100.831       30.176       25.383       71.910       49.889       41.497     5170.978     2488.912     1722.035        1.055        0.469      105.250       34.714        0.109      349.098       29.276      862.877
07/07/2014  10:24:00       74.081       43.782       50.119       51.481       68.825       40.350     2650.287     4736.903     1628.142        0.946        0.451       86.052       31.512        0.134      349.163       29.389      862.877
07/07/2014  10:25:00       36.256       11.325       57.915       53.269       89.344       53.231     2837.556     7982.354     2833.566        0.922        0.683       37.984       52.362        1.900      349.360       29.730      862.872
07/07/2014  10:26:00       39.628       61.257       93.092       87.913       80.230       55.739     7728.725     6436.825     3106.862        1.563        0.864       72.958       52.395        0.516      349.202       29.455      862.876
07/07/2014  10:27:00       53.917      -74.502        1.913       53.264       48.843       32.338     2837.063     2385.595     1045.723        0.736        0.313       91.965       23.066        0.063      349.071       29.231      862.886
07/07/2014  10:28:00       52.577     -105.215       12.636       57.628       72.413       44.247     3321.008     5243.697     1957.806        1.226        0.526      117.621       52.081        0.196      349.350       29.714      862.881
07/07/2014  10:29:00       91.148     -182.760      -15.686       62.375       67.937       37.984     3890.694     4615.500     1442.812        2.595        0.497      204.228       37.969        0.035      348.887       28.909      862.866
07/07/2014  10:30:00       28.946        0.919       36.457       37.770       43.368       35.661     1426.600     1880.811     1271.672        0.337        0.229       28.961       25.796        0.793      349.856       30.592      862.863
07/07/2014  10:31:00       -5.328       12.632       90.096       44.335      119.193       77.409     1965.564    14207.083     5992.077        1.523        1.108       13.710       87.706       40.926      349.672       30.272      862.857
07/07/2014  10:32:00       40.625       81.635       89.622       57.259       62.698       71.350     3278.546     3930.986     5090.766        1.432        0.615       91.185       62.503        0.470      349.284       29.599      862.866
07/07/2014  10:33:00       76.070       54.903       35.754       89.369       75.413       38.133     7986.892     5687.101     1454.123        1.260        0.756       93.813       34.742        0.137      349.468       29.918      862.865
07/07/2014  10:34:00      139.977       83.843       18.834       68.415       57.441       38.759     4680.660     3299.499     1502.274        1.823        0.474      163.166       27.140        0.028      349.276       29.585      862.873
07/07/2014  10:35:00       27.627       30.396        2.568       60.617       36.218       27.747     3674.431     1311.731      769.869        0.372        0.288       41.075       29.609        0.520      349.514       29.999      862.866
07/07/2014  10:36:00       11.543      -20.230       17.955       43.224       59.118       35.767     1868.307     3494.937     1279.253        0.375        0.332       23.292       21.311        0.837      349.786       30.470      862.867
07/07/2014  10:37:00      118.575       93.616       84.509       89.644       80.364       66.653     8036.042     6458.302     4442.624        2.445        0.947      151.076       60.926        0.163      349.343       29.700      862.866
07/07/2014  10:38:00       51.630       88.786      103.537       67.903       61.828       48.992     4610.789     3822.666     2400.261        1.605        0.542      102.707       40.460        0.155      349.226       29.499      862.844
07/07/2014  10:39:00       81.768       90.937       72.824       86.592       54.183       50.070     7498.217     2935.821     2506.965        1.660        0.647      122.293       48.233        0.156      349.285       29.599      862.834
07/07/2014  10:40:00       25.163       36.245       57.244       58.381       73.956       49.691     3408.330     5469.556     2469.207        0.828        0.567       44.124       39.213        0.790      349.391       29.784      862.824
07/07/2014  10:41:00       52.269        3.822       65.299       52.510       85.073       58.139     2757.289     7237.372     3380.183        1.019        0.669       52.409       63.885        1.486      349.328       29.676      862.824
07/07/2014  10:42:00       79.386      107.045       95.790       57.197       57.921       42.187     3271.444     3354.859     1779.767        1.767        0.420      133.269       31.408        0.056      349.130       29.333      862.819
07/07/2014  10:43:00       59.334       64.663       87.416       42.486       52.004       26.525     1805.056     2704.375      703.576        1.028        0.261       87.760       18.580        0.045      349.251       29.543      862.815
07/07/2014  10:44:00       54.346      -42.863       24.453       35.320       43.454       39.664     1247.535     1888.244     1573.216        0.505        0.235       69.215       33.183        0.230      349.177       29.414      862.823
07/07/2014  10:45:00       30.509      -18.091       26.899       41.466       27.118       29.505     1719.419      735.400      870.563        0.265        0.166       35.470       26.236        0.547      349.273       29.580      862.817
07/07/2014  10:46:00       33.880      -56.231       31.717       44.017       76.402       38.249     1937.539     5837.334     1463.015        0.728        0.462       65.649       36.118        0.303      349.265       29.566      862.805
07/07/2014  10:47:00       34.498      -10.896       31.644       45.303       40.356       44.527     2052.381     1628.642     1982.612        0.399        0.283       36.178       21.339        0.348      349.393       29.787      862.806
07/07/2014  10:48:00       61.016       30.265       76.269       90.830       84.353       52.867     8250.153     7115.472     2794.965        1.431        0.908       68.109       65.097        0.914      349.300       29.626      862.818
07/07/2014  10:49:00       12.918       61.804       76.578       26.406       36.281       21.849      697.262     1316.346      477.391        0.617        0.125       63.139       15.712        0.062      349.250       29.540      862.823
07/07/2014  10:50:00       64.414       90.042       78.087       56.571       34.726       32.484     3200.238     1205.871     1055.205        1.191        0.273      110.710       24.265        0.048      349.179       29.416      862.837
07/07/2014  10:51:00       69.739       55.833       34.873       70.275       47.370       42.077     4938.588     2243.925     1770.476        0.907        0.448       89.335       31.328        0.123      349.719       30.353      862.839
07/07/2014  10:52:00      127.712      102.385       33.875       79.786       49.011       61.991     6365.764     2402.104     3842.935        2.027        0.631      163.686       47.265        0.083      349.719       30.351      862.837
07/07/2014  10:53:00       79.470        6.091       49.063       60.187       63.206       36.531     3622.439     3994.955     1334.523        0.885        0.448       79.703       39.388        0.244      349.442       29.874      862.840
07/07/2014  10:54:00       30.700      -53.304       34.753       39.214       66.074       38.659     1537.714     4365.738     1494.508        0.619        0.370       61.513       36.908        0.360      349.808       30.509      862.813
07/07/2014  10:55:00       43.622      -29.453       52.546       55.473       74.215       53.303     3077.306     5507.823     2841.239        0.848        0.571       52.634       45.517        0.748      349.826       30.541      862.800
07/07/2014  10:56:00       70.685       53.088       89.537       81.276       86.156       68.807     6605.853     7422.869     4734.434        1.729        0.938       88.401       68.595        0.602      349.565       30.086      862.793
07/07/2014  10:57:00      118.551      106.677       76.763       94.568       85.833       71.364     8943.179     7367.360     5092.786        2.636        1.070      159.482       60.928        0.146      349.324       29.666      862.779
07/07/2014  10:58:00       62.918      -17.036       26.728       70.320       87.344       46.141     4944.876     7629.019     2129.028        0.983        0.735       65.184       47.132        0.523      349.851       30.584      862.760
07/07/2014  10:59:00      164.173       89.719       45.900      115.163       70.593       67.412    13262.626     4983.416     4544.348        2.995        1.140      187.089       50.343        0.072      349.747       30.399      862.746
07/07/2014  11:00:00      145.227       74.984       26.922       41.539       60.610       44.355     1725.460     3673.529     1967.328        1.740        0.368      163.443       24.633        0.023      349.390       29.781      862.741
07/07/2014  11:01:00       45.053       30.472       53.463       54.123       56.970       39.763     2929.346     3245.546     1581.101        0.678        0.388       54.390       35.529        0.427      349.653       30.239      862.715
07/07/2014  11:02:00       10.696       33.753       88.591       37.448       44.586       31.168     1402.356     1987.953      971.452        0.673        0.218       35.407       31.859        0.810      350.081       30.981      862.700
07/07/2014  11:03:00       40.328       45.154       34.279       46.802       41.113       32.678     2190.472     1690.244     1067.823        0.489        0.247       60.541       28.132        0.216      349.934       30.727      862.693
07/07/2014  11:04:00      159.812       91.503       60.299       96.899       78.609       64.846     9389.329     6179.327     4204.955        2.866        0.989      184.154       55.400        0.091      349.897       30.661      862.688
07/07/2014  11:05:00       40.366       35.881       35.003       69.651       63.650       53.947     4851.323     4051.370     2910.301        0.798        0.591       54.008       16.142        0.089      349.938       30.734      862.697
07/07/2014  11:06:00      153.953      100.047       12.843       82.747       57.923       48.728     6847.108     3355.016     2374.371        2.322        0.629      183.606       23.041        0.016      349.594       30.135      862.697
07/07/2014  11:07:00       88.696       69.914        4.607       49.328       35.552       42.684     2433.236     1263.940     1821.943        0.915        0.276      112.938       25.828        0.052      349.510       29.991      862.699
07/07/2014  11:08:00       69.691       47.424       24.384       45.452       39.399       30.544     2065.910     1552.315      932.966        0.613        0.228       84.296       22.220        0.069      349.840       30.563      862.675
07/07/2014  11:09:00       37.164       33.158       23.632       53.068       46.351       34.086     2816.207     2148.446     1161.881        0.458        0.306       49.806       16.868        0.115      350.434       31.596      862.669
07/07/2014  11:10:00       15.292       82.561        2.627       46.308       73.790       37.624     2144.401     5444.908     1415.582        0.803        0.450       83.965       44.499        0.281      350.227       31.235      862.678
07/07/2014  11:11:00       29.929       46.423       49.041       49.197       44.690       36.800     2420.340     1997.201     1354.234        0.561        0.289       55.234       26.220        0.225      350.396       31.529      862.662
07/07/2014  11:12:00       25.816       67.914       85.394       49.621       44.933       30.760     2462.239     2018.960      946.205        0.900        0.271       72.656       26.220        0.130      350.161       31.120      862.653
07/07/2014  11:13:00       41.361       26.268       42.753       33.252       49.081       29.886     1105.696     2408.934      893.161        0.432        0.220       48.997       25.512        0.271      349.879       30.632      862.644
07/07/2014  11:14:00       62.359       12.706       31.562       60.523       52.198       34.822     3663.044     2724.604     1212.551        0.632        0.380       63.640       31.374        0.243      350.083       30.986      862.629
07/07/2014  11:15:00      100.678       74.409       50.543       69.239       60.816       53.120     4794.082     3698.614     2821.754        1.477        0.566      125.191       31.341        0.063      350.056       30.936      862.625
07/07/2014  11:16:00       87.658       56.217       47.082       94.985       75.394       64.286     9022.078     5684.199     4132.647        1.595        0.942      104.136       48.516        0.217      350.263       31.298      862.622
07/07/2014  11:17:00      126.145      107.306       91.637       84.373       66.493       72.537     7118.805     4421.318     5261.627        2.631        0.840      165.611       52.464        0.100      349.774       30.447      862.616
07/07/2014  11:18:00      117.559       84.975       58.481       95.069       60.115       63.721     9038.192     3613.757     4060.395        2.058        0.836      145.055       55.407        0.146      349.666       30.261      862.643
07/07/2014  11:19:00      121.607       83.387       33.661       51.886       38.889       42.719     2692.191     1512.384     1824.926        1.445        0.301      147.451       33.073        0.050      349.667       30.261      862.642
07/07/2014  11:20:00      101.023       39.290       30.981       72.285       54.882       45.764     5225.059     3011.981     2094.369        1.152        0.517      108.395       37.038        0.117      349.913       30.691      862.649
07/07/2014  11:21:00      139.091      105.980        9.831       75.596       60.322       47.310     5714.779     3638.730     2238.202        2.113        0.580      174.866       34.489        0.039      349.636       30.207      862.651
07/07/2014  11:22:00       71.130       82.345       11.110       44.804       50.145       41.746     2007.364     2514.521     1742.739        0.911        0.313      108.812       23.378        0.046      350.014       30.866      862.644
07/07/2014  11:23:00       77.823       63.208       46.913       48.167       37.398       43.739     2320.025     1398.574     1913.127        0.894        0.282      100.258       32.118        0.103      349.853       30.587      862.656
07/07/2014  11:24:00       21.055       13.036       30.786       37.436       25.627       29.236     1401.461      656.732      854.729        0.224        0.146       24.764       13.099        0.280      350.577       31.844      862.635
07/07/2014  11:25:00       85.263       62.514       11.666       69.384       49.010       41.632     4814.130     2401.949     1733.208        1.013        0.447      105.725       17.148        0.026      350.292       31.348      862.626
07/07/2014  11:26:00      114.575       76.180       22.485       71.298       44.268       54.508     5083.341     1959.659     2971.122        1.472        0.501      137.590       43.100        0.098      349.932       30.722      862.620
07/07/2014  11:27:00      111.478      102.993       64.067       67.254       34.655       50.898     4523.156     1200.988     2590.591        1.773        0.416      151.772       38.304        0.064      349.980       30.806      862.615
07/07/2014  11:28:00       85.694       83.726        8.649       61.930       52.075       37.158     3835.356     2711.772     1380.711        1.118        0.396      119.806       21.276        0.032      349.810       30.510      862.616
07/07/2014  11:29:00       72.185       48.820       23.057       63.627       34.351       44.281     4048.346     1180.009     1960.810        0.766        0.359       87.144       23.412        0.072      350.024       30.883      862.601
07/07/2014  11:30:00       55.142       60.874       61.487       87.454       49.249       50.114     7648.275     2425.501     2511.423        1.155        0.629       82.136       49.099        0.357      350.123       31.053      862.597
07/07/2014  11:31:00      111.574       77.647       24.774       58.740       60.389       49.468     3450.406     3646.830     2447.111        1.432        0.477      135.933       31.609        0.054      349.932       30.722      862.599
07/07/2014  11:32:00      126.089      105.086       16.629       49.243       55.107       47.177     2424.860     3036.737     2225.626        1.745        0.384      164.139       40.355        0.060      350.179       31.152      862.599
07/07/2014  11:33:00      185.586      106.682       18.776       70.798       58.250       54.615     5012.349     3393.026     2982.775        2.878        0.569      214.064       25.762        0.014      349.939       30.731      862.585
07/07/2014  11:34:00       75.063       72.584       17.170       42.015       31.625       36.707     1765.248     1000.134     1347.428        0.765        0.206      104.417       26.507        0.064      350.070       30.963      862.570
07/07/2014  11:35:00       17.779        2.989       38.459       40.717       62.957       45.050     1657.887     3963.625     2029.492        0.473        0.383       18.028       41.595        5.323      350.516       31.740      862.554
07/07/2014  11:36:00       25.961      -16.530       19.824       46.441       69.110       48.920     2156.769     4776.174     2393.118        0.533        0.466       30.777       42.944        1.947      350.419       31.569      862.551
07/07/2014  11:37:00       64.866       42.212       53.038       32.933       51.285       32.258     1084.584     2630.122     1040.600        0.678        0.238       77.391       14.211        0.034      350.186       31.165      862.556
07/07/2014  11:38:00       40.168       70.265       85.436       46.123       53.793       54.743     2127.293     2893.712     2996.749        1.093        0.401       80.936       42.585        0.277      350.254       31.283      862.548
07/07/2014  11:39:00      100.191       40.560       60.596       47.137       58.848       44.392     2221.857     3463.092     1970.625        1.150        0.383      108.090       28.974        0.072      349.991       30.827      862.547
07/07/2014  11:40:00      116.180       48.910       21.016       74.438       57.391       53.690     5541.064     3293.708     2882.631        1.402        0.586      126.056       46.977        0.139      350.272       31.314      862.529
07/07/2014  11:41:00       87.555       41.855       14.342       55.000       46.762       36.607     3024.947     2186.661     1340.038        0.809        0.328       97.045       28.356        0.085      350.671       32.008      862.518
07/07/2014  11:42:00       36.573        1.706        8.834       60.514       44.177       33.692     3661.978     1951.619     1135.179        0.408        0.337       36.613       12.072        0.109      350.708       32.074      862.496
07/07/2014  11:43:00       62.610       33.304        8.043       53.984       47.378       39.636     2914.233     2244.649     1570.986        0.591        0.336       70.917       20.407        0.083      350.705       32.068      862.483
07/07/2014  11:44:00       47.658       96.398        6.976       54.967       54.912       36.451     3021.316     3015.328     1328.680        0.949        0.368      107.535       31.381        0.085      350.208       31.204      862.471
07/07/2014  11:45:00      131.814       84.993       28.033       44.774       42.266       35.866     2004.693     1786.446     1286.355        1.523        0.254      156.840       28.131        0.032      349.980       30.805      862.459
07/07/2014  11:46:00       36.277       95.630       -3.852       51.179       60.484       31.954     2619.295     3658.335     1021.062        0.889        0.365      102.280       26.500        0.067      350.210       31.207      862.444
07/07/2014  11:47:00      -30.324      138.961       -1.393       28.862       60.435       25.903      832.986     3652.367      670.975        1.269        0.258      142.232       27.587        0.038      350.107       31.028      862.445
07/07/2014  11:48:00      -31.209       89.322        6.686       37.537       51.649       31.483     1409.028     2667.633      991.205        0.703        0.253       94.618       26.664        0.079      350.520       31.747      862.434
07/07/2014  11:49:00      -37.715       94.435        8.359       24.223       54.707       25.004      586.748     2992.865      625.208        0.731        0.210      101.687       24.499        0.058      350.399       31.535      862.437
07/07/2014  11:50:00      -11.380       24.142       27.373       35.564       39.249       21.416     1264.799     1540.497      458.625        0.236        0.163       26.690       16.807        0.397      350.696       32.052      862.420
07/07/2014  11:51:00     -133.898       42.105        2.286       43.177       37.453       17.722     1864.236     1402.764      314.086        1.164        0.179      140.362       17.877        0.016      349.574       30.099      862.418
07/07/2014  11:52:00      -38.058        1.656        2.760       22.056       19.666       19.590      486.458      386.751      383.779        0.136        0.063       38.094       13.769        0.131      350.137       31.080      862.401
07/07/2014  11:53:00      -36.005       13.853        9.862       17.929       15.452       19.501      321.431      238.771      380.272        0.126        0.047       38.578        6.657        0.030      350.263       31.301      862.402
07/07/2014  11:54:00       22.281       24.687       27.320       22.031       26.070       18.638      485.359      679.645      347.370        0.168        0.076       33.255       13.065        0.154      350.858       32.334      862.391
07/07/2014  11:55:00        2.233       19.459        4.753       40.575       39.631       22.646     1646.304     1570.615      512.843        0.207        0.186       19.587       17.263        0.777      350.466       31.650      862.389
07/07/2014  11:56:00       19.663       50.233       -0.837       43.863       66.882       28.285     1923.985     4473.148      800.021        0.505        0.360       53.945       28.349        0.276      350.396       31.528      862.373
07/07/2014  11:57:00      -22.280      128.097        8.407       35.600       63.380       40.674     1267.346     4016.988     1654.359        1.196        0.347      130.020       38.138        0.086      350.336       31.425      862.373
07/07/2014  11:58:00       -9.492       37.919       27.222       50.168       51.465       30.758     2516.863     2648.611      946.055        0.419        0.306       39.088       28.487        0.531      350.710       32.076      862.357
07/07/2014  11:59:00      -36.702       81.476       12.515       41.277       56.090       37.676     1703.823     3146.072     1419.502        0.720        0.313       89.361       32.685        0.134      350.299       31.360      862.350
07/07/2014  12:00:00      -71.284       35.753        2.415       26.921       27.441       28.677      724.750      753.036      822.384        0.433        0.115       79.747       18.098        0.052      350.029       30.892      862.345
07/07/2014  12:01:00      -70.627       -1.158       -0.466       25.215       26.886       16.153      635.810      722.835      260.918        0.330        0.081       70.636       12.363        0.031      349.994       30.831      862.327
07/07/2014  12:02:00      -31.974        5.326       18.145       28.248       23.493       20.686      797.950      551.912      427.914        0.158        0.089       32.414       21.039        0.421      350.578       31.848      862.322
07/07/2014  12:03:00      -13.446       13.235        2.378       18.809       18.968       20.717      353.773      359.771      429.212        0.075        0.057       18.867        7.604        0.162      350.695       32.052      862.310
07/07/2014  12:04:00      -90.058        8.544      -11.424       33.741       22.950       15.411     1138.465      526.718      237.484        0.511        0.095       90.463        4.529        0.003      350.111       31.035      862.299
07/07/2014  12:05:00      -67.381      -29.393       -0.913       43.455       35.119       19.719     1888.338     1233.338      388.843        0.446        0.176       73.513       17.418        0.056      350.156       31.112      862.300
07/07/2014  12:06:00       -6.149       -6.895       22.913       12.372       23.623       16.522      153.054      558.047      272.979        0.080        0.049        9.238       13.494        2.134      351.073       32.708      862.287
07/07/2014  12:07:00       19.617        4.729       13.553       24.091       38.394       19.377      580.394     1474.130      375.452        0.151        0.121       20.179        9.733        0.233      350.283       31.333      862.268
07/07/2014  12:08:00        9.424       36.187        7.877       22.241       21.854       20.934      494.677      477.614      438.234        0.144        0.071       37.394       10.147        0.074      350.010       30.857      862.265
07/07/2014  12:09:00        3.722        6.056       24.967       15.461       11.718        9.542      239.048      137.303       91.043        0.057        0.023        7.109        4.923        0.480      351.036       32.644      862.259
07/07/2014  12:10:00       11.009        2.726       -2.177       29.028       18.590       15.216      842.603      345.604      231.512        0.078        0.071       11.342       16.021        1.995      350.324       31.405      862.237
07/07/2014  12:11:00       12.485       -5.006       32.511       24.490       39.130       17.922      599.759     1531.158      321.189        0.184        0.123       13.451       18.691        1.931      350.942       32.481      862.231
07/07/2014  12:12:00        4.389        7.645       26.429       25.146       16.631       16.757      632.327      276.587      280.803        0.098        0.059        8.815        6.362        0.521      351.424       33.321      862.213
07/07/2014  12:13:00       34.425       -1.039       27.306       67.812       50.154       36.656     4598.444     2515.402     1343.665        0.519        0.423       34.440       35.426        1.058      351.141       32.828      862.200
07/07/2014  12:14:00       40.293       14.040       65.912       61.691       70.368       52.391     3805.733     4951.715     2744.785        0.883        0.575       42.669       48.674        1.301      350.949       32.492      862.185
07/07/2014  12:15:00       33.143       -0.086       46.456       45.293       63.321       50.829     2051.411     4009.548     2583.621        0.595        0.432       33.143       42.027        1.608      351.046       32.661      862.171
07/07/2014  12:16:00       28.359      114.269      150.159       66.486       86.071       55.321     4420.449     7408.141     3060.414        2.565        0.744      117.735       53.656        0.208      350.592       31.869      862.172
07/07/2014  12:17:00      148.741      109.484       73.233       68.962       50.445       51.987     4755.810     2544.704     2702.599        2.474        0.500      184.690       45.236        0.060      350.377       31.494      862.176
07/07/2014  12:18:00      103.591       44.545       69.616       72.682       71.684       63.203     5282.724     5138.625     3994.664        1.599        0.721      112.762       51.638        0.210      350.570       31.832      862.179
07/07/2014  12:19:00      157.480       75.259       23.014       42.377       48.725       36.842     1795.779     2374.142     1357.352        1.826        0.276      174.539       13.951        0.006      350.127       31.060      862.194
07/07/2014  12:20:00      152.898       88.883       29.266       71.084       51.855       35.863     5052.970     2688.896     1286.170        2.058        0.451      176.856       33.987        0.037      350.079       30.975      862.183
07/07/2014  12:21:00       79.408       56.282       -3.863       46.315       51.671       29.698     2145.046     2669.923      881.989        0.759        0.285       97.331       23.785        0.060      350.394       31.525      862.187
07/07/2014  12:22:00      -19.215       86.488       -5.907       29.163       59.231       24.151      850.459     3508.353      583.274        0.641        0.247       88.597       29.674        0.112      350.703       32.065      862.183
07/07/2014  12:23:00       39.029       45.171       17.991       37.925       34.199       24.307     1438.335     1169.564      590.843        0.354        0.160       59.697       21.888        0.134      351.044       32.659      862.178
07/07/2014  12:24:00       20.890       28.834       17.309       30.470       28.137       24.826      928.431      791.694      616.311        0.195        0.117       35.606       13.137        0.136      351.057       32.681      862.172
07/07/2014  12:25:00       33.715       31.695       17.553       43.843       34.831       29.590     1922.221     1213.208      875.556        0.323        0.201       46.273       24.227        0.274      351.206       32.939      862.177
07/07/2014  12:26:00        0.977       29.829       60.043       36.527       41.695       35.843     1334.236     1738.466     1284.696        0.443        0.218       29.845       29.837        0.999      351.604       33.634      862.173
07/07/2014  12:27:00      154.066      109.932       80.191       73.895       58.131       69.591     5460.446     3379.222     4842.839        2.796        0.684      189.265       48.129        0.065      350.447       31.614      862.162
07/07/2014  12:28:00       91.097       62.930       36.641       64.750       58.329       71.441     4192.521     3402.248     5103.868        1.315        0.635      110.720       50.042        0.204      350.492       31.696      862.165
07/07/2014  12:29:00      155.088       88.563       46.454       82.798       60.430       54.779     6855.468     3651.819     3000.708        2.378        0.675      178.593       48.013        0.072      350.415       31.560      862.156
07/07/2014  12:30:00      128.740       71.327       35.528       94.209       67.867       55.278     8875.380     4605.970     3055.640        1.973        0.827      147.179       43.604        0.088      350.579       31.847      862.153
07/07/2014  12:31:00      134.241      105.670       15.602       97.277       79.923       44.615     9462.907     6387.629     1990.542        2.363        0.892      170.841       25.855        0.023      350.627       31.929      862.141
07/07/2014  12:32:00      175.614       99.964        7.121       47.590       31.500       33.369     2264.808      992.237     1113.497        2.263        0.219      202.072       14.443        0.005      350.299       31.359      862.151
07/07/2014  12:33:00       43.922       68.897       11.923       42.671       66.710       38.643     1820.776     4450.161     1493.304        0.729        0.388       81.707       34.572        0.179      350.663       31.994      862.137
07/07/2014  12:34:00       36.221       24.107      -20.697       36.645       43.961       22.309     1342.832     1932.552      497.712        0.305        0.189       43.510       15.752        0.131      350.459       31.639      862.145
07/07/2014  12:35:00      -43.412       83.450       -6.129       31.019      101.610       29.961      962.177    10324.590      897.644        1.053        0.609       94.066       32.750        0.121      350.731       32.114      862.124
07/07/2014  12:36:00      -59.458       74.074      -15.271       41.451       40.795       25.291     1718.196     1664.262      639.619        0.664        0.201       94.986       21.118        0.049      350.475       31.668      862.120
07/07/2014  12:37:00     -103.460        4.027      -18.621       27.995       17.642       14.632      783.710      311.245      214.090        0.619        0.065      103.539       12.213        0.014      350.172       31.140      862.100
07/07/2014  12:38:00      -99.357       20.895       -6.522       24.970       14.626       15.392      623.488      213.933      236.921        0.571        0.054      101.530        9.716        0.009      350.268       31.305      862.084
07/07/2014  12:39:00      -87.240       33.791       -5.765       42.942       31.404       21.279     1844.052      986.212      452.787        0.603        0.164       93.556       19.833        0.045      350.687       32.036      862.057
07/07/2014  12:40:00      -51.181        6.299       -4.773       41.104       29.560       23.326     1689.531      873.810      544.112        0.289        0.155       51.567        9.489        0.034      350.718       32.090      862.033
07/07/2014  12:41:00       -4.686       21.603       -8.667       18.452       30.762       29.223      340.465      946.272      853.998        0.135        0.107       22.106       20.674        0.875      351.255       33.028      862.014
07/07/2014  12:42:00      -26.780       20.498        4.342       33.233       27.867       23.249     1104.440      776.543      540.525        0.179        0.121       33.725       19.618        0.338      351.354       33.200      862.001
07/07/2014  12:43:00      -16.425       42.410       30.377       24.679       30.906       28.431      609.054      955.200      808.294        0.268        0.119       45.480        8.067        0.031      351.640       33.698      861.988
07/07/2014  12:44:00        0.267      -20.129       25.991       18.605       41.601       20.990      346.152     1730.627      440.570        0.180        0.126       20.131       19.472        0.936      352.216       34.705      861.968
07/07/2014  12:45:00       40.256     -111.501        0.901       53.944       39.835       48.410     2909.938     1586.792     2343.573        1.045        0.342      118.545       41.207        0.121      350.446       31.616      861.952
07/07/2014  12:46:00       -0.278       -0.517       25.375       44.599       38.634       26.140     1989.072     1492.580      683.306        0.240        0.208        0.587       28.997     2438.703      351.384       33.251      861.933
07/07/2014  12:47:00        9.181        7.326       20.177       35.356       23.850       15.945     1250.081      568.832      254.250        0.131        0.104       11.745       13.077        1.240      351.320       33.141      861.914
07/07/2014  12:48:00       38.726       11.440       31.459       40.844       33.531       30.805     1668.252     1124.351      948.952        0.318        0.187       40.381       18.374        0.207      350.965       32.521      861.901
07/07/2014  12:49:00      103.031       51.954       42.994       76.995       68.959       38.931     5928.281     4755.333     1515.643        1.368        0.610      115.389       41.642        0.130      351.222       32.969      861.880
07/07/2014  12:50:00      109.025       65.275       18.900       96.807       62.812       47.245     9371.634     3945.321     2232.096        1.602        0.777      127.072       41.153        0.105      351.306       33.114      861.860
07/07/2014  12:51:00      178.939      120.527       22.094       90.992       65.132       68.379     8279.520     4242.225     4675.734        3.211        0.860      215.745       52.226        0.059      351.154       32.846      861.846
07/07/2014  12:52:00       91.191       75.751       41.624       71.321       54.319       64.441     5086.621     2950.515     4152.628        1.399        0.609      118.550       50.739        0.183      351.080       32.720      861.841
07/07/2014  12:53:00       -7.472       27.447       47.440       34.586       44.071       32.997     1196.189     1942.293     1088.795        0.364        0.211       28.446       23.474        0.681      351.086       32.731      861.831
07/07/2014  12:54:00      116.889       61.214       43.761       96.826       67.973       45.802     9375.301     4620.320     2097.781        1.771        0.805      131.947       41.881        0.101      351.114       32.778      861.812
07/07/2014  12:55:00       60.259       19.758       31.020       72.981       50.064       38.817     5326.228     2506.394     1506.763        0.716        0.467       63.416       34.437        0.295      351.199       32.928      861.803
07/07/2014  12:56:00       45.820      -30.207       19.155       67.862       73.808       40.122     4605.313     5447.574     1609.797        0.752        0.583       54.881       35.598        0.421      351.230       32.983      861.797
07/07/2014  12:57:00       23.918      -40.110       12.183       50.330       75.529       47.799     2533.103     5704.661     2284.779        0.642        0.526       46.699       41.764        0.800      351.205       32.938      861.779
07/07/2014  12:58:00       39.042     -114.815        0.789       61.235      104.503       62.338     3749.752    10920.833     3886.017        1.663        0.928      121.272       57.528        0.225      351.100       32.754      861.757
07/07/2014  12:59:00      147.983     -145.386       14.704       82.021       72.438       62.848     6727.400     5247.267     3949.874        2.959        0.796      207.451       62.056        0.089      350.906       32.414      861.740
07/07/2014  13:00:00       29.694      -60.626       36.648       58.871       73.668       42.883     3465.767     5426.917     1838.933        0.831        0.537       67.508       33.069        0.240      351.185       32.904      861.740
07/07/2014  13:01:00      106.488      -80.488       33.428       96.265       99.725       66.428     9266.928     9945.037     4412.701        2.128        1.181      133.484       77.917        0.341      350.997       32.576      861.732
07/07/2014  13:02:00      179.787     -225.283      -37.309       53.558       57.891       30.799     2868.486     3351.330      948.578        4.582        0.358      288.229       30.750        0.011      350.650       31.967      861.728
07/07/2014  13:03:00      113.821     -233.729      -20.487       90.577       92.151       51.465     8204.185     8491.784     2648.665        4.367        0.967      259.970       46.449        0.032      350.836       32.292      861.715
07/07/2014  13:04:00       44.491      -65.257       24.732       62.152      134.919       55.872     3862.875    18203.150     3121.726        1.601        1.259       78.980       75.508        0.914      351.138       32.821      861.732
07/07/2014  13:05:00       69.091     -134.943      -16.269       54.563       40.920       29.177     2977.092     1674.484      851.287        1.437        0.275      151.602       17.376        0.013      350.595       31.876      861.747
07/07/2014  13:06:00       -1.200        2.970       35.594       39.299       57.991       44.707     1544.383     3362.917     1998.754        0.409        0.345        3.204       49.631      239.996      351.248       33.015      861.748
07/07/2014  13:07:00       90.157       85.455       82.213       90.494       48.062       48.994     8189.151     2309.986     2400.425        1.754        0.645      124.221       41.181        0.110      350.974       32.534      861.756
07/07/2014  13:08:00       77.064       46.935       60.950       82.856       76.821       43.526     6865.160     5901.420     1894.535        1.326        0.733       90.232       38.621        0.183      351.102       32.757      861.753
07/07/2014  13:09:00      183.879      107.512       22.200      105.058       98.087       60.288    11037.131     9621.147     3634.669        3.507        1.215      213.003       49.242        0.053      350.944       32.481      861.755
07/07/2014  13:10:00      202.573      116.818       39.094       92.154       62.738       45.330     8492.389     3936.005     2054.804        3.534        0.724      233.842       25.617        0.012      350.810       32.247      861.779
07/07/2014  13:11:00      116.705       34.799       62.208      107.130       70.421       54.340    11476.867     4959.168     2952.829        1.904        0.969      121.782       46.387        0.145      350.867       32.348      861.774
07/07/2014  13:12:00      121.873       67.865       70.135       76.299       65.281       60.347     5821.502     4261.563     3641.764        1.905        0.686      139.494       39.544        0.080      350.750       32.144      861.768
07/07/2014  13:13:00       97.181       64.701       74.605       87.426       66.942       70.856     7643.285     4481.263     5020.533        1.817        0.857      116.749       57.582        0.243      350.760       32.162      861.751
07/07/2014  13:14:00      100.554       22.634       69.825       64.236       76.354       51.500     4126.297     5830.005     2652.207        1.405        0.630      103.070       52.251        0.257      350.671       32.008      861.746
07/07/2014  13:15:00       93.145      -11.069       49.767      102.371       59.554       45.978    10479.907     3546.678     2113.959        1.371        0.807       93.800       54.645        0.339      350.796       32.225      861.729
07/07/2014  13:16:00       44.440       66.568       90.171       55.381      101.661       57.506     3067.039    10334.933     3306.967        1.562        0.835       80.039       67.203        0.705      350.854       32.326      861.709
07/07/2014  13:17:00      162.141     -202.985      -23.697       52.014       47.372       35.588     2705.508     2244.124     1266.525        3.713        0.311      259.794       29.760        0.013      350.655       31.976      861.688
07/07/2014  13:18:00       61.801      -54.915       30.488       80.398       99.499       66.312     6463.823     9900.096     4397.307        1.426        1.038       82.674       62.724        0.576      351.074       32.709      861.677
07/07/2014  13:19:00       10.329      -23.176       23.618       40.757       45.780       38.743     1661.115     2095.786     1501.012        0.323        0.263       25.373       32.098        1.600      351.173       32.883      861.674
07/07/2014  13:20:00       23.001       33.452       61.955       54.556       59.395       37.214     2976.305     3527.796     1384.866        0.669        0.394       40.597       40.012        0.971      351.196       32.921      861.667
07/07/2014  13:21:00        8.153       86.417        6.274       59.247       52.477       36.953     3510.242     2753.832     1365.509        0.760        0.381       86.800       38.740        0.199      350.875       32.362      861.680
07/07/2014  13:22:00      -32.463      128.258      -13.260       25.738       47.217       22.722      662.445     2229.450      516.300        1.054        0.170      132.302       26.183        0.039      350.721       32.096      861.687
07/07/2014  13:23:00      -19.749       68.457       -2.267       16.053       40.025       22.135      257.700     1601.980      489.976        0.372        0.117       71.249       19.456        0.075      351.015       32.605      861.667
07/07/2014  13:24:00        0.683      -13.711       -5.411       34.490       32.371       16.705     1189.532     1047.904      279.074        0.137        0.126       13.728        9.847        0.514      350.829       32.284      861.638
07/07/2014  13:25:00        5.176       30.987        0.066       32.675       31.820       25.860     1067.668     1012.504      668.722        0.187        0.137       31.417       18.646        0.352      350.896       32.401      861.617
07/07/2014  13:26:00      -34.760      124.969       -2.118       29.221       91.238       25.144      853.868     8324.357      632.244        1.332        0.491      129.713       35.084        0.073      351.011       32.600      861.612
07/07/2014  13:27:00       63.427       55.999       16.090       80.998       72.836       39.331     6560.672     5305.050     1546.912        1.041        0.671       84.610       19.794        0.055      350.925       32.451      861.606
07/07/2014  13:28:00      125.083       69.199       10.939       54.182       45.977       36.964     2935.680     2113.915     1366.351        1.348        0.321      142.948       23.616        0.027      350.927       32.454      861.597
07/07/2014  13:29:00      156.096       89.246       37.229       75.271       55.677       47.195     5665.736     3099.876     2227.338        2.235        0.550      179.808       22.779        0.016      350.921       32.443      861.579
07/07/2014  13:30:00      208.772      131.743       21.444       75.041       53.961       43.499     5631.080     2911.834     1892.163        3.592        0.522      246.864       34.985        0.020      350.804       32.235      861.572
07/07/2014  13:31:00      115.121       68.246       13.055       71.976       47.314       51.725     5180.474     2238.603     2675.519        1.409        0.505      133.829       42.518        0.101      350.718       32.089      861.565
07/07/2014  13:32:00       38.035       26.744       37.735       34.316       30.832       21.268     1177.578      950.628      452.340        0.308        0.129       46.496       17.648        0.144      350.650       31.971      861.552
07/07/2014  13:33:00       17.262       -5.109       21.564       22.734       21.909       14.597      516.817      480.013      213.070        0.100        0.060       18.002       13.824        0.590      351.013       32.604      861.528
07/07/2014  13:34:00       10.067        3.884       21.108       19.501       11.804       15.555      380.295      139.340      241.959        0.066        0.038       10.790        8.090        0.562      351.215       32.954      861.505
07/07/2014  13:35:00        2.740       -2.408        8.062        9.420       15.437       11.669       88.744      238.300      136.166        0.027        0.023        3.648        5.903        2.618      351.188       32.909      861.501
07/07/2014  13:36:00        3.621       -9.968       15.218       19.502       30.774       23.676      380.331      947.051      560.561        0.112        0.094       10.605       20.980        3.914      351.222       32.968      861.492
07/07/2014  13:37:00      -44.220       18.392       13.725       27.415       13.284       17.662      751.585      176.476      311.933        0.186        0.062       47.892       19.282        0.162      351.037       32.645      861.480
07/07/2014  13:38:00      -30.085       15.261        8.512       18.499       38.915       20.190      342.225     1514.342      407.621        0.174        0.113       33.735       21.811        0.418      351.224       32.972      861.467
07/07/2014  13:39:00      -48.967        9.628       -5.628       22.427       28.140       12.444      502.979      791.881      154.865        0.199        0.072       49.904        6.287        0.016      351.091       32.739      861.464
07/07/2014  13:40:00       31.183       33.170       24.243       24.406       37.470       19.745      595.664     1404.032      389.854        0.252        0.119       45.526       12.064        0.070      351.070       32.704      861.457
07/07/2014  13:41:00       34.407       30.527       20.944       26.430       25.033       24.838      698.522      626.648      616.935        0.225        0.097       45.997       13.179        0.082      351.176       32.887      861.436
07/07/2014  13:42:00       24.392       31.918       16.087       19.156       24.977       21.935      366.946      623.864      481.144        0.167        0.074       40.172       18.374        0.209      351.172       32.882      861.426
07/07/2014  13:43:00       12.036       19.793      -12.799       27.461       20.696       16.647      754.109      428.310      277.132        0.108        0.073       23.166       14.896        0.413      350.974       32.536      861.424
07/07/2014  13:44:00       43.278       -8.558      -11.563       27.082       32.421       19.300      733.431     1051.110      372.495        0.212        0.108       44.116       18.662        0.179      350.865       32.345      861.426
07/07/2014  13:45:00       46.668      -22.733        7.263       23.923       23.852       23.993      572.314      568.918      575.667        0.223        0.086       51.910       10.848        0.044      350.802       32.238      861.417
07/07/2014  13:46:00       36.581        8.322       37.797       33.374       31.012       23.550     1113.828      961.756      554.601        0.273        0.132       37.515       22.539        0.361      350.537       31.776      861.396
07/07/2014  13:47:00       34.902      -78.520       -2.829       39.734       43.235       40.868     1578.813     1869.245     1670.162        0.625        0.256       85.927       28.170        0.107      350.643       31.960      861.385
07/07/2014  13:48:00       15.442      -10.683       21.801       28.161       37.847       26.400      793.058     1432.378      696.966        0.187        0.146       18.777       30.174        2.582      351.227       32.976      861.379
07/07/2014  13:49:00       12.292      -15.935       17.326       18.395       35.932       18.491      338.394     1291.141      341.899        0.134        0.099       20.125       21.071        1.096      351.328       33.153      861.377
07/07/2014  13:50:00        5.019       16.186       23.684       14.705       25.996       15.943      216.223      675.779      254.171        0.100        0.057       16.947       16.334        0.929      351.110       32.774      861.380
07/07/2014  13:51:00        8.534      -35.719       -0.769       31.427       25.766       24.813      987.655      663.878      615.678        0.181        0.113       36.725       14.140        0.148      350.858       32.334      861.384
07/07/2014  13:52:00      -20.362      -28.308      -10.764       36.234       20.219       17.901     1312.933      408.789      320.432        0.169        0.102       34.870       18.214        0.273      350.911       32.427      861.375
07/07/2014  13:53:00        8.649      -25.618        3.840       28.294       34.223       22.765      800.542     1171.224      518.264        0.162        0.125       27.039       19.391        0.514      351.139       32.823      861.372
07/07/2014  13:54:00      -14.316      -18.950       32.004       29.438       36.010       25.440      866.621     1296.691      647.203        0.220        0.141       23.749       16.127        0.461      351.313       33.126      861.360
07/07/2014  13:55:00      -41.402      -53.849       10.431       31.625       30.355       24.865     1000.171      921.447      618.275        0.363        0.127       67.925       16.345        0.058      351.307       33.116      861.361
07/07/2014  13:56:00      -11.440      -16.138        7.369       24.125       22.748       14.841      582.011      517.485      220.264        0.088        0.066       19.781        7.297        0.136      351.702       33.804      861.362
07/07/2014  13:57:00      -23.294      -26.401       -1.374       41.102       27.899       25.021     1689.361      778.342      626.032        0.217        0.155       35.208       13.651        0.150      351.341       33.176      861.357
07/07/2014  13:58:00        4.535      -56.401       13.548       68.770       98.339       54.068     4729.355     9670.583     2923.333        1.035        0.866       56.583       44.414        0.616      351.220       32.964      861.342
07/07/2014  13:59:00      100.687     -124.505        5.742       74.127      103.124       59.074     5494.775    10634.583     3489.722        2.264        0.981      160.122       70.904        0.196      351.239       32.994      861.339
07/07/2014  14:00:00       76.222     -133.790      -10.469       44.472       85.755       53.913     1977.769     7353.966     2906.652        1.803        0.612      153.979       60.399        0.154      351.120       32.788      861.341
07/07/2014  14:01:00       23.657       67.147       91.786       44.582       55.739       30.876     1987.579     3106.816      953.297        0.977        0.302       71.193       36.042        0.256      351.019       32.615      861.327
07/07/2014  14:02:00       14.883       41.680       89.423       45.324       71.095       47.418     2054.222     5054.485     2248.477        0.965        0.468       44.258       54.748        1.530      350.673       32.011      861.308
07/07/2014  14:03:00       85.974      -72.601       15.069       66.641      115.518       62.384     4440.963    13344.381     3891.814        1.728        1.084      112.528       74.194        0.435      351.111       32.772      861.296
07/07/2014  14:04:00      122.701      -95.292      -10.763       65.269       54.576       51.652     4260.059     2978.521     2667.905        1.708        0.495      155.358       36.920        0.056      351.179       32.891      861.299
07/07/2014  14:05:00      102.343     -139.264      -26.075       59.156       45.729       34.661     3499.392     2091.167     1201.387        1.867        0.340      172.825       34.359        0.040      351.129       32.805      861.311
07/07/2014  14:06:00        2.770      -42.936      -13.074       52.447       53.360       28.200     2750.645     2847.294      795.239        0.421        0.320       43.026       36.650        0.726      351.244       33.007      861.316
07/07/2014  14:07:00      -23.230      -40.605        0.313       29.340       47.276       30.147      860.853     2234.973      908.854        0.310        0.200       46.780       27.494        0.345      351.456       33.376      861.314
07/07/2014  14:08:00      -37.729      -13.628       13.789       32.441       28.231       23.172     1052.403      797.016      536.962        0.209        0.119       40.115       19.905        0.246      351.424       33.321      861.309
07/07/2014  14:09:00      -28.787      -29.180        3.266       34.060       30.712       21.966     1160.107      943.230      482.518        0.214        0.129       40.990       19.637        0.230      351.416       33.305      861.293
07/07/2014  14:10:00      -38.352      -65.102        7.439       25.744       28.879       18.631      662.771      833.968      347.131        0.380        0.092       75.559       13.278        0.031      351.241       33.001      861.271
07/07/2014  14:11:00     -130.073      -89.615       -2.468       73.895       60.455       27.694     5460.500     3654.849      766.975        1.742        0.494      157.955       13.055        0.007      351.135       32.816      861.236
07/07/2014  14:12:00     -191.853      -19.351      -30.657       67.213       53.504       28.581     4517.573     2862.638      816.886        2.316        0.410      192.826       24.827        0.017      351.179       32.890      861.222
07/07/2014  14:13:00     -136.352      -27.059      -10.120       58.429       40.539       27.361     3413.955     1643.373      748.598        1.262        0.290      139.011       20.684        0.022      351.189       32.910      861.216
07/07/2014  14:14:00        1.773      -32.072       34.889       18.849       38.975       19.698      355.285     1519.014      388.016        0.226        0.113       32.121       18.690        0.339      351.507       33.464      861.215
07/07/2014  14:15:00        4.267      -43.999        9.786       26.752       60.379       28.108      715.661     3645.571      790.061        0.360        0.258       44.206       28.011        0.402      351.049       32.667      861.201
07/07/2014  14:16:00      -42.029      -72.450       27.762       42.863       51.886       35.318     1837.269     2692.121     1247.368        0.678        0.289       83.758       18.884        0.051      351.065       32.694      861.176
07/07/2014  14:17:00       27.421     -104.633        4.506       57.635       72.737       63.872     3321.755     5290.626     4079.628        1.220        0.635      108.167       53.199        0.242      351.465       33.391      861.157
07/07/2014  14:18:00        0.299      -17.800       58.709       44.800       64.390       52.907     2007.051     4146.035     2799.132        0.636        0.448       17.802       43.379        5.938      351.561       33.558      861.135
07/07/2014  14:19:00      -10.989      -36.785        5.408       32.543       35.342       34.564     1059.025     1249.088     1194.691        0.250        0.175       38.391       29.674        0.597      351.425       33.322      861.120
07/07/2014  14:20:00      -32.406      -45.597      -21.045       38.232       32.279       35.678     1461.676     1041.929     1272.944        0.367        0.189       55.940       21.707        0.151      351.433       33.337      861.113
07/07/2014  14:21:00      -25.566      -34.506        3.917       40.825       28.072       19.752     1666.673      788.030      390.134        0.235        0.142       42.946       19.394        0.204      351.507       33.465      861.115
07/07/2014  14:22:00      -49.343      -85.287       12.365       54.771       37.607       28.968     2999.899     1414.298      839.124        0.756        0.263       98.532       28.061        0.081      351.487       33.431      861.106
07/07/2014  14:23:00      -19.220      -73.046      -24.490       38.083       36.138       21.459     1450.306     1305.923      460.505        0.476        0.161       75.532        9.295        0.015      351.375       33.234      861.100
07/07/2014  14:24:00      -56.298      -74.575        3.843       59.310       44.501       25.672     3517.688     1980.378      659.030        0.745        0.308       93.439       28.133        0.091      351.495       33.441      861.096
07/07/2014  14:25:00      -27.578      -67.939        9.518       43.772       29.850       22.262     1916.013      891.046      495.614        0.438        0.165       73.323       11.226        0.023      351.576       33.585      861.083
07/07/2014  14:26:00       -0.206      -32.006        5.280       20.245       30.558       19.762      409.852      933.801      390.545        0.139        0.087       32.006       20.392        0.406      351.465       33.392      861.081
07/07/2014  14:27:00       -3.384      -49.662       20.721       26.595       47.039       29.869      707.317     2212.677      892.163        0.336        0.191       49.777       19.508        0.154      351.397       33.271      861.072
07/07/2014  14:28:00       30.458      -79.055        3.410       34.456       31.900       24.625     1187.220     1017.621      606.389        0.500        0.141       84.720       12.641        0.022      351.402       33.283      861.068
07/07/2014  14:29:00       59.889     -104.981      -16.793       43.174       49.145       28.591     1863.986     2415.250      817.460        0.999        0.255      120.862       24.054        0.040      351.320       33.139      861.060
07/07/2014  14:30:00       41.482      -78.749        4.499       28.345       33.889       24.986      803.453     1148.495      624.294        0.526        0.129       89.007       14.936        0.028      351.251       33.019      861.055
07/07/2014  14:31:00       19.203      -78.419        1.234       23.754       37.480       30.036      564.241     1404.723      902.174        0.469        0.144       80.736       19.553        0.059      351.400       33.279      861.048
07/07/2014  14:32:00       30.374     -100.018       -9.505       24.178       38.036       19.041      584.582     1446.769      362.549        0.670        0.120      104.529       13.939        0.018      351.378       33.241      861.041
07/07/2014  14:33:00        5.968      -84.155       -0.813       21.254       33.415       23.791      451.751     1116.593      566.011        0.463        0.107       84.367       11.223        0.018      351.453       33.369      861.023
07/07/2014  14:34:00       61.438      -86.836       -0.586       33.980       34.247       25.979     1154.642     1172.852      674.901        0.716        0.150      106.373       24.845        0.055      351.416       33.306      861.014
07/07/2014  14:35:00      -29.265       -0.060       18.632       53.901       25.146       24.693     2905.308      632.337      609.753        0.267        0.207       29.265       30.791        1.107      351.662       33.737      860.995
07/07/2014  14:36:00      -46.256      -36.942       -6.849       36.481       34.993       24.319     1330.835     1224.500      591.417        0.335        0.157       59.197       15.364        0.067      351.515       33.479      860.984
07/07/2014  14:37:00        3.864      -96.756       -1.995       34.516       21.679       19.423     1191.374      469.980      377.268        0.571        0.102       96.833       14.020        0.021      351.379       33.241      860.965
07/07/2014  14:38:00      -63.839      -27.007        3.917       37.542       32.485       23.501     1409.381     1055.267      552.311        0.392        0.151       69.316       21.308        0.094      351.466       33.394      860.952
07/07/2014  14:39:00     -100.472      -52.088        3.522       86.221       65.523       42.175     7434.129     4293.323     1778.721        1.316        0.675      113.172       41.139        0.132      351.527       33.498      860.946
07/07/2014  14:40:00     -181.320      -67.796      -14.934       50.784       47.719       28.158     2578.964     2277.074      792.897        2.167        0.282      193.580       24.910        0.017      351.461       33.383      860.931
07/07/2014  14:41:00     -163.528      -40.406       -9.701       57.422       36.444       31.302     3297.252     1328.141      979.832        1.704        0.280      168.446       29.318        0.030      351.560       33.557      860.916
07/07/2014  14:42:00     -207.117     -102.897       -6.509       91.906       56.266       36.987     8446.798     3165.823     1368.019        3.325        0.649      231.269       32.183        0.019      351.503       33.455      860.906
07/07/2014  14:43:00     -168.258      -92.429       -0.512       95.598       67.851       51.410     9138.926     4603.789     2642.996        2.662        0.819      191.974       53.788        0.079      351.520       33.485      860.894
07/07/2014  14:44:00     -106.545     -134.964        2.166       78.632       55.748       45.206     6183.043     3107.787     2043.573        2.045        0.567      171.951       54.200        0.099      351.502       33.454      860.884
07/07/2014  14:45:00     -197.336      -15.688      -10.352       94.852       82.201       41.140     8996.852     6757.012     1692.527        2.837        0.872      197.959       46.903        0.056      351.697       33.795      860.853
07/07/2014  14:46:00     -196.259      -66.827       -6.287      122.624       78.908       52.492    15036.634     6226.529     2755.410        3.352        1.201      207.324       53.212        0.066      351.822       34.014      860.825
07/07/2014  14:47:00     -237.758     -110.080        4.826      115.524       98.199       52.145    13345.807     9643.114     2719.106        4.718        1.285      262.005       50.678        0.037      351.842       34.046      860.786
07/07/2014  14:48:00     -207.454      -46.495        3.144      150.524       73.185       50.453    22657.394     5356.078     2545.489        3.788        1.528      212.600       58.353        0.075      351.904       34.153      860.757
07/07/2014  14:49:00     -142.984      -38.329        9.003       68.595       63.528       41.368     4705.278     4035.788     1711.326        1.622        0.523      148.032       33.917        0.052      352.179       34.638      860.727
07/07/2014  14:50:00     -199.023     -101.422       -8.146      149.013      106.384       65.205    22204.833    11317.577     4251.678        4.386        1.889      223.375       59.863        0.072      351.907       34.160      860.705
07/07/2014  14:51:00     -231.297     -163.662        2.046      129.593       95.695       57.546    16794.255     9157.503     3311.501        5.477        1.463      283.344       56.614        0.040      351.972       34.273      860.689
07/07/2014  14:52:00     -219.810     -137.025        3.857      111.602       87.830       50.951    12454.985     7714.115     2595.976        4.493        1.138      259.021       55.687        0.046      351.753       33.891      860.679
07/07/2014  14:53:00     -102.192      -68.486       -6.321       71.904       53.217       32.870     5170.248     2832.007     1080.423        1.213        0.454      123.019       28.201        0.053      351.757       33.901      860.695
07/07/2014  14:54:00       53.044       72.267        9.432       41.240       41.872       36.421     1700.728     1753.274     1326.457        0.645        0.239       89.645       23.170        0.067      352.207       34.687      860.738
07/07/2014  14:55:00       21.380      155.648      -12.733       71.361       83.387       38.518     5092.425     6953.419     1483.600        1.919        0.676      157.110       46.357        0.087      352.304       34.856      860.756
07/07/2014  14:56:00      101.794      186.494       -0.924       73.123      110.840       70.660     5346.963    12285.423     4992.897        3.388        1.131      212.467       71.271        0.113      351.930       34.201      860.763
07/07/2014  14:57:00      134.750      126.884       -5.919       62.237       53.927       41.771     3873.431     2908.169     1744.852        2.141        0.426      185.087       40.188        0.047      351.794       33.962      860.762
07/07/2014  14:58:00      100.959       81.256       -4.658       73.828       78.297       44.938     5450.524     6130.484     2019.460        1.521        0.680      129.596       31.056        0.057      351.751       33.886      860.755
07/07/2014  14:59:00      106.756       99.245       12.346       59.710       49.688       45.362     3565.304     2468.911     2057.723        1.474        0.405      145.762       28.785        0.039      351.902       34.154      860.731
07/07/2014  15:00:00       65.010       48.023       20.524       46.498       52.600       33.802     2162.081     2766.754     1142.572        0.651        0.304       80.824       20.725        0.066      351.817       34.006      860.715
07/07/2014  15:01:00      197.719      127.738       22.452       75.615       68.029       58.072     5717.696     4627.955     3372.360        3.481        0.686      235.393       49.524        0.044      351.807       33.984      860.719
07/07/2014  15:02:00      169.858      145.797       -8.847       90.562       73.787       50.903     8201.538     5444.524     2591.135        3.321        0.812      223.849       29.955        0.018      351.901       34.148      860.680
07/07/2014  15:03:00       28.578      170.537      -20.452       58.282       99.109       43.962     3396.821     9822.665     1932.665        2.273        0.758      172.915       54.062        0.098      351.997       34.318      860.652
07/07/2014  15:04:00       71.358      140.673       -2.865       68.142      113.660       48.529     4643.269    12918.523     2355.096        2.240        0.996      157.737       47.115        0.089      352.099       34.495      860.651
07/07/2014  15:05:00      110.493       49.921       37.517       81.879       56.087       53.495     6704.114     3145.773     2861.736        1.441        0.636      121.247       33.604        0.077      352.046       34.404      860.659
07/07/2014  15:06:00      136.223       82.507       50.848       62.928       53.160       61.596     3959.920     2825.966     3794.074        1.926        0.529      159.261       35.808        0.051      352.115       34.524      860.639
07/07/2014  15:07:00      163.186       74.880        5.763       73.251       61.236       45.149     5365.755     3749.854     2038.440        2.171        0.558      179.545       14.842        0.007      352.127       34.545      860.628
07/07/2014  15:08:00      131.968       93.312       41.672       81.747       71.541       68.700     6682.567     5118.095     4719.683        2.219        0.826      161.625       49.346        0.093      352.224       34.713      860.622
07/07/2014  15:09:00      132.399      201.818       -4.610      149.829      138.967       90.734    22448.835    19311.951     8232.641        5.413        2.500      241.371       79.910        0.110      352.006       34.332      860.619
07/07/2014  15:10:00      190.857      166.410        2.812      133.600      113.539      111.987    17849.051    12891.159    12541.019        5.370        2.164      253.217       82.386        0.106      351.936       34.210      860.618
07/07/2014  15:11:00      112.482      199.997       -5.503      100.200      152.191       70.621    10040.080    23162.181     4987.297        4.543        1.909      229.458       85.379        0.138      352.063       34.432      860.609
07/07/2014  15:12:00      112.506      155.639        3.086      118.445      103.347       71.174    14029.331    10680.650     5065.696        3.333        1.489      192.044       60.306        0.099      352.159       34.600      860.603
07/07/2014  15:13:00      187.387      127.838       32.899       95.141       72.445       59.098     9051.801     5248.245     3492.523        3.516        0.890      226.841       41.026        0.033      352.105       34.506      860.605
07/07/2014  15:14:00      250.096      102.003       32.564      137.236       79.869       79.618    18833.619     6379.051     6338.952        5.278        1.578      270.098       70.377        0.068      351.981       34.287      860.599
07/07/2014  15:15:00      212.812      134.170       44.868      114.383      112.272       79.270    13083.567    12605.087     6283.767        4.863        1.599      251.576       48.360        0.037      352.020       34.356      860.598
07/07/2014  15:16:00      165.802      103.406       14.431      101.727       97.269       68.363    10348.480     9461.336     4673.560        3.143        1.224      195.405       63.221        0.105      352.020       34.357      860.585
07/07/2014  15:17:00      166.699      103.867       18.087      113.021       87.626       52.616    12773.767     7678.341     2768.404        3.106        1.161      196.410       24.285        0.015      352.165       34.611      860.572
07/07/2014  15:18:00      217.478      127.624        7.948      154.205      106.509       77.588    23779.188    11344.219     6019.841        5.239        2.057      252.159       60.231        0.057      352.195       34.662      860.579
07/07/2014  15:19:00      111.698       95.359       19.091       94.400       75.366       63.751     8911.433     5680.003     4064.251        2.029        0.933      146.866       52.108        0.126      352.032       34.377      860.589
07/07/2014  15:20:00       45.720       74.596        3.804       44.823       81.474       49.243     2009.081     6637.934     2424.877        0.937        0.554       87.492       51.585        0.348      352.043       34.400      860.554
07/07/2014  15:21:00        5.341       75.802       -7.391       30.037       37.782       23.676      902.197     1427.463      560.559        0.436        0.145       75.990       20.380        0.072      352.086       34.477      860.526
07/07/2014  15:22:00       33.150       -0.090        3.964       32.802       21.586       15.834     1075.959      465.953      250.721        0.145        0.090       33.150       13.157        0.158      352.045       34.405      860.490
07/07/2014  15:23:00       22.317      -29.571        1.132       35.259       45.211       37.769     1243.230     2044.027     1426.503        0.304        0.236       37.047       23.769        0.412      352.416       35.054      860.463
07/07/2014  15:24:00       17.156       18.879       13.548       40.964       26.022       32.844     1678.080      677.132     1078.748        0.213        0.172       25.510       15.644        0.376      352.395       35.017      860.450
07/07/2014  15:25:00        4.641      100.832       -7.547       49.743       67.333       29.551     2474.396     4533.699      873.271        0.906        0.394      100.938       21.805        0.047      352.414       35.051      860.440
07/07/2014  15:26:00       24.881      123.924      -17.481       50.881       77.005       35.827     2588.851     5929.782     1283.549        1.304        0.490      126.397       33.043        0.068      352.414       35.048      860.433
07/07/2014  15:27:00      176.007      134.768       29.146       98.153       69.908       67.143     9633.987     4887.154     4508.210        3.451        0.951      221.678       41.016        0.034      352.683       35.516      860.457
07/07/2014  15:28:00      320.319      243.370       31.306      170.853      120.683       90.363    29190.773    14564.466     8165.529       10.736        2.596      402.285       51.617        0.016      352.359       34.950      860.425
07/07/2014  15:29:00      222.935      141.363       39.539      128.157      115.212       89.061    16424.267    13273.772     7931.839        5.443        1.881      263.977       52.376        0.039      352.529       35.247      860.417
07/07/2014  15:30:00      200.462      123.308       67.626      147.265      133.651       79.305    21686.917    17862.629     6289.357        5.289        2.292      235.350       66.957        0.081      352.491       35.180      860.372
07/07/2014  15:31:00      147.366      168.405        8.588      127.432      109.248       97.957    16238.908    11935.143     9595.491        4.395        1.888      223.779       81.825        0.134      352.677       35.506      860.410
07/07/2014  15:32:00      223.685      187.008       29.806      146.527      105.077       96.320    21470.228    11041.260     9277.609        6.384        2.089      291.560       65.193        0.050      352.329       34.896      860.386
07/07/2014  15:33:00      102.655      160.937        9.521      111.899      131.985       68.867    12521.354    17419.978     4742.662        3.560        1.734      190.889       65.695        0.118      352.353       34.939      860.376
07/07/2014  15:34:00      137.305      162.890       24.295      121.137      129.959       94.651    14674.155    16889.343     8958.872        4.324        2.026      213.040       87.725        0.170      352.369       34.967      860.363
07/07/2014  15:35:00      252.892      171.260       33.571      132.308       98.661       87.912    17505.335     9733.897     7728.478        6.468        1.748      305.425       63.506        0.043      352.456       35.120      860.344
07/07/2014  15:36:00      203.718      135.922       14.325      139.900       90.785       74.551    19571.998     8241.869     5557.791        4.677        1.669      244.899       56.115        0.053      352.713       35.569      860.344
07/07/2014  15:37:00      245.671      148.125       30.419      108.166       95.272       73.812    11699.829     9076.808     5448.221        5.472        1.311      286.871        9.007        0.001      352.853       35.813      860.343
07/07/2014  15:38:00      398.434      209.774       79.128      183.385      142.718      112.588    33629.985    20368.384    12675.996       13.783        3.334      450.283       75.057        0.028      352.587       35.346      860.309
07/07/2014  15:39:00      400.356      227.949       54.795      173.572      162.375      101.979    30127.125    26365.497    10399.733       14.106        3.345      460.701       77.773        0.028      352.591       35.353      860.278
07/07/2014  15:40:00      448.754      263.393       74.723      198.086      169.694      104.601    39238.148    28795.885    10941.473       17.764        3.949      520.343       22.991        0.002      352.396       35.014      860.286
07/07/2014  15:41:00      315.196      207.628       65.431      202.307      148.294      106.256    40928.157    21991.097    11290.364       11.046        3.710      377.436       82.449        0.048      352.384       34.992      860.325
07/07/2014  15:42:00      370.807      212.632       69.395      162.502      153.691      112.391    26406.957    23620.936    12631.754       12.508        3.133      427.446       52.051        0.015      352.464       35.132      860.335
07/07/2014  15:43:00      378.446      171.319       92.097      227.860      187.031      145.795    51920.052    34980.423    21256.170       14.459        5.408      415.418       96.768        0.054      352.104       34.503      860.335
07/07/2014  15:44:00      229.014      168.888       60.271      180.430      111.058      106.956    32554.875    12333.941    11439.689        7.046        2.816      284.553       64.177        0.051      352.145       34.575      860.379
07/07/2014  15:45:00      396.137      230.860       65.367      207.769      149.910      100.548    43168.060    22472.866    10109.991       14.511        3.788      458.499       74.648        0.027      352.181       34.636      860.380
07/07/2014  15:46:00      408.191      240.568       33.203      161.673      116.166       96.170    26138.092    13494.572     9248.728       13.723        2.444      473.807       60.764        0.016      352.053       34.414      860.406
07/07/2014  15:47:00      194.753      110.404       62.424      160.131      116.515       85.272    25641.949    13575.738     7271.373        5.024        2.324      223.870       63.563        0.081      352.059       34.426      860.442
07/07/2014  15:48:00       71.167       75.125       16.917       99.711       63.389       49.029     9942.378     4018.157     2403.794        1.368        0.818      103.481       22.752        0.048      352.328       34.898      860.437
07/07/2014  15:49:00       88.853       64.549       34.501       75.524       49.247       39.260     5703.923     2425.271     1541.359        1.146        0.484      109.825       21.117        0.037      352.193       34.663      860.405
07/07/2014  15:50:00      169.083       56.631       31.309      101.760       90.004       66.989    10355.033     8100.645     4487.531        2.786        1.147      178.315       27.453        0.024      352.132       34.553      860.399
07/07/2014  15:51:00      219.497      109.730       54.440      156.148       95.866       72.314    24382.308     9190.298     5229.267        5.099        1.940      245.396       47.069        0.037      352.273       34.798      860.382
07/07/2014  15:52:00      198.502      142.650       21.610      128.987       96.163       80.947    16637.679     9247.331     6552.401        4.632        1.622      244.443       62.211        0.065      352.183       34.640      860.372
07/07/2014  15:53:00      196.563      115.627       76.853      156.399      133.045      100.080    24460.766    17700.935    10015.917        5.504        2.609      228.050       93.188        0.167      352.302       34.849      860.339
07/07/2014  15:54:00      184.454      134.353       98.807      136.547      118.520      109.200    18644.979    14047.106    11924.662        5.322        2.231      228.197       83.681        0.134      352.340       34.917      860.354
07/07/2014  15:55:00      225.340      142.573       95.130      189.424      141.185      111.375    35881.428    19933.199    12404.413        7.418        3.411      266.656       87.876        0.109      352.263       34.781      860.366
07/07/2014  15:56:00      270.508      163.877       75.938      223.789      125.312       99.399    50081.339    15703.019     9880.164        9.072        3.783      316.275      103.767        0.108      352.233       34.729      860.366
07/07/2014  15:57:00      319.607      146.353       58.695      164.640      159.137      102.566    27106.382    25324.529    10519.818        9.497        3.148      351.523       61.430        0.031      352.337       34.910      860.377
07/07/2014  15:58:00      322.365      208.387       58.186      175.144      124.069       94.026    30675.456    15393.154     8840.921       10.281        2.745      383.855       42.168        0.012      351.984       34.292      860.375
07/07/2014  15:59:00      233.646      152.756       28.584      130.369      110.175       78.869    16996.093    12138.577     6220.254        5.704        1.768      279.150       53.979        0.037      352.098       34.492      860.384
07/07/2014  16:00:00      160.008      140.221       -3.203      130.157      103.929       69.767    16940.861    10801.259     4867.458        3.894        1.630      212.755       38.869        0.033      352.328       34.894      860.381
07/07/2014  16:01:00      143.282       91.781       31.639      106.387       77.318       77.539    11318.114     5978.088     6012.234        2.663        1.165      170.157       52.360        0.095      352.318       34.879      860.381
07/07/2014  16:02:00      168.719      114.892       11.354       89.889       66.541       41.266     8079.964     4427.682     1702.913        2.800        0.711      204.123       18.407        0.008      352.107       34.508      860.367
07/07/2014  16:03:00       26.728       75.417       27.330       60.745       75.722       43.370     3689.959     5733.859     1880.941        0.922        0.565       80.013       44.885        0.315      352.331       34.903      860.324
07/07/2014  16:04:00       85.127       58.684       78.387       72.669       75.090       57.355     5280.747     5638.523     3289.576        1.552        0.710      103.395       55.815        0.291      351.811       33.994      860.308
07/07/2014  16:05:00      201.304       63.158       64.029      115.683       93.796       64.661    13382.538     8797.621     4181.089        3.748        1.318      210.980       45.412        0.046      352.027       34.368      860.332
07/07/2014  16:06:00      258.512      178.845       37.259      122.650       90.899       84.591    15043.111     8262.556     7155.623        6.533        1.523      314.347       40.550        0.017      352.070       34.445      860.291
07/07/2014  16:07:00      185.869      123.861       24.103      130.609       92.722       82.960    17058.774     8597.308     6882.329        4.150        1.627      223.358       50.005        0.050      352.340       34.917      860.255
07/07/2014  16:08:00      130.670      212.527       -5.516      119.466      124.072       86.680    14272.141    15393.868     7513.394        4.972        1.859      249.485       77.960        0.098      352.375       34.978      860.264
07/07/2014  16:09:00      106.643      104.049       -5.466      113.085       66.904       42.468    12788.197     4476.118     1803.510        2.065        0.953      148.993       31.130        0.044      352.217       34.702      860.236
07/07/2014  16:10:00       66.571       86.854       -5.142       66.426       66.362       42.807     4412.400     4403.972     1832.464        1.132        0.532      109.432       40.859        0.139      352.426       35.071      860.219
07/07/2014  16:11:00      284.286      160.519       38.298      103.023       85.930       64.715    10613.825     7383.915     4188.020        6.511        1.109      326.473       33.602        0.011      352.364       34.955      860.254
07/07/2014  16:12:00      155.749       96.054       -4.173       82.383       78.391       50.470     6786.880     6145.110     2547.223        2.449        0.774      182.987       12.546        0.005      352.555       35.295      860.272
07/07/2014  16:13:00       70.444       18.061       18.477       67.851       62.472       42.479     4603.811     3902.802     1804.453        0.797        0.516       72.723       21.743        0.089      352.525       35.244      860.269
07/07/2014  16:14:00      147.511      -30.692       36.257       83.203       76.641       55.900     6922.660     5873.812     3124.768        1.997        0.796      150.670       54.391        0.130      352.372       34.974      860.261
07/07/2014  16:15:00      152.367       33.635       52.881       62.600      111.858       60.422     3918.794    12512.114     3650.828        2.361        1.004      156.035       60.622        0.151      352.221       34.709      860.262
07/07/2014  16:16:00      103.276     -215.246       10.533      129.603      144.998       68.631    16796.811    21024.361     4710.161        4.981        2.127      238.740       75.563        0.100      352.600       35.373      860.221
07/07/2014  16:17:00      153.699     -185.191       24.373      155.349      199.286       93.502    24133.313    39714.838     8742.694        6.554        3.630      240.664      120.181        0.249      352.562       35.307      860.190
07/07/2014  16:18:00      219.962     -295.060      -16.589      138.390      169.503       92.704    19151.780    28731.259     8594.044        9.609        2.824      368.026       97.718        0.070      352.416       35.048      860.173
07/07/2014  16:19:00      143.402     -109.271       22.272      111.437      161.653       78.654    12418.134    26131.559     6186.523        3.886        2.237      180.289       98.499        0.298      352.165       34.610      860.161
07/07/2014  16:20:00       67.239       76.397       85.503       87.207       81.506       62.518     7605.143     6643.171     3908.503        1.791        0.908      101.772       39.983        0.154      352.215       34.700      860.203
07/07/2014  16:21:00      284.187      184.535       43.794      154.466      110.520       84.123    23859.747    12214.572     7076.700        7.994        2.158      338.844       43.414        0.016      352.464       35.132      860.183
07/07/2014  16:22:00      231.591      164.259       24.116      109.426       76.589       68.945    11974.056     5865.870     4753.400        5.189        1.130      283.929       32.378        0.013      352.184       34.644      860.212
07/07/2014  16:23:00      101.749      135.952       14.311      116.009       76.117       47.409    13458.013     5793.741     2247.641        2.527        1.075      169.812       31.659        0.035      352.171       34.622      860.212
07/07/2014  16:24:00      215.477      138.092       15.969       94.758       84.287       73.973     8979.043     7104.371     5472.071        4.365        1.078      255.929       51.057        0.040      352.140       34.566      860.195
07/07/2014  16:25:00      176.930      127.463       12.888       85.819       70.159       56.332     7364.815     4922.289     3173.277        3.159        0.773      218.062       40.778        0.035      352.236       34.736      860.188
07/07/2014  16:26:00       61.716      132.631       -5.822       81.749       94.373       47.951     6682.977     8906.202     2299.272        1.966        0.894      146.287       49.294        0.114      352.415       35.050      860.198
07/07/2014  16:27:00      226.612      179.475        7.836      137.340      110.929       97.870    18862.217    12305.223     9578.508        6.218        2.037      289.075       77.091        0.071      352.311       34.865      860.160
07/07/2014  16:28:00      255.660      168.854       16.347      127.338      100.481       72.990    16215.009    10096.398     5327.500        6.288        1.582      306.388       40.789        0.018      352.401       35.023      860.158
07/07/2014  16:29:00      170.563      136.643       69.163      145.843       82.364       81.614    21270.105     6783.760     6660.903        4.362        1.736      218.547       42.212        0.037      352.354       34.940      860.125
07/07/2014  16:30:00      262.890      163.809       51.525      146.302      103.888       89.120    21404.358    10792.809     7942.394        6.936        2.007      309.749       68.086        0.048      352.159       34.598      860.110
07/07/2014  16:31:00      324.835      199.612       70.159      102.071       86.429       77.150    10418.444     7469.963     5952.071        8.706        1.192      381.265       41.809        0.012      352.283       34.816      860.112
07/07/2014  16:32:00      276.324      147.459       37.353      168.636      125.126      126.222    28438.023    15656.463    15932.052        7.975        3.001      313.208       53.380        0.029      352.322       34.885      860.115
07/07/2014  16:33:00      301.704      182.940       46.849      144.611      124.620       85.977    20912.385    15530.077     7392.028        8.525        2.192      352.835       32.408        0.008      352.160       34.600      860.129
07/07/2014  16:34:00      146.941       98.432       29.160      108.022       75.905       67.025    11668.767     5761.602     4492.291        2.702        1.096      176.863       50.483        0.081      352.218       34.704      860.127
07/07/2014  16:35:00      118.635      110.093       20.275      152.927       88.483       64.266    23386.597     7829.310     4130.096        3.097        1.767      161.848       36.553        0.051      352.328       34.897      860.099
07/07/2014  16:36:00      162.913      136.464       11.408      173.923      105.152       60.019    30249.182    11057.027     3602.227        4.509        2.245      212.516       54.234        0.065      352.319       34.882      860.088
07/07/2014  16:37:00      304.619      230.455       28.507      171.581      110.237      107.375    29440.205    12152.259    11529.353        9.991        2.656      381.971       50.562        0.018      352.113       34.518      860.082
07/07/2014  16:38:00      182.562      123.330       43.374      133.866       86.264       64.901    17920.206     7441.469     4212.146        3.999        1.479      220.316       41.119        0.035      352.061       34.429      860.085
07/07/2014  16:39:00      249.386      177.582       43.064      153.185      108.012       73.252    23465.773    11666.698     5365.925        6.803        2.025      306.152       46.658        0.023      352.059       34.425      860.068
07/07/2014  16:40:00      182.438      137.665       34.491      117.553       93.856       65.136    13818.758     8808.860     4242.639        4.014        1.344      228.550       55.203        0.058      352.130       34.547      860.053
07/07/2014  16:41:00      218.522      148.323       21.875      129.854      107.647       82.931    16862.015    11587.787     6877.600        5.277        1.766      264.105       64.855        0.060      352.143       34.570      860.073
07/07/2014  16:42:00      158.601      110.918       17.331      129.465      110.530       87.746    16761.299    12216.798     7699.310        3.721        1.834      193.538       46.971        0.059      352.184       34.644      860.072
07/07/2014  16:43:00      217.279      123.599       10.731      106.940       94.002       67.469    11436.196     8836.447     4552.060        4.371        1.241      249.973       52.089        0.043      352.278       34.808      860.080
07/07/2014  16:44:00      284.789      185.371       50.689      123.093      103.609       73.207    15151.958    10734.891     5359.284        7.464        1.562      339.805       58.489        0.030      352.137       34.559      860.080
07/07/2014  16:45:00      146.194       77.414       87.098      125.447       95.075       66.448    15737.031     9039.222     4415.322        3.207        1.460      165.426       56.845        0.118      351.868       34.094      860.062
07/07/2014  16:46:00      203.403      104.173       59.815       94.244       89.822       65.678     8882.002     8068.079     4313.662        3.853        1.063      228.527       37.911        0.028      352.071       34.445      860.060
07/07/2014  16:47:00      150.880       86.716       25.860      109.179       79.751       59.942    11920.005     6360.159     3593.002        2.641        1.094      174.025       21.988        0.016      352.106       34.507      860.046
07/07/2014  16:48:00      139.780      170.937        7.080      145.714      138.171       94.106    21232.579    19091.279     8855.973        4.899        2.459      220.812       79.366        0.129      352.163       34.607      860.039
07/07/2014  16:49:00      182.040      163.277       28.379      134.341      110.707       93.946    18047.600    12256.106     8825.761        4.986        1.956      244.537       68.884        0.079      352.034       34.382      860.047
07/07/2014  16:50:00      171.119      130.135       39.086      108.636       73.554       75.394    11801.823     5410.139     5684.191        3.532        1.145      214.981       45.460        0.045      352.058       34.424      860.060
07/07/2014  16:51:00      180.093      115.528       21.554      109.891       67.721       57.622    12076.093     4586.180     3320.279        3.311        0.999      213.963       44.083        0.042      352.030       34.375      860.054
07/07/2014  16:52:00      157.589      116.992       21.716       83.368       71.669       46.006     6950.305     5136.433     2116.523        2.660        0.710      196.269       39.247        0.040      352.026       34.367      860.045
07/07/2014  16:53:00       93.604       91.306       13.875       72.863       52.149       35.097     5308.957     2719.474     1231.810        1.327        0.463      130.761       28.235        0.047      351.922       34.188      860.031
07/07/2014  16:54:00       74.925       59.913       23.718       67.398       49.432       39.879     4542.452     2443.561     1590.342        0.917        0.429       95.934       17.116        0.032      352.037       34.388      860.032
07/07/2014  16:55:00      131.798       55.198       30.490       78.559       66.140       49.635     6171.524     4374.470     2463.611        1.718        0.650      142.890       44.267        0.096      352.022       34.361      860.044
07/07/2014  16:56:00      124.347       83.212      101.602      134.192       81.214       72.991    18007.375     6595.704     5327.669        3.132        1.497      149.621       67.874        0.206      351.773       33.926      860.044
07/07/2014  16:57:00      246.419      144.002       27.933      130.415       95.744       65.894    17008.068     9166.853     4341.958        5.637        1.526      285.411       50.956        0.032      351.953       34.240      860.045
07/07/2014  16:58:00      161.606      106.596       47.227       73.369       63.905       43.033     5383.082     4083.887     1851.828        2.551        0.566      193.596       23.209        0.014      351.953       34.241      860.040
07/07/2014  16:59:00      184.512      111.684       59.180       91.605       84.743       61.174     8391.459     7181.343     3742.237        3.466        0.966      215.680       33.859        0.025      351.934       34.206      860.025
07/07/2014  17:00:00      194.156       84.935       55.732       94.920       73.425       59.070     9009.854     5391.291     3489.307        3.295        0.895      211.921       46.958        0.049      351.830       34.024      860.031
07/07/2014  17:01:00      183.175       49.110       32.106       88.059       71.100       50.543     7754.451     5055.179     2554.586        2.618        0.768      189.644       43.318        0.052      351.520       33.484      860.035
07/07/2014  17:02:00      183.482       87.602       31.844      102.513       65.795       52.396    10508.979     4328.943     2745.364        2.997        0.879      203.322       26.778        0.017      351.940       34.217      860.028
07/07/2014  17:03:00      200.341      140.065       19.372       74.485       57.314       45.770     5547.978     3284.892     2094.935        3.553        0.546      244.448       21.299        0.008      351.900       34.146      860.027
07/07/2014  17:04:00      120.015       67.727       41.669       83.664       54.759       46.347     6999.715     2998.568     2148.005        1.643        0.607      137.806       42.076        0.093      351.896       34.143      860.025
07/07/2014  17:05:00       94.243       52.852       14.810       60.008       52.022       37.023     3600.988     2706.263     1370.708        0.978        0.384      108.051       30.324        0.079      351.911       34.169      860.026
07/07/2014  17:06:00      107.316       60.639       29.573       65.032       53.388       32.621     4229.158     2850.324     1064.161        1.210        0.407      123.263       34.201        0.077      351.933       34.208      860.014
07/07/2014  17:07:00       69.139       22.665       43.760       71.124       50.590       43.683     5058.616     2559.390     1908.221        0.837        0.476       72.760       33.212        0.208      351.357       33.202      860.011
07/07/2014  17:08:00      131.039       83.494       84.784       95.583       73.924       55.175     9136.078     5464.743     3044.239        2.449        0.882      155.379       44.052        0.080      351.638       33.693      860.021
07/07/2014  17:09:00       45.053       -5.345       18.887       35.387       23.225       24.807     1252.266      539.398      615.379        0.241        0.120       45.369       17.019        0.141      351.458       33.378      860.027
07/07/2014  17:10:00       31.240       -5.876       14.322       17.882       23.602       17.511      319.778      557.034      306.633        0.120        0.059       31.788       10.426        0.108      351.629       33.678      860.008
07/07/2014  17:11:00       34.843      -12.003       10.589       24.633       29.649       21.425      606.775      879.070      459.027        0.171        0.097       36.852       18.686        0.257      351.145       32.833      860.014
07/07/2014  17:12:00       68.418      -13.427       41.704       58.602       56.125       40.635     3434.156     3149.966     1651.223        0.742        0.412       69.723       28.872        0.171      351.376       33.236      860.017
07/07/2014  17:13:00      103.433       91.106       74.433       65.108       54.373       38.946     4239.058     2956.423     1516.783        1.662        0.436      137.835       24.539        0.032      351.611       33.646      860.015
07/07/2014  17:14:00      107.266       42.484       23.275       52.721       41.116       41.532     2779.481     1690.487     1724.881        1.002        0.310      115.373       28.435        0.061      351.418       33.310      860.009
07/07/2014  17:15:00       53.563        0.411        1.624       42.913       29.237       22.718     1841.548      854.813      516.120        0.304        0.161       53.565       12.506        0.055      351.510       33.470      860.004
07/07/2014  17:16:00      104.037      -95.734        6.429       49.650       78.780       42.532     2465.107     6206.360     1808.991        1.525        0.524      141.381       39.837        0.079      351.597       33.621      859.985
07/07/2014  17:17:00       93.256       78.113       79.127       93.681       94.409       59.774     8776.153     8913.117     3572.873        2.116        1.063      121.649       56.214        0.214      351.789       33.955      859.958
07/07/2014  17:18:00       84.377       46.237       63.171       82.269       66.693       43.820     6768.218     4447.986     1920.228        1.319        0.657       96.215       35.971        0.140      351.346       33.183      859.962
07/07/2014  17:19:00      141.931       25.474       70.613      125.653      101.159       63.340    15788.636    10233.084     4011.898        2.790        1.502      144.199       57.719        0.160      351.755       33.895      859.966
07/07/2014  17:20:00      121.941      -25.521       52.476      129.064      139.174       69.744    16657.433    19369.392     4864.284        2.958        2.045      124.583       33.313        0.071      351.895       34.138      859.943
07/07/2014  17:21:00      146.758      100.774       10.853       73.267       51.730       41.495     5368.070     2675.966     1721.819        2.079        0.488      178.027       21.996        0.015      351.832       34.030      859.958
07/07/2014  17:22:00      177.276      104.944       20.745       58.169       66.064       49.172     3383.690     4364.395     2417.860        2.652        0.508      206.010       37.130        0.032      351.871       34.097      859.950
07/07/2014  17:23:00      144.549       93.714       43.521       72.506       50.865       47.841     5257.182     2587.282     2288.790        2.085        0.507      172.269       30.271        0.031      351.758       33.901      859.951
07/07/2014  17:24:00      170.562      127.694       79.809      114.515       91.491       75.736    13113.775     8370.555     5735.872        3.949        1.361      213.066       59.448        0.078      351.861       34.080      859.912
07/07/2014  17:25:00       32.794       38.021       63.671       61.481       84.237       59.180     3779.940     7095.910     3502.317        1.047        0.719       50.210       49.086        0.956      351.791       33.960      859.897
07/07/2014  17:26:00      139.742       48.110       64.418      110.741       84.372       63.705    12263.616     7118.643     4058.292        2.471        1.172      147.792       55.724        0.142      351.358       33.204      859.915
07/07/2014  17:27:00      177.071       91.843      124.315      122.459       90.572       83.598    14996.249     8203.266     6988.646        4.271        1.509      199.473       81.617        0.167      351.906       34.159      859.875
07/07/2014  17:28:00      153.172       13.198      110.019      131.308      123.739       96.684    17241.725    15311.375     9347.877        3.881        2.095      153.740       94.246        0.376      352.038       34.388      859.868
07/07/2014  17:29:00       59.380       26.561      130.778       91.535      139.866       85.339     8378.711    19562.446     7282.821        2.827        1.761       65.050       92.397        2.018      352.053       34.416      859.859
07/07/2014  17:30:00      111.310     -174.834       22.043       80.454       96.049       56.238     6472.862     9225.490     3162.760        3.115        0.943      207.260       58.073        0.079      351.987       34.300      859.854
07/07/2014  17:31:00      103.379      -26.012       23.828       87.575      132.953       59.898     7669.383    17676.398     3587.801        2.043        1.447      106.602       69.090        0.420      351.966       34.264      859.826
07/07/2014  17:32:00       98.774      -48.534       55.931      110.526      191.360      112.336    12215.934    36618.534    12619.376        3.834        3.073      110.054      129.873        1.393      351.889       34.129      859.822
07/07/2014  17:33:00      149.219       20.537      110.986      105.553      124.941       82.589    11141.340    15610.325     6820.877        3.428        1.679      150.626       90.931        0.364      352.043       34.398      859.838
07/07/2014  17:34:00      126.790     -136.491       17.588      102.611      102.699       64.979    10528.959    10547.086     4222.296        3.015        1.265      186.294       60.951        0.107      352.125       34.540      859.840
07/07/2014  17:35:00      130.479     -123.421       19.301       80.199      125.428       70.307     6431.874    15732.293     4943.017        2.986        1.355      179.604       67.667        0.142      352.044       34.401      859.837
07/07/2014  17:36:00      143.209     -139.683       21.341       96.221      153.869       76.171     9258.397    23675.736     5801.956        3.960        1.937      200.050      101.207        0.256      351.941       34.217      859.849
07/07/2014  17:37:00      120.751       26.232       26.197       77.312       61.700       50.130     5977.099     3806.882     2513.046        1.412        0.615      123.568       37.537        0.092      351.758       33.901      859.847
07/07/2014  17:38:00       42.180      -19.863       31.103       43.003       85.691       47.630     1849.249     7343.016     2268.624        0.730        0.573       46.623       57.314        1.511      351.401       33.280      859.840
07/07/2014  17:39:00       51.126       48.576       82.411       77.212       83.155       68.095     5961.709     6914.764     4636.890        1.464        0.876       70.523       73.507        1.086      351.783       33.946      859.838
07/07/2014  17:40:00       -1.223       10.729       63.394       33.298       91.691       54.327     1108.734     8407.249     2951.400        0.830        0.623       10.799       61.584       32.523      351.956       34.248      859.845
07/07/2014  17:41:00       71.019      -43.454       29.937       77.043      102.232       73.463     5935.585    10451.356     5396.754        1.480        1.089       83.259       75.089        0.813      351.971       34.272      859.845
07/07/2014  17:42:00       67.323      -64.648       57.508       98.485      182.850       97.167     9699.292    33433.962     9441.424        3.229        2.629       93.336      124.639        1.783      352.113       34.519      859.822
07/07/2014  17:43:00       79.266     -152.863       21.259      109.457      162.630       82.314    11980.883    26448.529     6775.592        3.765        2.260      172.192       91.807        0.284      352.114       34.522      859.836
07/07/2014  17:44:00       60.085      -55.542       25.906       73.732       97.642       64.087     5436.416     9533.941     4107.185        1.322        0.954       81.824       66.288        0.656      351.962       34.257      859.849
07/07/2014  17:45:00       35.784       75.864      162.480      102.717      158.240      107.009    10550.844    25039.873    11450.855        4.023        2.352       83.880      108.383        1.670      351.951       34.236      859.846
07/07/2014  17:46:00      284.853     -276.119      -26.959      143.536      212.606       98.060    20602.443    45201.483     9615.832       11.675        3.771      396.716      124.977        0.099      351.953       34.238      859.826
07/07/2014  17:47:00      260.597     -258.190      -33.485      119.264      133.195       65.664    14223.884    17740.851     4311.707        8.598        1.814      366.842       59.615        0.026      351.971       34.270      859.852
07/07/2014  17:48:00      152.277     -209.202       -6.421      136.481      116.257       76.739    18626.974    13515.658     5888.800        5.251        1.902      258.755       71.200        0.076      351.958       34.248      859.870
07/07/2014  17:49:00      148.482     -132.915        1.092       95.540      128.478       61.024     9127.807    16506.582     3723.979        3.453        1.468      199.282       80.218        0.162      351.819       34.006      859.876
07/07/2014  17:50:00       49.631       51.342       92.810       94.841       72.033       61.838     8994.905     5188.815     3823.986        1.586        0.900       71.409       62.988        0.778      351.710       33.818      859.875
07/07/2014  17:51:00      141.104      -94.785       34.856      149.063      178.214       88.407    22219.820    31760.376     7815.778        4.594        3.090      169.984      117.958        0.482      351.815       33.998      859.887
07/07/2014  17:52:00      155.329     -189.865       22.919      139.893      204.345      115.311    19569.949    41756.769    13296.603        6.765        3.731      245.307      140.420        0.328      351.918       34.178      859.873
07/07/2014  17:53:00      220.002     -252.029      -51.966       88.337      102.703       59.167     7803.403    10547.900     3500.771        6.823        1.093      334.544       46.442        0.019      351.867       34.088      859.882
07/07/2014  17:54:00      163.195     -233.605       15.783       85.346      170.690       85.125     7283.948    29135.185     7246.203        6.255        2.183      284.963      102.427        0.129      351.923       34.188      859.879
07/07/2014  17:55:00      170.822     -197.143       10.186      164.932      235.069      123.317    27202.599    55257.340    15207.130        8.289        4.883      260.855      176.239        0.456      351.843       34.046      859.880
07/07/2014  17:56:00      261.310     -301.811      -48.687      113.383      144.218       58.577    12855.685    20798.954     3431.301        9.941        1.854      399.216       60.960        0.023      351.927       34.194      859.871
07/07/2014  17:57:00      208.392     -272.482      -29.401      134.547      125.660       72.204    18102.805    15790.452     5213.371        7.882        1.955      343.036       61.412        0.032      351.886       34.122      859.855
07/07/2014  17:58:00       96.045      -28.918       85.277      121.264      200.616      116.652    14705.074    40246.812    13607.593        4.293        3.428      100.304      150.798        2.260      351.981       34.288      859.864
07/07/2014  17:59:00       87.805      -23.282       47.509       80.148      115.348       57.784     6423.729    13305.079     3339.045        1.678        1.153       90.839       74.572        0.674      351.950       34.238      859.887
07/07/2014  18:00:00       60.873      -35.131       42.941       85.688       85.787       57.940     7342.466     7359.326     3357.054        1.242        0.903       70.283       61.456        0.765      351.834       34.035      859.886
07/07/2014  18:01:00      162.190      -76.230       58.471      136.958      159.700       98.765    18757.492    25504.248     9754.509        4.477        2.701      179.211      102.251        0.326      351.811       33.991      859.869
07/07/2014  18:02:00       90.211       53.284      103.650       72.159       73.755       48.158     5206.960     5439.743     2319.148        1.734        0.648      104.772       40.905        0.152      351.582       33.595      859.876
07/07/2014  18:03:00      111.282      -12.876       56.186       77.706       78.699       49.534     6038.218     6193.568     2453.646        1.519        0.734      112.024       47.889        0.183      351.657       33.726      859.874
07/07/2014  18:04:00      116.307       38.701       68.952       89.607       67.438       51.717     8029.409     4547.841     2674.644        1.751        0.763      122.576       52.098        0.181      351.517       33.481      859.875
07/07/2014  18:05:00       87.953        3.308       72.379       93.824      123.277       77.630     8803.017    15197.340     6026.447        2.150        1.501       88.015       85.812        0.951      351.750       33.888      859.870
07/07/2014  18:06:00      163.018      110.925      134.775      103.372      110.211       77.521    10685.829    12146.421     6009.558        4.294        1.442      197.179       64.453        0.107      351.815       33.997      859.877
07/07/2014  18:07:00      137.225        5.198       59.177      118.643       82.307       67.356    14076.256     6774.478     4536.872        2.387        1.269      137.324       63.555        0.214      351.525       33.495      859.890
07/07/2014  18:08:00       47.903       42.239       93.190       59.444       91.477       49.876     3533.557     8368.074     2487.569        1.357        0.719       63.866       52.968        0.688      351.717       33.830      859.888
07/07/2014  18:09:00       76.469      -30.097       34.373       61.778       66.198       43.961     3816.566     4382.236     1932.564        0.903        0.507       82.179       29.898        0.132      351.307       33.117      859.888
07/07/2014  18:10:00       26.316      -85.309       10.307       43.120       85.708       58.879     1859.298     7345.875     3466.769        1.037        0.634       89.276       58.934        0.436      351.701       33.803      859.896
07/07/2014  18:11:00       75.242       36.708       53.957       67.608       48.790       42.238     4570.867     2380.512     1784.078        0.933        0.437       83.719       35.172        0.177      351.538       33.519      859.900
07/07/2014  18:12:00       62.709       -3.185       55.857       51.437       59.605       39.843     2645.784     3552.723     1587.504        0.742        0.389       62.790       36.321        0.335      351.360       33.210      859.899
07/07/2014  18:13:00       55.146       -9.680       41.417       69.907       93.864       50.154     4887.029     8810.399     2515.397        1.053        0.811       55.989       42.341        0.572      351.843       34.050      859.880
07/07/2014  18:14:00       87.027       53.266       68.170       67.609       81.575       60.739     4570.948     6654.498     3689.271        1.498        0.746      102.034       45.922        0.203      351.427       33.326      859.888
07/07/2014  18:15:00       90.912       54.718       59.703       72.269       94.312       62.565     5222.849     8894.736     3914.345        1.642        0.902      106.109       57.357        0.292      351.635       33.688      859.893
07/07/2014  18:16:00      129.683       58.789       88.159      123.522      133.104       76.373    15257.569    17716.796     5832.801        3.342        1.940      142.386       64.272        0.204      351.720       33.834      859.879
07/07/2014  18:17:00      131.148       53.579      110.868      108.925      104.815       80.481    11864.724    10986.234     6477.255        3.084        1.466      141.670       71.706        0.256      351.715       33.825      859.873
07/07/2014  18:18:00      114.355      -30.130       68.290      126.179      112.866       73.253    15921.167    12738.779     5365.946        2.633        1.701      118.257       80.652        0.465      351.880       34.113      859.885
07/07/2014  18:19:00       58.207       37.228       62.668       55.501       84.745       55.832     3080.358     7181.640     3117.209        1.104        0.669       69.094       49.865        0.521      351.686       33.775      859.863
07/07/2014  18:20:00       82.060       71.093       87.299       72.483       84.812       67.024     5253.836     7193.088     4492.275        1.817        0.847      108.572       60.527        0.311      351.634       33.685      859.852
07/07/2014  18:21:00      313.159      288.228      203.761      188.364      131.936      145.410    35481.048    17407.110    21144.185       14.834        3.702      425.610      119.890        0.079      351.864       34.083      859.797
07/07/2014  18:22:00      260.999      193.070      208.692      176.404      149.208      113.911    31118.528    22263.167    12975.641       10.764        3.318      324.649      102.108        0.099      351.726       33.842      859.822
07/07/2014  18:23:00       52.916      117.961      176.925      127.462      111.128       81.710    16246.661    12349.329     6676.506        4.164        1.764      129.287       71.977        0.310      351.721       33.834      859.840
07/07/2014  18:24:00      228.037     -287.043        4.707      136.133      210.740       97.419    18532.120    44411.503     9490.445       10.341        3.622      366.599      116.719        0.101      351.802       33.975      859.867
07/07/2014  18:25:00      256.871     -257.783       -3.643      193.177      260.274      147.952    37317.515    67742.480    21889.845       12.968        6.347      363.916      166.481        0.209      351.828       34.020      859.842
07/07/2014  18:26:00      381.170     -366.556      -51.262      189.286      182.513      106.367    35829.192    33311.087    11313.833       18.135        4.023      528.823      124.374        0.055      351.686       33.775      859.860
07/07/2014  18:27:00      204.508     -244.681       -7.533      127.890      185.628       77.154    16355.821    34457.885     5952.759        7.925        2.838      318.892       84.892        0.071      351.741       33.871      859.882
07/07/2014  18:28:00      135.061      -35.034       68.402      114.310      158.167       92.068    13066.814    25016.939     8476.433        3.535        2.328      139.531      116.006        0.691      351.728       33.847      859.879
07/07/2014  18:29:00      153.110     -123.861       22.329       98.087      133.172       78.930     9620.976    17734.848     6229.996        3.643        1.679      196.937       80.913        0.169      351.820       34.006      859.871
07/07/2014  18:30:00      107.758       64.158      137.494      127.577      235.470      151.856    16275.955    55446.243    23060.394        6.469        4.739      125.412      167.644        1.787      351.798       33.969      859.869
07/07/2014  18:31:00      153.205     -119.323       87.582      163.961      289.532      136.392    26883.230    83829.063    18602.739        8.733        6.466      194.190      178.160        0.842      351.694       33.788      859.847
07/07/2014  18:32:00      306.064     -262.337        0.621      240.498      260.457      147.328    57839.157    67837.938    21705.636       15.491        7.369      403.107      182.414        0.205      351.705       33.808      859.845
07/07/2014  18:33:00      223.831     -251.974       15.325      204.702      272.149      138.005    41902.923    74065.200    19045.251       12.440        6.751      337.033      182.848        0.294      351.659       33.728      859.894
07/07/2014  18:34:00       86.213        3.145      116.946      110.652      220.648      114.254    12243.923    48685.421    13053.962        4.754        3.699       86.271      147.889        2.939      351.694       33.789      859.941
07/07/2014  18:35:00      144.215       -1.223       83.883      145.664      148.497       96.955    21218.023    22051.418     9400.309        4.024        2.633      144.220      114.279        0.628      351.548       33.536      859.964
07/07/2014  18:36:00      117.518       57.772      176.078      165.571      173.606      121.306    27413.638    30138.958    14715.157        6.020        3.613      130.951      133.592        1.041      351.591       33.611      859.964
07/07/2014  18:37:00      202.140      -46.603       91.640      154.131      238.955      121.193    23756.508    57099.354    14687.801        7.347        4.777      207.443      136.573        0.433      351.417       33.304      859.946
07/07/2014  18:38:00       78.353     -142.730       42.440      110.563      158.376       80.568    12224.244    25083.090     6491.202        3.605        2.190      162.822       98.505        0.366      351.446       33.357      859.990
07/07/2014  18:39:00      163.027      -62.917       84.784      152.410      179.464      126.204    23228.814    32207.471    15927.469        5.453        3.568      174.747      134.080        0.589      351.531       33.506      860.023
07/07/2014  18:40:00      238.104     -253.462       25.209      191.314      265.229      168.868    36600.960    70346.411    28516.262       12.850        6.773      347.759      191.112        0.302      351.486       33.427      860.011
07/07/2014  18:41:00      155.369     -124.941      119.429      179.477      231.017      171.303    32211.821    53368.739    29344.720        8.445        5.746      199.373      179.647        0.812      351.444       33.351      860.047
07/07/2014  18:42:00      177.528     -138.768       44.399      183.929      214.621      121.778    33829.881    46062.250    14829.773        7.372        4.736      225.328      150.731        0.447      351.358       33.201      860.068
07/07/2014  18:43:00      128.121     -146.518       57.508      142.455      185.998      121.992    20293.457    34595.102    14881.941        5.547        3.489      194.635      127.054        0.426      351.354       33.194      860.078
07/07/2014  18:44:00       62.438     -148.976       14.329      115.072      150.969      106.714    13241.454    22791.742    11387.805        3.685        2.371      161.531       96.086        0.354      351.216       32.954      860.095
07/07/2014  18:45:00       81.210     -191.452       29.527      124.393      133.769       76.788    15473.713    17894.094     5896.402        4.169        1.963      207.963       75.970        0.133      351.253       33.019      860.091
07/07/2014  18:46:00       39.647      -28.730      104.779      108.426      105.394       72.212    11756.184    11107.897     5214.612        2.072        1.404       48.962       44.443        0.824      351.309       33.118      860.072
07/07/2014  18:47:00       54.232     -110.115       27.708       52.303      130.205       52.988     2735.620    16953.393     2807.702        1.916        1.125      122.746       64.951        0.280      351.224       32.971      860.095
07/07/2014  18:48:00      108.824      -47.293       72.840       93.314      135.014       90.498     8707.499    18228.782     8189.865        2.725        1.756      118.656      102.564        0.747      351.281       33.069      860.113
07/07/2014  18:49:00       41.408      -89.159       27.066       82.560      113.189       69.495     6816.188    12811.788     4829.618        1.742        1.223       98.305       80.057        0.663      351.223       32.970      860.154
07/07/2014  18:50:00       50.080     -110.356       -1.749       72.475       96.216       64.518     5252.578     9257.610     4162.571        1.668        0.934      121.187       63.064        0.271      351.197       32.923      860.183
07/07/2014  18:51:00      137.749     -165.534        5.304      100.399      142.985       62.190    10079.922    20444.748     3867.621        4.039        1.720      215.352       78.745        0.134      351.307       33.112      860.218
07/07/2014  18:52:00       27.521        8.020       71.386       74.412      140.040       98.142     5537.141    19611.253     9631.910        2.034        1.739       28.666      111.096       15.020      351.246       33.008      860.269
07/07/2014  18:53:00       90.064     -135.540       -2.869       74.765      146.372       60.215     5589.846    21424.713     3625.806        2.856        1.532      162.735       68.320        0.176      351.232       32.984      860.278
07/07/2014  18:54:00       67.496      -99.801       22.784       68.461      110.752       48.288     4686.878    12266.043     2331.767        1.716        0.964      120.482       55.679        0.214      351.089       32.734      860.287
07/07/2014  18:55:00       71.995      -72.553       24.008       67.005       87.126       51.039     4489.634     7590.879     2605.021        1.285        0.734      102.212       55.673        0.297      351.152       32.845      860.287
07/07/2014  18:56:00       96.513       88.427       72.484       86.173       73.001       62.720     7425.799     5329.187     3933.785        1.954        0.834      130.897       57.985        0.196      350.713       32.078      860.260
07/07/2014  18:57:00       70.667      -31.961       40.505       61.662       88.745       52.032     3802.181     7875.669     2707.364        1.102        0.719       77.558       53.379        0.474      350.898       32.402      860.247
07/07/2014  18:58:00       96.273     -143.701       -9.093       62.789       93.712       38.424     3942.433     8782.021     1476.369        2.210        0.710      172.969       42.936        0.062      351.055       32.675      860.241
07/07/2014  18:59:00       38.257       -0.085        8.057       34.209       40.134       30.843     1170.231     1610.730      951.303        0.263        0.187       38.257       11.452        0.090      350.875       32.364      860.255
07/07/2014  19:00:00       52.143      -17.777       15.913       57.519       36.586       19.697     3308.389     1338.553      387.958        0.416        0.252       55.090       16.199        0.086      350.794       32.222      860.273
07/07/2014  19:01:00      -72.937      -22.794        1.793      105.716       33.297       26.911    11175.854     1108.686      724.199        0.942        0.650       76.416       41.624        0.297      350.900       32.407      860.253
07/07/2014  19:02:00      -60.957        0.168       17.504       65.928       39.518       27.004     4346.549     1561.700      729.205        0.533        0.332       60.957       31.075        0.260      350.797       32.227      860.227
07/07/2014  19:03:00       23.340      -10.560        7.264       20.466       29.605       21.730      418.860      876.430      472.175        0.124        0.088       25.618       22.304        0.758      350.258       31.289      860.231
07/07/2014  19:04:00       28.578      -66.880        9.284       42.824       57.957       39.409     1833.926     3358.968     1553.102        0.606        0.337       72.730       36.867        0.257      350.828       32.281      860.246
07/07/2014  19:05:00        6.939       38.215       73.672       32.753       38.653       36.090     1072.744     1494.056     1302.494        0.540        0.193       38.840       23.180        0.356      350.382       31.505      860.248
07/07/2014  19:06:00       47.831       23.741       46.275       45.390       39.232       33.816     2060.246     1539.141     1143.521        0.487        0.237       53.399       26.095        0.239      350.619       31.918      860.256
07/07/2014  19:07:00       94.165       61.200       15.174       47.483       40.003       32.579     2254.665     1600.261     1061.377        0.888        0.246      112.305       25.320        0.051      350.981       32.547      860.250
07/07/2014  19:08:00       -0.238       75.209       -1.916       45.874       62.564       29.190     2104.440     3914.311      852.045        0.626        0.344       75.209       32.809        0.190      351.086       32.729      860.229
07/07/2014  19:09:00      -45.477      109.605      -12.812       63.718       51.517       37.882     4059.967     2653.987     1435.083        1.120        0.407      118.665       23.628        0.040      350.947       32.489      860.231
07/07/2014  19:10:00      -71.904       -1.822      -12.711       32.831       52.418       22.805     1077.903     2747.679      520.055        0.484        0.217       71.927       10.004        0.019      350.999       32.579      860.233
07/07/2014  19:11:00      -47.361      -45.956        8.257       50.993       41.564       29.413     2600.271     1727.578      865.107        0.481        0.260       65.992       26.073        0.156      351.030       32.633      860.261
07/07/2014  19:12:00      -35.282      -80.873        0.817       45.245       41.252       25.758     2047.098     1701.736      663.466        0.610        0.221       88.235       21.149        0.057      351.064       32.690      860.279
07/07/2014  19:13:00      -42.481      -49.195       -4.421       42.193       32.511       18.639     1780.227     1056.982      347.420        0.371        0.159       64.998       23.939        0.136      351.144       32.831      860.280
07/07/2014  19:14:00      -26.906      -10.561        5.530       56.067       39.788       32.604     3143.453     1583.098     1063.050        0.333        0.289       28.905       28.801        0.993      351.022       32.620      860.267
07/07/2014  19:15:00       23.203      -11.484        1.423       27.588       16.980       16.304      761.118      288.309      265.828        0.099        0.066       25.890        9.831        0.144      350.094       31.006      860.283
07/07/2014  19:16:00       14.685        0.575       12.943       15.186       16.320       20.871      230.615      266.351      435.604        0.066        0.047       14.696       11.682        0.632      350.123       31.054      860.305
07/07/2014  19:17:00       -5.239      -19.574       22.019      117.038       60.354       47.703    13697.802     3642.614     2275.563        1.025        0.981       20.263       45.511        5.044      350.734       32.118      860.310
07/07/2014  19:18:00        0.418      -33.006        2.746       47.302       32.774       18.021     2237.505     1074.167      324.745        0.237        0.182       33.009       16.935        0.263      350.509       31.727      860.358
07/07/2014  19:19:00     -127.498      -96.119        2.313       79.929       59.759       45.386     6388.573     3571.136     2059.911        1.876        0.601      159.670       41.778        0.068      351.056       32.677      860.375
07/07/2014  19:20:00     -188.337     -180.582       -7.110      105.496      128.268       53.360    11129.459    16452.757     2847.247        4.928        1.521      260.923       56.833        0.047      351.120       32.787      860.360
07/07/2014  19:21:00     -160.478      -99.635        9.831      111.482       87.900       53.275    12428.134     7726.459     2838.263        2.938        1.150      188.892       53.480        0.080      351.068       32.695      860.345
07/07/2014  19:22:00      -75.346      -90.945        0.859      107.942       70.582       38.000    11651.545     4981.809     1443.970        1.601        0.904      118.102       35.344        0.090      350.875       32.363      860.353
07/07/2014  19:23:00       -9.321     -104.926       17.700       81.714       93.441       45.572     6677.181     8731.292     2076.817        1.444        0.874      105.339       39.902        0.143      350.912       32.427      860.365
07/07/2014  19:24:00       -8.773     -127.590      -10.181       48.708       46.329       40.726     2372.451     2146.344     1658.612        1.132        0.309      127.891       27.185        0.045      350.800       32.233      860.364
07/07/2014  19:25:00      101.633      -73.805       18.497      101.792       80.669       48.507    10361.609     6507.521     2352.916        1.767        0.961      125.605       52.636        0.176      350.829       32.281      860.371
07/07/2014  19:26:00      -23.771     -116.621        4.358       80.754       81.639       45.333     6521.129     6664.857     2055.073        1.471        0.762      119.019       21.392        0.032      350.900       32.405      860.395
07/07/2014  19:27:00       50.929      -59.396       28.463       58.252      101.577       57.115     3393.252    10317.812     3262.175        1.195        0.849       78.241       54.913        0.493      350.904       32.413      860.395
07/07/2014  19:28:00       37.964     -113.433       10.189       87.531       72.203       42.832     7661.762     5213.336     1834.600        1.456        0.735      119.618       30.403        0.065      350.915       32.433      860.406
07/07/2014  19:29:00      -15.910      -87.316       16.836       72.626       61.042       44.520     5274.524     3726.168     1982.025        0.957        0.549       88.754       33.300        0.141      350.891       32.391      860.423
07/07/2014  19:30:00      -88.151     -168.613       -4.533      114.276       66.044       48.239    13058.930     4361.800     2326.998        2.798        0.987      190.266       34.507        0.033      350.921       32.440      860.409
07/07/2014  19:31:00     -119.374     -166.109       -9.411      137.179       93.083       57.524    18818.082     8664.436     3308.976        3.636        1.540      204.554       61.274        0.090      350.902       32.406      860.380
07/07/2014  19:32:00      -10.037     -176.813        6.584      120.391      103.509       62.867    14494.088    10714.128     3952.244        3.028        1.458      177.097       29.602        0.028      351.036       32.641      860.399
07/07/2014  19:33:00      -58.889     -151.763        6.466       89.850       89.653       39.371     8072.990     8037.745     1550.054        2.210        0.883      162.788       40.596        0.062      351.131       32.806      860.414
07/07/2014  19:34:00      -13.056      -65.773       -2.160       73.434       45.413       40.960     5392.507     2062.297     1677.717        0.682        0.457       67.056       28.166        0.176      351.024       32.623      860.410
07/07/2014  19:35:00       18.924      -84.521       -0.017       83.481       84.739       34.777     6969.097     7180.651     1209.411        1.143        0.768       86.614       49.479        0.326      350.875       32.362      860.422
07/07/2014  19:36:00       28.414       64.505       76.488       64.828       60.823       49.093     4202.621     3699.483     2410.142        1.056        0.516       70.486       50.975        0.523      350.403       31.541      860.458
07/07/2014  19:37:00      153.995       77.367       60.694       98.057       65.367       69.651     9615.131     4272.816     4851.216        2.606        0.937      172.337       54.923        0.102      350.815       32.256      860.497
07/07/2014  19:38:00      225.256       86.615       46.858      105.060       66.325       55.692    11037.599     4399.048     3101.588        3.949        0.927      241.335       41.186        0.029      351.045       32.654      860.531
07/07/2014  19:39:00       87.157       47.572       53.977       82.467       64.238       51.541     6800.864     4126.494     2656.522        1.318        0.679       99.294       50.662        0.260      350.731       32.111      860.506
07/07/2014  19:40:00       45.009       -3.289       20.864       43.342       30.867       29.293     1878.525      952.786      858.078        0.308        0.184       45.129       15.321        0.115      350.550       31.798      860.500
07/07/2014  19:41:00      205.015       34.441       42.098      139.031      164.660       96.679    19329.711    27112.768     9346.789        5.038        2.789      207.888       91.367        0.193      351.028       32.627      860.433
07/07/2014  19:42:00       56.353      -76.574       20.030       69.466       90.243       50.703     4825.586     8143.821     2570.796        1.249        0.777       95.075       48.240        0.257      351.204       32.936      860.404
07/07/2014  19:43:00      128.656       86.756       59.261      104.040       81.712       82.542    10824.377     6676.788     6813.142        2.595        1.216      155.174       43.317        0.078      350.977       32.537      860.428
07/07/2014  19:44:00      301.759      175.969       50.871      187.100      113.583       76.194    35006.481    12901.191     5805.553        8.915        2.686      349.319       30.716        0.008      351.231       32.981      860.477
07/07/2014  19:45:00      231.418      162.944      121.525      217.245      131.771      106.027    47195.287    17363.479    11241.642        8.532        3.790      283.029       98.533        0.121      351.088       32.730      860.443
07/07/2014  19:46:00      423.121      278.680       40.146      176.170      137.400      108.452    31035.715    18878.702    11761.890       15.998        3.084      506.649       79.057        0.024      351.268       33.044      860.462
07/07/2014  19:47:00      242.752      126.752       63.595      199.610      117.831      118.528    39844.032    13884.072    14048.851        7.340        3.389      273.851       92.743        0.115      351.241       32.998      860.466
07/07/2014  19:48:00      339.183      245.656       40.607      186.896      149.360      110.186    34930.155    22308.431    12141.052       12.320        3.469      418.798       85.389        0.042      351.251       33.013      860.521
07/07/2014  19:49:00      187.684      155.895       29.049      127.343       75.088       74.585    16216.254     5638.150     5562.982        4.389        1.371      243.985       44.613        0.033      351.242       33.001      860.531
07/07/2014  19:50:00       80.499      160.890       -6.356       82.480      107.687       58.768     6802.913    11596.401     3453.665        2.713        1.093      179.905       57.975        0.104      351.208       32.942      860.533
07/07/2014  19:51:00      149.332      160.295        3.129      133.312       93.082       69.382    17772.125     8664.208     4813.914        3.962        1.563      219.077       62.916        0.082      351.227       32.974      860.545
07/07/2014  19:52:00      276.546      196.915       24.713      128.211       97.589       76.739    16438.136     9523.556     5888.848        7.385        1.593      339.490       66.591        0.038      351.234       32.986      860.556
07/07/2014  19:53:00      113.415      109.229        0.218       92.567       67.932       38.629     8568.672     4614.824     1492.232        1.973        0.734      157.461       22.355        0.020      351.169       32.873      860.573
07/07/2014  19:54:00      233.333      177.493        7.896      133.908       97.226       80.108    17931.321     9452.862     6417.263        5.990        1.690      293.169       52.574        0.032      351.209       32.942      860.581
07/07/2014  19:55:00      234.948      155.276       28.784      113.961       88.460       69.081    12987.121     7825.202     4772.179        5.286        1.279      281.623       44.810        0.025      351.216       32.952      860.602
07/07/2014  19:56:00      281.795      157.167       46.288       98.855       97.389       60.295     9772.267     9484.599     3635.532        6.457        1.145      322.660       40.739        0.016      351.220       32.961      860.618
07/07/2014  19:57:00      100.985       46.026       38.262       85.325       94.622       48.222     7280.401     8953.247     2325.387        1.617        0.928      110.979       43.866        0.156      351.190       32.912      860.623
07/07/2014  19:58:00       72.348       16.966       41.581       37.926       57.719       28.199     1438.413     3331.522      795.180        0.641        0.278       74.311       29.651        0.159      351.027       32.628      860.610
07/07/2014  19:59:00      120.911       63.872       19.342       72.231       73.526       43.706     5217.381     5406.119     1910.173        1.580        0.627      136.745       19.286        0.020      350.981       32.547      860.608
07/07/2014  20:00:00      163.105      101.183       12.412       77.161       53.838       45.397     5953.776     2898.516     2060.878        2.395        0.546      191.940       28.634        0.022      351.168       32.871      860.619
07/07/2014  20:01:00       85.034       60.855       89.541       88.608       69.346       68.793     7851.368     4808.815     4732.481        1.817        0.870      104.566       61.186        0.342      350.601       31.885      860.645
07/07/2014  20:02:00       30.308       36.238       79.255       62.139       71.250       47.526     3861.222     5076.541     2258.762        0.985        0.560       47.241       46.715        0.978      350.683       32.028      860.629
07/07/2014  20:03:00       95.810      -28.926       43.728       62.172      102.076       58.578     3865.314    10419.555     3431.336        1.482        0.886      100.082       36.980        0.137      350.877       32.366      860.559
07/07/2014  20:04:00       77.518     -195.831      -17.160       86.042      107.043       73.137     7403.285    11458.195     5348.980        3.443        1.211      210.615       67.954        0.104      351.097       32.747      860.530
07/07/2014  20:05:00      127.083        7.721       93.147      147.468      164.312      122.548    21746.720    26998.483    15018.119        4.431        3.188      127.317      108.619        0.728      351.094       32.743      860.545
07/07/2014  20:06:00      202.797       61.418      162.076      158.309      173.591      112.670    25061.815    30133.904    12694.538        6.952        3.395      211.893      126.728        0.358      351.308       33.114      860.566
07/07/2014  20:07:00      129.304        5.348       65.303       69.511      124.948       69.171     4831.835    15612.043     4784.656        2.312        1.261      129.414       69.675        0.290      351.235       32.988      860.548
07/07/2014  20:08:00      148.611     -167.567       -1.374       88.055       85.211       58.859     7753.697     7260.832     3464.409        3.432        0.924      223.973       56.375        0.063      351.241       32.997      860.550
07/07/2014  20:09:00      103.886     -116.215       12.511      101.956      112.891       71.490    10394.943    12744.314     5110.875        2.635        1.413      155.879       77.235        0.246      351.164       32.866      860.573
07/07/2014  20:10:00       62.125      125.828      117.503      106.513       73.923       83.138    11345.009     5464.653     6911.888        2.861        1.186      140.329       82.008        0.342      351.032       32.634      860.595
07/07/2014  20:11:00      197.823       82.567       48.732       55.706       89.027       47.598     3103.203     7925.860     2265.576        3.081        0.665      214.362       37.724        0.031      351.325       33.145      860.641
07/07/2014  20:12:00      125.059       89.767       36.646       64.170       39.893       55.077     4117.831     1591.437     3033.491        1.689        0.437      153.941       38.547        0.063      350.966       32.520      860.670
07/07/2014  20:13:00      173.725      127.702       19.810       53.057       48.680       48.028     2815.091     2369.718     2306.702        2.718        0.375      215.611       16.611        0.006      351.084       32.723      860.709
07/07/2014  20:14:00      168.408      116.733       34.920       65.266       56.408       57.940     4259.642     3181.832     3357.003        2.700        0.540      204.909       29.926        0.021      350.989       32.558      860.729
07/07/2014  20:15:00      208.074      128.238       52.673      107.118       83.268       63.926    11474.241     6933.637     4086.504        4.250        1.125      244.417       44.338        0.033      350.937       32.467      860.751
07/07/2014  20:16:00      161.937       62.955       21.486      109.923       87.458       58.203    12083.075     7648.869     3387.618        2.688        1.156      173.743       37.485        0.047      350.951       32.492      860.763
07/07/2014  20:17:00       80.851       90.642       62.188       88.142       81.266       54.875     7769.069     6604.157     3011.240        1.800        0.869      121.461       48.051        0.157      350.805       32.239      860.755
07/07/2014  20:18:00      145.117       82.532       68.678       88.737       70.510       51.264     7874.187     4971.700     2627.992        2.403        0.774      166.944       37.768        0.051      350.898       32.401      860.748
07/07/2014  20:19:00      137.559       67.782       41.736       80.656       75.494       48.127     6505.413     5699.285     2316.194        1.989        0.726      153.352       37.050        0.058      350.772       32.181      860.755
07/07/2014  20:20:00      169.410       81.714       29.823       72.596       47.338       49.972     5270.115     2240.874     2497.207        2.314        0.500      188.088       34.427        0.034      350.921       32.441      860.758
07/07/2014  20:21:00      148.454       61.100       23.716       70.275       51.938       47.477     4938.621     2697.522     2254.081        1.811        0.495      160.536       40.060        0.062      350.870       32.354      860.757
07/07/2014  20:22:00      197.294       77.444       35.061       82.088       88.237       62.505     6738.401     7785.717     3906.862        3.229        0.922      211.949       38.344        0.033      350.866       32.345      860.758
07/07/2014  20:23:00       98.630       62.154       57.568       68.841       54.874       44.018     4739.081     3011.202     1937.627        1.329        0.484      116.581       34.783        0.089      350.622       31.922      860.767
07/07/2014  20:24:00       60.427       61.662       51.783       62.215       48.516       39.926     3870.662     2353.827     1594.104        0.898        0.391       86.334       25.693        0.089      350.422       31.577      860.787
07/07/2014  20:25:00      145.241       95.626       70.380       89.171       79.418       62.746     7951.550     6307.281     3937.040        2.669        0.910      173.895       53.921        0.096      350.561       31.816      860.789
07/07/2014  20:26:00       90.923       51.180       68.831       53.151       51.768       46.207     2825.033     2679.966     2135.057        1.163        0.382      104.338       38.973        0.140      350.349       31.450      860.786
07/07/2014  20:27:00       93.924       51.123       37.812       75.665       43.144       35.305     5725.120     1861.433     1246.473        1.085        0.442      106.936       34.704        0.105      350.139       31.083      860.792
07/07/2014  20:28:00       99.323       95.450       72.452       66.300       58.332       47.575     4395.671     3402.581     2263.341        1.714        0.503      137.752       21.611        0.025      350.308       31.376      860.800
07/07/2014  20:29:00       45.314       22.448       46.926       34.297       31.287       28.297     1176.307      978.872      800.711        0.386        0.148       50.569       21.913        0.188      350.317       31.391      860.812
07/07/2014  20:30:00       69.609       21.360       31.959       45.985       48.169       29.565     2114.626     2320.264      874.079        0.582        0.265       72.813       27.665        0.144      350.044       30.916      860.820
07/07/2014  20:31:00       22.012       45.367       51.310       43.716       36.679       33.164     1911.063     1345.371     1099.818        0.477        0.218       50.425       25.475        0.255      350.081       30.981      860.826
07/07/2014  20:32:00       71.970       17.656       37.871       61.798       71.029       40.796     3818.989     5045.088     1664.329        0.873        0.526       74.104       45.554        0.378      350.245       31.267      860.843
07/07/2014  20:33:00      103.441       83.676       88.396       69.765       76.186       53.967     4867.089     5804.375     2912.407        1.955        0.679      133.048       41.596        0.098      350.448       31.618      860.856
07/07/2014  20:34:00       50.256        3.863       41.327       52.294       63.515       41.532     2734.612     4034.146     1724.936        0.637        0.425       50.404       34.955        0.481      350.389       31.518      860.870
07/07/2014  20:35:00       41.021       41.762       54.936       55.459       73.618       42.731     3075.662     5419.587     1825.947        0.838        0.516       58.539       34.837        0.354      350.378       31.499      860.865
07/07/2014  20:36:00      121.899       27.001       50.952       70.267       57.947       50.039     4937.510     3357.875     2503.901        1.449        0.540      124.854       47.077        0.142      350.384       31.508      860.885
07/07/2014  20:37:00       50.584       -4.195       33.627       56.626       43.545       30.518     3206.559     1896.198      931.372        0.487        0.302       50.758       28.133        0.307      350.257       31.287      860.897
07/07/2014  20:38:00      124.916       48.449       66.703       67.565       51.230       50.953     4565.058     2624.557     2596.238        1.609        0.489      133.983       35.123        0.069      350.277       31.323      860.900
07/07/2014  20:39:00       95.449       49.675       36.761       75.199       54.887       36.846     5654.927     3012.529     1357.639        1.148        0.501      107.601       25.864        0.058      350.324       31.403      860.904
07/07/2014  20:40:00       76.337       29.422       38.087       47.783       35.733       32.831     2283.229     1276.840     1077.866        0.639        0.232       81.811       29.292        0.128      350.194       31.177      860.909
07/07/2014  20:41:00       92.864      -13.076       27.994       63.939       33.519       37.651     4088.248     1123.521     1417.564        0.810        0.331       93.780       33.276        0.126      349.963       30.776      860.928
07/07/2014  20:42:00       91.315      -13.619       37.692       48.229       47.813       35.556     2326.018     2286.055     1264.236        0.791        0.294       92.325       26.350        0.081      350.032       30.898      860.932
07/07/2014  20:43:00       40.399        7.945       27.670       36.344       32.135       35.509     1320.900     1032.663     1260.908        0.304        0.181       41.173       26.907        0.427      350.047       30.922      860.934
07/07/2014  20:44:00       38.891       31.773       54.822       44.986       37.583       30.778     2023.755     1412.447      947.303        0.495        0.219       50.220       13.183        0.069      350.179       31.154      860.944
07/07/2014  20:45:00       69.292       23.574       34.483       28.217       27.593       30.776      796.222      761.393      947.187        0.453        0.125       73.192       17.717        0.059      350.065       30.955      860.948
07/07/2014  20:46:00       62.082        7.878       16.448       33.669       32.730       25.820     1133.580     1071.259      666.647        0.353        0.144       62.579       22.916        0.134      350.117       31.044      860.944
07/07/2014  20:47:00       86.036       20.033       11.753       25.636       27.007       26.065      657.198      729.396      679.379        0.500        0.103       88.338       18.843        0.045      350.035       30.903      860.934
07/07/2014  20:48:00       92.708        3.027       13.741       54.690       45.576       36.021     2991.001     2077.208     1297.504        0.758        0.318       92.758       34.594        0.139      349.906       30.679      860.935
07/07/2014  20:49:00       72.332        6.691       36.919       54.567       48.428       40.074     2977.580     2345.260     1605.889        0.678        0.346       72.641       29.558        0.166      349.964       30.779      860.937
07/07/2014  20:50:00       40.400       11.940       47.967       70.120       49.736       38.704     4916.883     2473.637     1498.016        0.648        0.444       42.128       39.949        0.899      349.973       30.793      860.925
07/07/2014  20:51:00       84.440      -16.305       43.940       64.531       67.716       41.581     4164.302     4585.410     1729.008        0.990        0.524       86.000       43.901        0.261      349.998       30.836      860.922
07/07/2014  20:52:00       94.266      -31.422       35.350       87.019       61.525       39.660     7572.280     3785.330     1572.949        1.202        0.647       99.365       42.381        0.182      350.347       31.443      860.927
07/07/2014  20:53:00       70.836      -36.715       19.047       59.877       97.533       59.574     3585.201     9512.644     3549.003        1.168        0.832       79.785       63.622        0.636      350.318       31.394      860.932
07/07/2014  20:54:00       71.297       -4.781       41.435       57.164       57.042       44.728     3267.746     3253.818     2000.627        0.767        0.426       71.457       43.627        0.373      350.185       31.163      860.930
07/07/2014  20:55:00       27.222      -28.604       33.747       51.733       51.277       36.842     2676.351     2629.380     1357.322        0.468        0.333       39.487       32.517        0.678      350.450       31.624      860.918
07/07/2014  20:56:00      107.832     -133.955       -0.901       90.382      105.937       49.273     8168.835    11222.649     2427.873        2.569        1.091      171.964       71.265        0.172      350.668       32.001      860.920
07/07/2014  20:57:00      148.920     -162.030      -15.979       66.771       75.954       36.774     4458.429     5768.944     1352.345        3.013        0.579      220.070       31.022        0.020      350.661       31.986      860.911
07/07/2014  20:58:00      109.536     -161.334      -18.028       64.893       76.209       49.181     4211.138     5807.872     2418.760        2.539        0.622      195.005       41.113        0.044      350.713       32.079      860.913
07/07/2014  20:59:00      141.102     -170.772      -27.620       78.606       59.043       37.684     6178.919     3486.109     1420.110        3.046        0.554      221.524       28.668        0.017      350.777       32.188      860.910
07/07/2014  21:00:00      173.961     -199.925      -25.354       49.240       63.942       32.678     2424.592     4088.613     1067.872        3.923        0.379      265.014       26.771        0.010      350.757       32.156      860.919
07/07/2014  21:01:00       80.746     -105.897       -8.906       65.845       66.540       44.661     4335.621     4427.558     1994.643        1.428        0.538      133.170       51.196        0.148      350.599       31.881      860.917
07/07/2014  21:02:00      194.285     -193.384      -19.022       69.271       91.673       45.238     4798.481     8403.905     2046.486        4.537        0.762      274.124       52.293        0.036      350.730       32.109      860.918
07/07/2014  21:03:00      168.168     -162.351        9.181      109.500      145.496       74.853    11990.255    21169.179     5602.994        4.674        1.938      233.748       98.079        0.176      350.708       32.070      860.947
07/07/2014  21:04:00      145.615     -126.169        2.202       86.934       91.292       45.761     7557.598     8334.226     2094.091        2.755        0.899      192.671       37.661        0.038      350.668       32.000      860.981
07/07/2014  21:05:00       73.556      -51.482       33.614       55.394       71.978       47.830     3068.550     5180.813     2287.727        0.986        0.527       89.783       46.427        0.267      350.519       31.744      860.996
07/07/2014  21:06:00      149.551     -116.777       -7.151       71.751       68.076       38.678     5148.214     4634.294     1495.951        2.366        0.564      189.743       33.371        0.031      350.625       31.923      861.014
07/07/2014  21:07:00      153.181     -135.234      -18.018       70.541       78.547       48.099     4975.990     6169.681     2313.493        2.777        0.673      204.335       26.924        0.017      350.628       31.930      861.031
07/07/2014  21:08:00       65.890      -52.974       27.701       59.301       86.978       48.952     3516.559     7565.113     2396.336        1.069        0.674       84.544       56.261        0.443      350.421       31.572      861.063
07/07/2014  21:09:00      164.863     -175.606      -21.967       86.726      103.264       51.696     7521.314    10663.532     2672.481        3.968        1.043      240.868       59.476        0.061      350.658       31.982      861.073
07/07/2014  21:10:00      166.489     -145.580      -12.172       67.066       74.810       48.151     4497.887     5596.494     2318.481        3.073        0.621      221.161       43.595        0.039      350.653       31.973      861.077
07/07/2014  21:11:00      180.580     -149.058      -28.794       55.022       78.565       40.976     3027.395     6172.536     1679.025        3.327        0.544      234.153       41.770        0.032      350.637       31.943      861.085
07/07/2014  21:12:00      118.118     -141.373       -4.825       85.058       94.317       54.104     7234.793     8895.629     2927.231        2.651        0.953      184.223       58.218        0.100      350.575       31.837      861.091
07/07/2014  21:13:00      159.246     -121.660       18.838       85.238      117.562       70.441     7265.505    13820.829     4961.906        3.328        1.302      200.401       85.581        0.182      350.612       31.902      861.107
07/07/2014  21:14:00       71.537      -67.935       29.142       54.833       71.239       41.492     3006.631     5075.062     1721.586        1.019        0.490       98.654       39.825        0.163      350.524       31.752      861.137
07/07/2014  21:15:00      127.751     -125.859       14.360       76.736      156.948       78.940     5888.434    24632.790     6231.475        3.455        1.838      179.334       90.290        0.253      350.608       31.898      861.138
07/07/2014  21:16:00      150.413     -144.350       -7.242       82.834      132.808       56.425     6861.475    17637.979     3183.736        3.559        1.384      208.473       80.350        0.149      350.637       31.947      861.141
07/07/2014  21:17:00      101.496      -76.402       16.162       91.551       92.266       65.003     8381.615     8512.960     4225.420        1.876        1.056      127.038       72.853        0.329      350.572       31.833      861.160
07/07/2014  21:18:00       65.233      -65.379       23.780       48.991       93.024       45.632     2400.153     8653.414     2082.309        1.111        0.657       92.357       44.312        0.230      350.500       31.710      861.189
07/07/2014  21:19:00       55.196       64.498      101.850       51.494       82.809       52.224     2651.623     6857.275     2727.377        1.491        0.612       84.892       56.352        0.441      350.499       31.709      861.220
07/07/2014  21:20:00       62.686      -10.810       80.092       79.976      108.502       66.055     6396.104    11772.743     4363.256        1.649        1.127       63.612       80.791        1.613      350.584       31.854      861.261
07/07/2014  21:21:00      120.057      -37.504       12.516      113.123       78.457       63.299    12796.896     6155.518     4006.767        1.946        1.148      125.779       55.618        0.196      350.648       31.965      861.203
07/07/2014  21:22:00       75.628       40.580       84.395       74.847       90.050       58.319     5602.134     8108.952     3401.095        1.580        0.856       85.827       53.971        0.395      350.588       31.863      861.227
07/07/2014  21:23:00       68.750      120.926      139.252       87.299       88.284       58.113     7621.048     7794.098     3377.132        2.876        0.940      139.103       56.194        0.163      350.556       31.807      861.259
07/07/2014  21:24:00       81.720       89.610      122.482       88.880      108.887       72.315     7899.583    11856.427     5229.529        2.734        1.249      121.277       80.224        0.438      350.562       31.816      861.287
07/07/2014  21:25:00       29.256       91.667      116.270       60.416       53.020       40.422     3650.077     2811.148     1633.908        1.543        0.405       96.222       39.281        0.167      350.536       31.772      861.309
07/07/2014  21:26:00       79.584      -21.723       91.131       99.617      194.692       83.083     9923.533    37904.799     6902.792        3.491        2.737       82.495       98.498        1.426      350.602       31.884      861.314
07/07/2014  21:27:00      105.315      -52.923       60.744      139.713      232.798      109.855    19519.759    54194.753    12068.054        5.167        4.289      117.864      148.478        1.587      350.713       32.079      861.298
07/07/2014  21:28:00      113.453      -47.706       58.713       93.041       96.398       61.806     8656.703     9292.499     3820.008        2.018        1.088      123.075       55.437        0.203      350.709       32.070      861.317
07/07/2014  21:29:00       87.754       60.385       96.435       80.736       98.795       70.466     6518.364     9760.448     4965.480        2.094        1.062      106.523       69.736        0.429      350.669       32.003      861.333
07/07/2014  21:30:00       80.532       11.887       82.377       98.611      105.477       73.244     9724.046    11125.440     5364.663        1.981        1.311       81.405       79.847        0.962      350.637       31.947      861.364
07/07/2014  21:31:00      132.466       70.281      126.501      133.968      105.808       71.515    17947.432    11195.369     5114.327        3.637        1.713      149.956       79.229        0.279      350.637       31.946      861.386
07/07/2014  21:32:00       82.113      -19.224       72.424       79.956      128.016       74.942     6392.988    16388.207     5616.347        2.037        1.420       84.333       83.878        0.989      350.634       31.944      861.405
07/07/2014  21:33:00       50.577      -36.414       48.574       94.520      156.113       77.983     8934.077    24371.170     6081.413        2.281        1.969       62.322       98.031        2.474      350.614       31.908      861.417
07/07/2014  21:34:00       57.075        2.820       69.676       68.109      101.394       61.085     4638.863    10280.717     3731.349        1.338        0.933       57.145       53.013        0.861      350.615       31.911      861.437
07/07/2014  21:35:00       63.810       34.711       74.286       93.091       78.320       64.760     8665.971     6134.064     4193.896        1.489        0.950       72.640       55.174        0.577      350.606       31.893      861.469
07/07/2014  21:36:00       55.718       80.313      112.379       63.114       65.592       34.434     3983.404     4302.283     1185.712        1.583        0.474       97.748       36.320        0.138      350.547       31.791      861.498
07/07/2014  21:37:00       61.704        2.316       76.503       72.002      118.542       72.777     5184.229    14052.254     5296.453        1.710        1.227       61.747       84.771        1.885      350.566       31.825      861.517
07/07/2014  21:38:00      168.861      -39.161       71.561      120.513      147.392      102.788    14523.337    21724.334    10565.340        4.098        2.341      173.343      115.522        0.444      350.562       31.813      861.532
07/07/2014  21:39:00       79.385       32.722       90.243      107.941      108.050       69.484    11651.258    11674.901     4828.028        2.183        1.408       85.864       86.168        1.007      350.410       31.552      861.550
07/07/2014  21:40:00       30.738      -59.849       61.898       68.865      146.405       89.076     4742.430    21434.500     7934.552        2.123        1.706       67.281      101.410        2.272      350.443       31.610      861.560
07/07/2014  21:41:00       50.217     -124.931       17.602       80.035       97.719       73.093     6405.569     9549.100     5342.650        1.986        1.065      134.646       57.937        0.185      350.499       31.707      861.571
07/07/2014  21:42:00       70.662      -93.329        5.514       72.165       83.692       64.661     5207.733     7004.392     4181.038        1.506        0.820      117.062       44.639        0.145      350.459       31.639      861.592
07/07/2014  21:43:00      252.080     -205.506        3.312      173.798      130.483       80.931    30205.799    17025.791     6549.837        7.978        2.689      325.234       51.124        0.025      350.536       31.769      861.584
07/07/2014  21:44:00      244.171     -162.860       18.509      151.412      199.242       89.321    22925.451    39697.536     7978.271        7.853        3.530      293.501      109.306        0.139      350.490       31.690      861.589
07/07/2014  21:45:00      218.891     -166.146       53.503      179.138      255.608      117.115    32090.272    65335.602    13715.825        9.474        5.557      274.805      157.040        0.327      350.464       31.645      861.563
07/07/2014  21:46:00      403.442     -429.008      -24.068      297.409      345.421      174.143    88451.854   119315.576    30325.654       29.270       11.905      588.908      225.729        0.147      350.514       31.731      861.472
07/07/2014  21:47:00      170.615     -137.343       80.941      231.788      326.010      179.163    53725.681   106282.696    32099.237       12.328        9.605      219.027      213.844        0.953      350.482       31.675      861.539
07/07/2014  21:48:00      162.102      -14.935      115.519      152.292      197.455      115.286    23192.988    38988.428    13290.895        5.765        3.774      162.788      124.412        0.584      350.476       31.666      861.638
07/07/2014  21:49:00      237.845      -59.137       81.149      179.780      241.204      157.692    32320.954    58179.547    24866.656        9.099        5.768      245.087      173.455        0.501      350.422       31.570      861.638
07/07/2014  21:50:00      116.062      134.487      196.992      146.808      151.114      102.488    21552.688    22835.354    10503.804        6.262        2.745      177.643       95.126        0.287      350.326       31.404      861.661
07/07/2014  21:51:00      254.097     -232.239       74.740      234.917      401.414      170.961    55185.930   161133.463    29227.814       18.478       12.277      344.239      255.352        0.550      350.417       31.562      861.615
07/07/2014  21:52:00      252.313     -228.217       40.135      178.856      274.804      167.338    31989.563    75517.064    28002.150       12.641        6.775      340.213      200.269        0.347      350.432       31.586      861.644
07/07/2014  21:53:00       79.146       -7.244       95.632       83.150      159.178       83.241     6913.895    25337.741     6929.001        2.731        1.959       79.476       91.775        1.333      350.312       31.382      861.718
07/07/2014  21:54:00      179.327     -111.578       28.584      138.460      160.568       93.441    19171.160    25782.128     8731.234        4.955        2.684      211.206       88.328        0.175      350.310       31.377      861.709
07/07/2014  21:55:00      149.865       46.746      146.828      147.529      174.358       82.684    21764.910    30400.884     6836.572        5.259        2.950      156.987       90.044        0.329      350.281       31.327      861.713
07/07/2014  21:56:00      127.244      -89.458       44.534      128.880      174.505       82.336    16609.939    30451.832     6779.254        4.000        2.692      155.543       92.444        0.353      350.264       31.298      861.770
07/07/2014  21:57:00      261.010     -287.109      -41.628      114.164      120.263       49.952    13033.365    14463.245     2495.236        9.114        1.500      388.018       46.640        0.014      350.368       31.479      861.760
07/07/2014  21:58:00      222.333     -189.569      -17.390      107.421      125.286       68.682    11539.175    15696.474     4717.207        5.881        1.598      292.179       61.018        0.044      350.353       31.452      861.762
07/07/2014  21:59:00      124.775      -13.999      100.019      142.577      202.243      141.245    20328.254    40902.425    19950.051        5.346        4.059      125.558      161.729        1.659      350.317       31.391      861.776
07/07/2014  22:00:00      301.151     -268.245        7.042      252.720      286.832      146.688    63867.204    82272.837    21517.383       16.515        8.383      403.295      193.152        0.229      350.303       31.365      861.723
07/07/2014  22:01:00      279.123     -214.186       32.351      242.315      261.488      157.003    58716.441    68375.968    24649.807       13.826        7.587      351.831      183.508        0.272      350.283       31.331      861.700
07/07/2014  22:02:00      152.898     -207.953      -15.094      134.597      146.529       68.508    18116.356    21470.737     4693.320        5.556        2.214      258.113       85.459        0.110      350.232       31.243      861.752
07/07/2014  22:03:00       58.617      -21.229       63.655       89.325      114.096       64.705     7978.967    13017.998     4186.733        1.656        1.259       62.343       75.911        1.483      350.199       31.186      861.741
07/07/2014  22:04:00       84.472      -61.083       65.292      105.566      114.350       92.863    11144.179    13075.867     8623.615        2.398        1.642      104.243       78.224        0.563      350.124       31.055      861.703
07/07/2014  22:05:00       75.648     -108.233       33.550      105.149      157.347       76.702    11056.357    24758.017     5883.226        3.012        2.085      132.049       93.825        0.505      350.128       31.063      861.668
07/07/2014  22:06:00       38.105     -109.500       68.665      118.686      185.146      114.447    14086.380    34279.018    13098.203        3.980        3.073      115.941      128.654        1.231      350.113       31.036      861.642
07/07/2014  22:07:00       15.524     -222.352       -2.319      151.785      149.167       75.212    23038.728    22250.758     5656.869        5.031        2.547      222.893       78.405        0.124      350.067       30.953      861.617
07/07/2014  22:08:00      131.248     -207.704       -6.653      184.951      179.620       97.081    34206.788    32263.467     9424.801        6.814        3.795      245.697       98.477        0.161      350.118       31.044      861.579
07/07/2014  22:09:00      172.916     -292.553      -33.539      121.505      136.073       76.578    14763.433    18515.980     5864.161        7.787        1.957      339.834       62.916        0.034      350.141       31.082      861.564
07/07/2014  22:10:00        6.721     -129.234        6.263       91.910       92.790       82.317     8447.404     8610.043     6776.091        2.031        1.192      129.409       48.989        0.143      350.106       31.024      861.525
07/07/2014  22:11:00      -50.358     -186.862       -8.993       81.334      111.309       66.782     6615.279    12389.638     4459.884        3.050        1.173      193.529       48.123        0.062      350.083       30.982      861.495
07/07/2014  22:12:00     -160.302     -139.473      -14.079       84.363       93.846       47.990     7117.123     8807.018     2303.004        3.178        0.911      212.484       36.518        0.030      350.093       30.998      861.420
07/07/2014  22:13:00      -34.505     -171.624      -26.182       97.871      100.380       49.646     9578.794    10076.203     2464.723        2.672        1.106      175.058       24.365        0.019      350.147       31.094      861.463
07/07/2014  22:14:00      -26.016     -189.859      -16.260      135.447      101.474       56.936    18345.816    10296.896     3241.754        3.443        1.594      191.633       52.931        0.076      350.094       31.001      861.462
07/07/2014  22:15:00      -26.413     -115.906       -5.069       77.791       60.578       50.650     6051.369     3669.711     2565.432        1.322        0.614      118.877       25.888        0.047      350.031       30.894      861.445
07/07/2014  22:16:00      -40.066       -9.204       18.885       55.363       42.233       24.338     3065.086     1783.651      592.323        0.374        0.272       41.110       30.646        0.556      350.025       30.885      861.417
07/07/2014  22:17:00       50.277     -144.784       -4.079       75.434       75.045       44.391     5690.301     5631.706     1970.565        1.840        0.665      153.265       38.323        0.063      349.975       30.795      861.405
07/07/2014  22:18:00     -116.668      -73.489       13.697      105.344       82.877       47.523    11097.428     6868.607     2258.480        1.971        1.011      137.884       59.302        0.185      350.047       30.920      861.338
07/07/2014  22:19:00     -145.800     -199.340       -7.072       98.683      109.420       58.909     9738.398    11972.769     3470.217        4.311        1.259      246.969       54.896        0.049      350.097       31.005      861.352
07/07/2014  22:20:00     -109.710     -113.844        6.901      122.433      116.280       63.072    14989.897    13521.117     3978.036        2.876        1.624      158.103       64.479        0.166      350.020       30.873      861.367
07/07/2014  22:21:00      -62.334     -176.076      -12.907      134.131      112.784       48.961    17991.102    12720.279     2397.206        3.408        1.655      186.784       51.553        0.076      349.944       30.742      861.335
07/07/2014  22:22:00      -38.369      -80.693       14.883       76.352       81.558       39.125     5829.579     6651.753     1530.730        1.111        0.701       89.351       43.419        0.236      349.921       30.703      861.351
07/07/2014  22:23:00     -183.820     -177.925      -19.016       68.427       98.806       41.333     4682.240     9762.696     1708.405        4.098        0.808      255.826       24.148        0.009      349.970       30.785      861.371
07/07/2014  22:24:00     -108.047     -167.459        6.589      117.839      127.476       61.188    13886.010    16250.021     3743.960        3.681        1.694      199.290       68.524        0.118      349.931       30.720      861.411
07/07/2014  22:25:00     -213.285     -221.411      -11.119      105.425      110.882       54.063    11114.381    12294.898     2922.785        6.048        1.317      307.430       50.994        0.028      349.931       30.718      861.399
07/07/2014  22:26:00     -155.019     -213.366       -7.580       86.935      117.208       58.789     7557.655    13737.604     3456.144        4.718        1.238      263.735       50.580        0.037      349.897       30.660      861.402
07/07/2014  22:27:00      -74.715     -168.394       -1.852       66.978       94.937       40.433     4486.011     9012.999     1634.858        2.454        0.757      184.225       27.194        0.022      349.874       30.621      861.422
07/07/2014  22:28:00     -137.062     -126.721        4.378       90.569       88.412       39.845     8202.717     7816.704     1587.638        2.623        0.880      186.666       26.698        0.020      349.890       30.646      861.433
07/07/2014  22:29:00     -158.149     -112.796       12.461      120.782       93.267       54.793    14588.202     8698.808     3002.291        3.208        1.314      194.253       58.052        0.089      349.899       30.664      861.438
07/07/2014  22:30:00     -196.511     -130.780        0.884       70.931       81.351       43.535     5031.151     6617.952     1895.306        3.463        0.677      236.051       35.928        0.023      349.908       30.678      861.427
07/07/2014  22:31:00     -232.431     -109.128      -10.967       83.672       87.687       41.627     7001.076     7689.037     1732.791        4.124        0.821      256.774       37.882        0.022      349.965       30.777      861.382
07/07/2014  22:32:00     -150.331     -176.256      -16.078       66.151       64.433       43.391     4375.995     4151.577     1882.748        3.217        0.521      231.658       34.552        0.022      349.960       30.769      861.340
07/07/2014  22:33:00     -136.683     -113.125        1.444      136.989       65.384       48.552    18765.907     4275.095     2357.292        2.844        1.270      177.425       43.356        0.060      349.912       30.687      861.329
07/07/2014  22:34:00     -172.671     -231.523       17.047      178.871      161.953       87.488    31994.682    26228.732     7654.193        7.478        3.294      288.822       88.838        0.095      350.034       30.897      861.349
07/07/2014  22:35:00     -215.393     -337.888       -0.850      146.612      156.926       81.597    21495.006    24625.797     6658.075       10.666        2.639      400.703       56.320        0.020      350.069       30.956      861.373
07/07/2014  22:36:00     -129.481     -268.675       -2.562      121.520      145.106       68.807    14767.223    21055.733     4734.450        6.475        2.028      298.247       65.440        0.048      350.053       30.929      861.389
07/07/2014  22:37:00     -179.732     -212.718       -4.238      130.206      106.815       61.879    16953.544    11409.425     3829.054        5.488        1.610      278.482       66.155        0.056      350.021       30.873      861.426
07/07/2014  22:38:00     -128.989     -106.295       -4.485       69.233      111.375       54.878     4793.184    12404.338     3011.631        2.408        1.010      167.143       54.468        0.106      349.979       30.801      861.430
07/07/2014  22:39:00      -74.097     -124.084       -5.519       78.894       64.795       36.903     6224.271     4198.447     1361.826        1.635        0.589      144.524       32.190        0.050      350.022       30.881      861.465
07/07/2014  22:40:00       39.606      -49.568       13.695       60.385       56.239       37.850     3646.344     3162.795     1432.600        0.623        0.412       63.448       36.064        0.323      349.952       30.760      861.463
07/07/2014  22:41:00       52.720     -211.128      -19.165       59.283      115.057       48.194     3514.509    13238.105     2322.619        3.340        0.954      217.610       41.871        0.037      349.982       30.809      861.498
07/07/2014  22:42:00       37.913      -62.051       54.172       66.351      129.900       72.504     4402.517    16873.966     5256.783        1.737        1.327       72.717       79.400        1.192      349.980       30.806      861.446
07/07/2014  22:43:00       69.886      -78.939       42.557      109.677      122.834       87.039    12029.126    15088.226     7575.758        2.380        1.735      105.430       83.302        0.624      349.931       30.719      861.479
07/07/2014  22:44:00       74.055     -200.722        4.012      187.072      129.771       66.270    34996.072    16840.595     4391.737        5.100        2.811      213.947       48.421        0.051      349.897       30.660      861.520
07/07/2014  22:45:00      211.524     -214.643       43.240      160.552      213.095      115.662    25776.878    45409.556    13377.652        8.861        4.228      301.354      135.507        0.202      349.904       30.671      861.491
07/07/2014  22:46:00       97.974      -88.552       28.726      145.733      129.689       73.915    21238.090    16819.292     5463.440        3.089        2.176      132.062       78.714        0.355      349.884       30.639      861.526
07/07/2014  22:47:00       57.496      -34.340       36.012       57.146      107.648       93.766     3265.632    11588.088     8792.128        1.471        1.182       66.971       94.562        1.994      349.788       30.473      861.556
07/07/2014  22:48:00       20.592       31.869      129.048       68.762      146.438       98.473     4728.271    21444.108     9696.972        2.698        1.793       37.943      106.954        7.946      349.786       30.468      861.554
07/07/2014  22:49:00      120.719      -51.566       99.510      142.263      183.529      112.083    20238.862    33682.923    12562.563        4.680        3.324      131.271      123.679        0.888      349.773       30.445      861.562
07/07/2014  22:50:00      131.942      -92.197       89.401      148.300      245.707      130.739    21992.763    60371.861    17092.567        6.666        4.973      160.962      171.192        1.131      349.767       30.433      861.564
07/07/2014  22:51:00      107.200      -86.463       67.887      107.839      191.253      104.817    11629.264    36577.632    10986.640        4.138        2.960      137.723      131.562        0.913      349.750       30.402      861.545
07/07/2014  22:52:00        2.056      -29.777       63.963       94.042      123.397      107.108     8843.846    15226.875    11472.174        2.026        1.777       29.848       98.526       10.896      349.713       30.341      861.549
07/07/2014  22:53:00       48.929      -82.927       11.116      103.265       83.808       55.878    10663.724     7023.813     3122.364        1.510        1.040       96.285       42.759        0.197      349.630       30.198      861.564
07/07/2014  22:54:00      173.098     -257.633       15.156      106.361      135.848       92.093    11312.556    18454.636     8481.175        6.740        1.912      310.383       87.665        0.080      349.700       30.315      861.554
07/07/2014  22:55:00       62.667     -208.967       -9.002      108.773      146.122       76.317    11831.496    21351.530     5824.320        4.333        1.950      218.162       73.303        0.113      349.646       30.224      861.565
07/07/2014  22:56:00       82.142      -95.671        3.345       80.517       86.854       49.789     6482.909     7543.672     2478.956        1.621        0.825      126.096       57.887        0.211      349.636       30.208      861.594
07/07/2014  22:57:00      113.007     -125.045       22.707      132.804      180.458       85.887    17636.993    32565.037     7376.631        4.324        2.879      168.544      115.454        0.469      349.553       30.063      861.596
07/07/2014  22:58:00       37.110      -59.403       36.302       66.860      103.513       49.800     4470.311    10714.930     2480.073        1.194        0.883       70.042       61.284        0.766      349.503       29.977      861.628
07/07/2014  22:59:00       61.209      -71.945       28.455       70.531      135.971       47.896     4974.591    18487.980     2294.064        1.774        1.288       94.460       67.483        0.510      349.533       30.029      861.631
07/07/2014  23:00:00       16.621       18.552       56.077       59.147       83.107       74.972     3498.335     6906.719     5620.784        0.989        0.801       24.908       66.979        7.231      349.334       29.685      861.622
07/07/2014  23:01:00      125.213      -50.271       51.092      128.257      133.652       71.855    16449.978    17862.790     5163.138        3.014        1.974      134.928       88.062        0.426      349.561       30.076      861.635
07/07/2014  23:02:00       53.516      -71.049       23.273       71.481       98.580       58.575     5109.520     9718.035     3431.049        1.335        0.913       88.949       67.621        0.578      349.478       29.933      861.669
07/07/2014  23:03:00       75.007      -44.452       31.135       67.562       75.380       50.854     4564.582     5682.071     2586.100        1.070        0.642       87.190       45.623        0.274      349.394       29.788      861.669
07/07/2014  23:04:00       13.697      -81.740       21.451       57.771      112.424       53.705     3337.517    12639.224     2884.276        1.309        0.943       82.880       60.002        0.524      349.562       30.080      861.648
07/07/2014  23:05:00       76.608     -118.205       18.639       92.545      137.717       57.734     8564.612    18966.108     3333.255        2.552        1.543      140.859       72.193        0.263      349.607       30.158      861.641
07/07/2014  23:06:00       20.574        5.914       55.194       41.567       78.220       46.698     1727.808     6118.300     2180.688        0.676        0.501       21.407       58.715        7.523      349.489       29.955      861.640
07/07/2014  23:07:00      131.284     -123.435       -7.171       65.596       98.033       58.206     4302.798     9610.392     3387.907        2.491        0.865      180.199       61.785        0.118      349.598       30.140      861.641
07/07/2014  23:08:00       26.531        7.663       64.633       62.772       81.787       61.594     3940.386     6689.087     3793.837        0.968        0.721       27.615       60.727        4.836      349.565       30.087      861.636
07/07/2014  23:09:00       -4.293       28.506       79.691       42.201       52.507       36.496     1780.913     2756.984     1331.957        0.652        0.293       28.827       28.531        0.980      349.433       29.857      861.661
07/07/2014  23:10:00      148.412      -77.130       -4.384      102.500      137.589       65.763    10506.183    18930.646     4324.782        3.087        1.688      167.257       87.247        0.272      349.395       29.789      861.668
07/07/2014  23:11:00      110.173      -66.838       89.041      143.534      238.937      143.911    20601.926    57090.777    20710.251        6.145        4.920      128.862      172.719        1.797      349.697       30.310      861.669
07/07/2014  23:12:00      166.219     -114.650       84.829      191.213      279.434      152.968    36562.418    78083.288    23399.312        9.298        6.902      201.924      206.230        1.043      349.744       30.393      861.669
07/07/2014  23:13:00       83.130      -37.672      118.628      147.271      234.655      168.540    21688.605    55062.906    28405.678        6.376        5.258       91.268      176.462        3.738      349.723       30.358      861.628
07/07/2014  23:14:00      146.869      -20.928      134.041      138.606      243.798      139.049    19211.602    59437.419    19334.512        6.896        4.899      148.353      166.988        1.267      349.726       30.362      861.638
07/07/2014  23:15:00       20.417      -86.042       61.088      133.559      139.643      105.486    17837.946    19500.082    11127.265        3.000        2.423       88.432      104.864        1.406      349.718       30.348      861.661
07/07/2014  23:16:00       72.241       13.504       71.019       95.602      154.570       99.786     9139.682    23892.013     9957.298        2.671        2.149       73.492      119.187        2.630      349.686       30.292      861.678
07/07/2014  23:17:00       62.062     -130.052       55.810      162.809      241.918      109.712    26506.759    58524.124    12036.667        6.046        4.853      144.101      128.434        0.794      349.712       30.338      861.651
07/07/2014  23:18:00       58.036     -130.318       55.387      130.046      196.613      116.235    16911.911    38656.641    13510.489        4.624        3.454      142.656      141.692        0.987      349.581       30.111      861.608
07/07/2014  23:19:00       87.392     -199.315       32.999      143.905      161.187       95.486    20708.525    25981.286     9117.636        5.212        2.790      217.632       86.398        0.158      349.542       30.044      861.582
07/07/2014  23:20:00      110.341     -102.471       57.422      129.180      168.825      105.769    16687.476    28501.982    11187.148        4.117        2.819      150.583      107.327        0.508      349.497       29.964      861.494
07/07/2014  23:21:00       16.204     -218.674      -14.013      156.737      156.168       76.705    24566.331    24388.381     5883.625        5.155        2.742      219.274       91.935        0.176      349.525       30.014      861.431
07/07/2014  23:22:00      -39.479     -344.820      -20.088      174.181      173.769       83.660    30338.911    30195.791     6998.969        9.419        3.377      347.073       66.818        0.037      349.455       29.893      861.369
07/07/2014  23:23:00       59.518     -265.861       -4.728      161.306      210.278       95.820    26019.609    44217.030     9181.494        7.682        3.971      272.442      108.618        0.159      349.411       29.816      861.293
07/07/2014  23:24:00       31.918     -207.098      -10.155      176.128      147.161       91.158    31021.013    21656.269     8309.834        5.249        3.049      209.543       85.583        0.167      349.366       29.738      861.260
07/07/2014  23:25:00        3.797     -204.348       16.395      173.193      201.117       86.334    29995.927    40447.872     7453.502        5.996        3.895      204.383       88.157        0.186      349.328       29.673      861.223
07/07/2014  23:26:00      -31.088     -125.532       -1.575       77.970       64.785       47.108     6079.365     4197.115     2219.174        1.461        0.625      129.324       22.381        0.030      349.306       29.639      861.235
07/07/2014  23:27:00      -45.781      -76.265       12.655      111.439      100.584       47.589    12418.736    10117.198     2264.735        1.643        1.240       88.950       49.150        0.305      349.268       29.573      861.236
07/07/2014  23:28:00       52.062     -260.782        0.093      140.029      186.169       87.324    19608.077    34658.734     7625.521        6.629        3.095      265.928       81.133        0.093      349.235       29.512      861.235
07/07/2014  23:29:00      -65.181     -125.990       -1.990      117.524      104.905       66.009    13811.970    11004.962     4357.236        2.465        1.459      141.852       50.936        0.129      349.254       29.546      861.221
07/07/2014  23:30:00      -43.148      -63.625       23.034      117.657       65.258       46.421    13843.187     4258.542     2154.952        1.335        1.013       76.876       57.132        0.552      349.278       29.588      861.218
07/07/2014  23:31:00       -1.371     -121.708       22.479      105.199      109.676       56.883    11066.922    12028.755     3235.684        2.082        1.317      121.716       28.975        0.057      349.270       29.571      861.186
07/07/2014  23:32:00      -33.495      -49.676       13.388       68.115       56.675       42.606     4639.664     3212.060     1815.250        0.672        0.483       59.914       34.008        0.322      349.278       29.590      861.178
07/07/2014  23:33:00     -116.054      -55.082       -9.887       75.853       70.801       44.901     5753.713     5012.832     2016.059        1.469        0.639      128.462       39.161        0.093      349.303       29.633      861.156
07/07/2014  23:34:00       -6.521     -120.977      -17.443      102.409       72.346       38.612    10487.696     5233.942     1490.876        1.609        0.861      121.153       30.448        0.063      349.301       29.629      861.164
07/07/2014  23:35:00      -60.642     -129.537      -14.847      108.297      105.833       61.293    11728.204    11200.647     3756.807        2.368        1.334      143.029       63.211        0.195      349.305       29.634      861.139
07/07/2014  23:36:00     -137.089     -188.089       -6.843      101.568       91.450       52.031    10316.081     8363.191     2707.245        3.780        1.069      232.746       58.185        0.062      349.365       29.737      861.101
07/07/2014  23:37:00     -264.141     -149.213       -6.489      134.004      102.893       66.877    17957.045    10587.041     4472.506        6.254        1.651      303.373       70.037        0.053      349.390       29.780      861.047
07/07/2014  23:38:00     -355.243     -147.111      -14.676      129.092      121.038       57.705    16664.647    14650.305     3329.865        9.134        1.732      384.499       53.124        0.019      349.420       29.829      860.958
07/07/2014  23:39:00     -359.711     -201.089      -26.573      149.769      127.711       62.225    22430.886    16310.063     3871.952       10.657        2.131      412.103       66.029        0.026      349.432       29.852      860.965
07/07/2014  23:40:00     -279.030     -204.697      -12.077      134.294      125.802       80.924    18034.762    15826.084     6548.680        8.015        2.020      346.062       81.395        0.055      349.419       29.829      860.977
07/07/2014  23:41:00     -235.457      -66.130        3.973      158.668       93.478       61.757    25175.533     8738.056     3813.868        4.877        1.886      244.567       83.151        0.116      349.412       29.816      861.019
07/07/2014  23:42:00     -229.839     -158.266      -13.832      132.221      107.955       59.456    17482.326    11654.177     3534.991        5.536        1.634      279.059       56.799        0.041      349.416       29.823      861.007
07/07/2014  23:43:00     -293.539     -233.810      -23.724      159.767      109.768       74.883    25525.371    12049.001     5607.490        9.228        2.159      375.277       89.514        0.057      349.420       29.830      860.921
07/07/2014  23:44:00     -230.674     -178.332       -6.038      136.816      112.847       68.954    18718.601    12734.507     4754.709        6.062        1.810      291.570       71.762        0.061      349.417       29.824      860.890
07/07/2014  23:45:00     -350.979     -143.241      -10.772      149.791      132.965       61.292    22437.280    17679.727     3756.658        9.384        2.194      379.084       67.285        0.032      349.499       29.969      860.824
07/07/2014  23:46:00     -238.905     -188.750       -4.854       81.667       76.337       44.055     6669.423     5827.303     1940.836        5.358        0.722      304.470       38.034        0.016      349.532       30.025      860.904
07/07/2014  23:47:00     -183.594     -193.541        1.986      122.013      134.072       66.268    14887.094    17975.399     4391.452        5.421        1.863      266.767       64.558        0.059      349.819       30.524      860.861
07/07/2014  23:48:00     -203.014     -165.502       10.435      128.559      110.392       66.952    16527.407    12186.326     4482.620        5.095        1.660      261.927       62.091        0.056      349.692       30.303      860.783
07/07/2014  23:49:00     -120.200     -218.943       -1.462      101.551      131.557       62.178    10312.704    17307.134     3866.108        4.693        1.574      249.768       76.143        0.093      349.655       30.240      860.777
07/07/2014  23:50:00     -191.724     -145.749       -2.323      106.892       96.655       50.045    11425.862     9342.187     2504.516        4.064        1.164      240.834       54.474        0.051      349.596       30.136      860.797
07/07/2014  23:51:00     -273.983     -158.535       -2.796      142.046      110.171       63.674    20177.053    12137.734     4054.319        6.828        1.818      316.543       62.532        0.039      349.578       30.105      860.837
07/07/2014  23:52:00     -144.882      -79.936        0.380      100.485       84.289       47.806    10097.190     7104.684     2285.441        2.343        0.974      165.470       50.555        0.093      349.548       30.055      860.810
07/07/2014  23:53:00     -173.187      -84.312        7.922       96.784      113.193       48.530     9367.223    12812.667     2355.147        3.085        1.227      192.619       46.823        0.059      349.517       30.001      860.805
07/07/2014  23:54:00     -103.085      -61.948       15.494       69.296       87.142       41.067     4801.975     7593.664     1686.461        1.439        0.704      120.267       42.491        0.125      349.484       29.945      860.824
07/07/2014  23:55:00     -185.102      -49.325       -5.684       95.448       73.798       34.958     9110.358     5446.123     1222.075        2.625        0.789      191.561       38.017        0.039      349.510       29.989      860.846
07/07/2014  23:56:00     -160.023      -26.127      -19.931       46.490       68.504       27.415     2161.341     4692.788      751.587        1.715        0.380      162.142       20.132        0.015      349.499       29.974      860.864
07/07/2014  23:57:00     -102.691      117.535      -16.679       34.004       55.329       22.428     1156.272     3061.344      503.013        1.468        0.236      156.077       21.237        0.019      349.476       29.930      860.856
07/07/2014  23:58:00      -96.076       93.758      -16.475       54.988       70.856       28.228     3023.733     5020.505      796.829        1.357        0.442      134.243       23.789        0.031      349.414       29.824      860.842
07/07/2014  23:59:00     -142.522        8.938      -12.767       51.470       29.987       22.789     2649.173      899.250      519.344        1.231        0.203      142.802       22.241        0.024      349.435       29.861      860.849
